<?xml version="1.0" encoding="UTF-8" standalone="no" ?>
<gpx xmlns="http://www.topografix.com/GPX/1/1" xmlns:xsi="http://www.w3.org/2001/XMLSchema-instance" xsi:schemaLocation="http://www.topografix.com/GPX/1/1 http://www.topografix.com/GPX/1/1/gpx.xsd" version="1.1" creator="VisuGPX - https://www.visugpx.com">
  <metadata>
    <name>Cassel trophy VTT 2011</name>
    <desc><![CDATA[Cassel trophy VTT 2011 par vtt5962.com]]></desc>
  </metadata>
  <trk>
    <name><![CDATA[Cassel trophy VTT 2011_1]]></name>
    <trkseg>
      <trkpt lat="50.79392" lon="2.48824">
        <ele>80.93399810791</ele>
        <time>2011-04-17T06:38:27Z</time>
      </trkpt>
      <trkpt lat="50.79375" lon="2.48815">
        <ele>80.19100189209</ele>
        <time>2011-04-17T06:40:58Z</time>
      </trkpt>
      <trkpt lat="50.79348" lon="2.48806">
        <ele>78.674003601074</ele>
        <time>2011-04-17T06:41:03Z</time>
      </trkpt>
      <trkpt lat="50.79314" lon="2.48804">
        <ele>76.63500213623</ele>
        <time>2011-04-17T06:41:08Z</time>
      </trkpt>
      <trkpt lat="50.79272" lon="2.48807">
        <ele>75.532997131348</ele>
        <time>2011-04-17T06:41:14Z</time>
      </trkpt>
      <trkpt lat="50.79227" lon="2.48812">
        <ele>75.476997375488</ele>
        <time>2011-04-17T06:41:21Z</time>
      </trkpt>
      <trkpt lat="50.79183" lon="2.48822">
        <ele>72.955001831055</ele>
        <time>2011-04-17T06:41:27Z</time>
      </trkpt>
      <trkpt lat="50.79137" lon="2.48827">
        <ele>68.794998168945</ele>
        <time>2011-04-17T06:41:32Z</time>
      </trkpt>
      <trkpt lat="50.79078" lon="2.48842">
        <ele>63.081001281738</ele>
        <time>2011-04-17T06:41:37Z</time>
      </trkpt>
      <trkpt lat="50.79004" lon="2.48856">
        <ele>56.851001739502</ele>
        <time>2011-04-17T06:41:43Z</time>
      </trkpt>
      <trkpt lat="50.78945" lon="2.48854">
        <ele>52.671001434326</ele>
        <time>2011-04-17T06:41:48Z</time>
      </trkpt>
      <trkpt lat="50.7891" lon="2.4885">
        <ele>51.035999298096</ele>
        <time>2011-04-17T06:41:51Z</time>
      </trkpt>
      <trkpt lat="50.7881" lon="2.48835">
        <ele>45.785999298096</ele>
        <time>2011-04-17T06:42:00Z</time>
      </trkpt>
      <trkpt lat="50.78799" lon="2.48832">
        <ele>45.551998138428</ele>
        <time>2011-04-17T06:42:01Z</time>
      </trkpt>
      <trkpt lat="50.78716" lon="2.48803">
        <ele>43.119998931885</ele>
        <time>2011-04-17T06:42:09Z</time>
      </trkpt>
      <trkpt lat="50.78605" lon="2.4876">
        <ele>39.263999938965</ele>
        <time>2011-04-17T06:42:20Z</time>
      </trkpt>
      <trkpt lat="50.785" lon="2.48743">
        <ele>36.210998535156</ele>
        <time>2011-04-17T06:42:30Z</time>
      </trkpt>
      <trkpt lat="50.78376" lon="2.48725">
        <ele>32.674999237061</ele>
        <time>2011-04-17T06:42:42Z</time>
      </trkpt>
      <trkpt lat="50.78244" lon="2.48704">
        <ele>29.82799911499</ele>
        <time>2011-04-17T06:42:55Z</time>
      </trkpt>
      <trkpt lat="50.782" lon="2.48694">
        <ele>28.295000076294</ele>
        <time>2011-04-17T06:43:00Z</time>
      </trkpt>
      <trkpt lat="50.78134" lon="2.48671">
        <ele>27.197999954224</ele>
        <time>2011-04-17T06:43:08Z</time>
      </trkpt>
      <trkpt lat="50.78082" lon="2.48631">
        <ele>25.993000030518</ele>
        <time>2011-04-17T06:43:15Z</time>
      </trkpt>
      <trkpt lat="50.78006" lon="2.48581">
        <ele>24.538999557495</ele>
        <time>2011-04-17T06:43:25Z</time>
      </trkpt>
      <trkpt lat="50.77973" lon="2.48565">
        <ele>24.354999542236</ele>
        <time>2011-04-17T06:43:29Z</time>
      </trkpt>
      <trkpt lat="50.77922" lon="2.48548">
        <ele>23.631999969482</ele>
        <time>2011-04-17T06:43:35Z</time>
      </trkpt>
      <trkpt lat="50.77871" lon="2.48546">
        <ele>22.719999313354</ele>
        <time>2011-04-17T06:43:41Z</time>
      </trkpt>
      <trkpt lat="50.77816" lon="2.48544">
        <ele>21.92200088501</ele>
        <time>2011-04-17T06:43:48Z</time>
      </trkpt>
      <trkpt lat="50.77775" lon="2.4854">
        <ele>21.749000549316</ele>
        <time>2011-04-17T06:43:54Z</time>
      </trkpt>
      <trkpt lat="50.77724" lon="2.48539">
        <ele>22.061000823975</ele>
        <time>2011-04-17T06:44:01Z</time>
      </trkpt>
      <trkpt lat="50.77675" lon="2.48533">
        <ele>22.72500038147</ele>
        <time>2011-04-17T06:44:08Z</time>
      </trkpt>
      <trkpt lat="50.77618" lon="2.48528">
        <ele>23.122999191284</ele>
        <time>2011-04-17T06:44:16Z</time>
      </trkpt>
      <trkpt lat="50.77546" lon="2.48518">
        <ele>23.670000076294</ele>
        <time>2011-04-17T06:44:26Z</time>
      </trkpt>
      <trkpt lat="50.7748" lon="2.48511">
        <ele>24.033000946045</ele>
        <time>2011-04-17T06:44:35Z</time>
      </trkpt>
      <trkpt lat="50.77439" lon="2.48511">
        <ele>24.316999435425</ele>
        <time>2011-04-17T06:44:41Z</time>
      </trkpt>
      <trkpt lat="50.77425" lon="2.48531">
        <ele>24.225999832153</ele>
        <time>2011-04-17T06:44:45Z</time>
      </trkpt>
      <trkpt lat="50.77423" lon="2.486">
        <ele>24.729999542236</ele>
        <time>2011-04-17T06:44:53Z</time>
      </trkpt>
      <trkpt lat="50.7742" lon="2.48668">
        <ele>24.759000778198</ele>
        <time>2011-04-17T06:45:00Z</time>
      </trkpt>
      <trkpt lat="50.77419" lon="2.48727">
        <ele>24.513000488281</ele>
        <time>2011-04-17T06:45:06Z</time>
      </trkpt>
      <trkpt lat="50.7742" lon="2.48753">
        <ele>24.02799987793</ele>
        <time>2011-04-17T06:45:10Z</time>
      </trkpt>
      <trkpt lat="50.77421" lon="2.4877">
        <ele>24.045999526977</ele>
        <time>2011-04-17T06:45:14Z</time>
      </trkpt>
      <trkpt lat="50.77423" lon="2.48816">
        <ele>23.622999191284</ele>
        <time>2011-04-17T06:45:20Z</time>
      </trkpt>
      <trkpt lat="50.77418" lon="2.48871">
        <ele>23.523000717163</ele>
        <time>2011-04-17T06:45:26Z</time>
      </trkpt>
      <trkpt lat="50.77411" lon="2.48944">
        <ele>22.931999206543</ele>
        <time>2011-04-17T06:45:33Z</time>
      </trkpt>
      <trkpt lat="50.77404" lon="2.49032">
        <ele>23.204999923706</ele>
        <time>2011-04-17T06:45:41Z</time>
      </trkpt>
      <trkpt lat="50.77388" lon="2.49088">
        <ele>24.364999771118</ele>
        <time>2011-04-17T06:45:46Z</time>
      </trkpt>
      <trkpt lat="50.77358" lon="2.49157">
        <ele>24.906999588013</ele>
        <time>2011-04-17T06:45:53Z</time>
      </trkpt>
      <trkpt lat="50.77344" lon="2.49209">
        <ele>25.351999282837</ele>
        <time>2011-04-17T06:45:58Z</time>
      </trkpt>
      <trkpt lat="50.77313" lon="2.49318">
        <ele>25.693000793457</ele>
        <time>2011-04-17T06:46:08Z</time>
      </trkpt>
      <trkpt lat="50.77282" lon="2.49427">
        <ele>25.333999633789</ele>
        <time>2011-04-17T06:46:18Z</time>
      </trkpt>
      <trkpt lat="50.77273" lon="2.4946">
        <ele>25.096000671387</ele>
        <time>2011-04-17T06:46:21Z</time>
      </trkpt>
      <trkpt lat="50.7727" lon="2.49503">
        <ele>24.502000808716</ele>
        <time>2011-04-17T06:46:25Z</time>
      </trkpt>
      <trkpt lat="50.77278" lon="2.49533">
        <ele>25.170000076294</ele>
        <time>2011-04-17T06:46:29Z</time>
      </trkpt>
      <trkpt lat="50.77277" lon="2.49566">
        <ele>25.261999130249</ele>
        <time>2011-04-17T06:46:33Z</time>
      </trkpt>
      <trkpt lat="50.77265" lon="2.49598">
        <ele>24.997999191284</ele>
        <time>2011-04-17T06:46:37Z</time>
      </trkpt>
      <trkpt lat="50.77246" lon="2.49611">
        <ele>24.972999572754</ele>
        <time>2011-04-17T06:46:40Z</time>
      </trkpt>
      <trkpt lat="50.7724" lon="2.49613">
        <ele>24.920999526977</ele>
        <time>2011-04-17T06:46:41Z</time>
      </trkpt>
      <trkpt lat="50.77155" lon="2.49629">
        <ele>25.10000038147</ele>
        <time>2011-04-17T06:46:53Z</time>
      </trkpt>
      <trkpt lat="50.77101" lon="2.4964">
        <ele>25.673999786377</ele>
        <time>2011-04-17T06:47:01Z</time>
      </trkpt>
      <trkpt lat="50.77083" lon="2.49654">
        <ele>25.660999298096</ele>
        <time>2011-04-17T06:47:04Z</time>
      </trkpt>
      <trkpt lat="50.77079" lon="2.49664">
        <ele>25.709999084473</ele>
        <time>2011-04-17T06:47:05Z</time>
      </trkpt>
      <trkpt lat="50.77051" lon="2.49763">
        <ele>26.341999053955</ele>
        <time>2011-04-17T06:47:14Z</time>
      </trkpt>
      <trkpt lat="50.77024" lon="2.49855">
        <ele>26.569000244141</ele>
        <time>2011-04-17T06:47:22Z</time>
      </trkpt>
      <trkpt lat="50.77021" lon="2.49905">
        <ele>26.621999740601</ele>
        <time>2011-04-17T06:47:26Z</time>
      </trkpt>
      <trkpt lat="50.77023" lon="2.49917">
        <ele>26.646999359131</ele>
        <time>2011-04-17T06:47:27Z</time>
      </trkpt>
      <trkpt lat="50.77051" lon="2.5007">
        <ele>25.166000366211</ele>
        <time>2011-04-17T06:47:39Z</time>
      </trkpt>
      <trkpt lat="50.77067" lon="2.5016">
        <ele>24.777000427246</ele>
        <time>2011-04-17T06:47:46Z</time>
      </trkpt>
      <trkpt lat="50.7708" lon="2.50187">
        <ele>24.386999130249</ele>
        <time>2011-04-17T06:47:49Z</time>
      </trkpt>
      <trkpt lat="50.77103" lon="2.5019">
        <ele>24.292999267578</ele>
        <time>2011-04-17T06:47:52Z</time>
      </trkpt>
      <trkpt lat="50.77121" lon="2.50194">
        <ele>24.552000045776</ele>
        <time>2011-04-17T06:47:54Z</time>
      </trkpt>
      <trkpt lat="50.77171" lon="2.50213">
        <ele>24.791000366211</ele>
        <time>2011-04-17T06:48:00Z</time>
      </trkpt>
      <trkpt lat="50.77197" lon="2.50249">
        <ele>24.011999130249</ele>
        <time>2011-04-17T06:48:04Z</time>
      </trkpt>
      <trkpt lat="50.77242" lon="2.50388">
        <ele>24.118000030518</ele>
        <time>2011-04-17T06:48:15Z</time>
      </trkpt>
      <trkpt lat="50.7728" lon="2.50505">
        <ele>24.961000442505</ele>
        <time>2011-04-17T06:48:25Z</time>
      </trkpt>
      <trkpt lat="50.77309" lon="2.50597">
        <ele>24.60000038147</ele>
        <time>2011-04-17T06:48:33Z</time>
      </trkpt>
      <trkpt lat="50.77355" lon="2.50739">
        <ele>23.745000839233</ele>
        <time>2011-04-17T06:48:46Z</time>
      </trkpt>
      <trkpt lat="50.77379" lon="2.5081">
        <ele>23.620000839233</ele>
        <time>2011-04-17T06:48:53Z</time>
      </trkpt>
      <trkpt lat="50.77383" lon="2.50838">
        <ele>23.805000305176</ele>
        <time>2011-04-17T06:48:56Z</time>
      </trkpt>
      <trkpt lat="50.77369" lon="2.50857">
        <ele>24.138999938965</ele>
        <time>2011-04-17T06:48:59Z</time>
      </trkpt>
      <trkpt lat="50.77363" lon="2.50864">
        <ele>24.076000213623</ele>
        <time>2011-04-17T06:49:00Z</time>
      </trkpt>
      <trkpt lat="50.77311" lon="2.50929">
        <ele>24.507999420166</ele>
        <time>2011-04-17T06:49:08Z</time>
      </trkpt>
      <trkpt lat="50.7726" lon="2.50982">
        <ele>24.392999649048</ele>
        <time>2011-04-17T06:49:16Z</time>
      </trkpt>
      <trkpt lat="50.77219" lon="2.51032">
        <ele>25.235000610352</ele>
        <time>2011-04-17T06:49:23Z</time>
      </trkpt>
      <trkpt lat="50.77199" lon="2.5108">
        <ele>25.013999938965</ele>
        <time>2011-04-17T06:49:28Z</time>
      </trkpt>
      <trkpt lat="50.7718" lon="2.51149">
        <ele>25.278999328613</ele>
        <time>2011-04-17T06:49:35Z</time>
      </trkpt>
      <trkpt lat="50.77181" lon="2.51175">
        <ele>25.375999450684</ele>
        <time>2011-04-17T06:49:38Z</time>
      </trkpt>
      <trkpt lat="50.772" lon="2.51186">
        <ele>24.801000595093</ele>
        <time>2011-04-17T06:49:41Z</time>
      </trkpt>
      <trkpt lat="50.77262" lon="2.51202">
        <ele>24.322999954224</ele>
        <time>2011-04-17T06:49:49Z</time>
      </trkpt>
      <trkpt lat="50.77311" lon="2.51206">
        <ele>24.613000869751</ele>
        <time>2011-04-17T06:49:55Z</time>
      </trkpt>
      <trkpt lat="50.77341" lon="2.51195">
        <ele>24.500999450684</ele>
        <time>2011-04-17T06:49:59Z</time>
      </trkpt>
      <trkpt lat="50.77399" lon="2.5116">
        <ele>25.003999710083</ele>
        <time>2011-04-17T06:50:07Z</time>
      </trkpt>
      <trkpt lat="50.77433" lon="2.51135">
        <ele>25.767999649048</ele>
        <time>2011-04-17T06:50:12Z</time>
      </trkpt>
      <trkpt lat="50.77452" lon="2.51116">
        <ele>25.569000244141</ele>
        <time>2011-04-17T06:50:15Z</time>
      </trkpt>
      <trkpt lat="50.77479" lon="2.51118">
        <ele>24.985000610352</ele>
        <time>2011-04-17T06:50:19Z</time>
      </trkpt>
      <trkpt lat="50.77511" lon="2.51146">
        <ele>24.961000442505</ele>
        <time>2011-04-17T06:50:24Z</time>
      </trkpt>
      <trkpt lat="50.7753" lon="2.51181">
        <ele>25.358999252319</ele>
        <time>2011-04-17T06:50:28Z</time>
      </trkpt>
      <trkpt lat="50.77532" lon="2.51192">
        <ele>25.561000823975</ele>
        <time>2011-04-17T06:50:29Z</time>
      </trkpt>
      <trkpt lat="50.77554" lon="2.51282">
        <ele>26.479000091553</ele>
        <time>2011-04-17T06:50:37Z</time>
      </trkpt>
      <trkpt lat="50.77567" lon="2.51292">
        <ele>25.965000152588</ele>
        <time>2011-04-17T06:50:40Z</time>
      </trkpt>
      <trkpt lat="50.77581" lon="2.51275">
        <ele>26.162000656128</ele>
        <time>2011-04-17T06:50:43Z</time>
      </trkpt>
      <trkpt lat="50.77586" lon="2.5127">
        <ele>26.368000030518</ele>
        <time>2011-04-17T06:50:44Z</time>
      </trkpt>
      <trkpt lat="50.77642" lon="2.51218">
        <ele>26.964000701904</ele>
        <time>2011-04-17T06:50:54Z</time>
      </trkpt>
      <trkpt lat="50.77688" lon="2.51176">
        <ele>28.231000900269</ele>
        <time>2011-04-17T06:51:03Z</time>
      </trkpt>
      <trkpt lat="50.77703" lon="2.51165">
        <ele>28.353000640869</ele>
        <time>2011-04-17T06:51:06Z</time>
      </trkpt>
      <trkpt lat="50.77724" lon="2.51169">
        <ele>29.014999389648</ele>
        <time>2011-04-17T06:51:10Z</time>
      </trkpt>
      <trkpt lat="50.77765" lon="2.51187">
        <ele>29.493000030518</ele>
        <time>2011-04-17T06:51:17Z</time>
      </trkpt>
      <trkpt lat="50.77811" lon="2.51211">
        <ele>30.177000045776</ele>
        <time>2011-04-17T06:51:25Z</time>
      </trkpt>
      <trkpt lat="50.77829" lon="2.51238">
        <ele>30.677000045776</ele>
        <time>2011-04-17T06:51:29Z</time>
      </trkpt>
      <trkpt lat="50.77837" lon="2.51265">
        <ele>30.784999847412</ele>
        <time>2011-04-17T06:51:32Z</time>
      </trkpt>
      <trkpt lat="50.77847" lon="2.51321">
        <ele>30.804000854492</ele>
        <time>2011-04-17T06:51:38Z</time>
      </trkpt>
      <trkpt lat="50.77865" lon="2.51385">
        <ele>30.871000289917</ele>
        <time>2011-04-17T06:51:45Z</time>
      </trkpt>
      <trkpt lat="50.77881" lon="2.51439">
        <ele>31.72500038147</ele>
        <time>2011-04-17T06:51:51Z</time>
      </trkpt>
      <trkpt lat="50.77899" lon="2.51512">
        <ele>32.173000335693</ele>
        <time>2011-04-17T06:51:59Z</time>
      </trkpt>
      <trkpt lat="50.77927" lon="2.51619">
        <ele>32.59700012207</ele>
        <time>2011-04-17T06:52:11Z</time>
      </trkpt>
      <trkpt lat="50.77955" lon="2.51702">
        <ele>33.337001800537</ele>
        <time>2011-04-17T06:52:21Z</time>
      </trkpt>
      <trkpt lat="50.77978" lon="2.51768">
        <ele>33.861999511719</ele>
        <time>2011-04-17T06:52:29Z</time>
      </trkpt>
      <trkpt lat="50.77996" lon="2.51818">
        <ele>33.744998931885</ele>
        <time>2011-04-17T06:52:35Z</time>
      </trkpt>
      <trkpt lat="50.77992" lon="2.51842">
        <ele>33.215000152588</ele>
        <time>2011-04-17T06:52:38Z</time>
      </trkpt>
      <trkpt lat="50.77987" lon="2.51848">
        <ele>32.931999206543</ele>
        <time>2011-04-17T06:52:39Z</time>
      </trkpt>
      <trkpt lat="50.77934" lon="2.51896">
        <ele>31.406999588013</ele>
        <time>2011-04-17T06:52:48Z</time>
      </trkpt>
      <trkpt lat="50.77891" lon="2.5194">
        <ele>30.613000869751</ele>
        <time>2011-04-17T06:52:55Z</time>
      </trkpt>
      <trkpt lat="50.7784" lon="2.51999">
        <ele>29.073999404907</ele>
        <time>2011-04-17T06:53:03Z</time>
      </trkpt>
      <trkpt lat="50.77785" lon="2.52071">
        <ele>28.145999908447</ele>
        <time>2011-04-17T06:53:12Z</time>
      </trkpt>
      <trkpt lat="50.77747" lon="2.52134">
        <ele>28.016000747681</ele>
        <time>2011-04-17T06:53:19Z</time>
      </trkpt>
      <trkpt lat="50.77702" lon="2.52224">
        <ele>27.516000747681</ele>
        <time>2011-04-17T06:53:28Z</time>
      </trkpt>
      <trkpt lat="50.77657" lon="2.52297">
        <ele>27.299999237061</ele>
        <time>2011-04-17T06:53:36Z</time>
      </trkpt>
      <trkpt lat="50.77611" lon="2.52382">
        <ele>28.252000808716</ele>
        <time>2011-04-17T06:53:45Z</time>
      </trkpt>
      <trkpt lat="50.77595" lon="2.52419">
        <ele>28.101999282837</ele>
        <time>2011-04-17T06:53:49Z</time>
      </trkpt>
      <trkpt lat="50.77592" lon="2.52449">
        <ele>28.10000038147</ele>
        <time>2011-04-17T06:53:52Z</time>
      </trkpt>
      <trkpt lat="50.77594" lon="2.52459">
        <ele>28.215000152588</ele>
        <time>2011-04-17T06:53:53Z</time>
      </trkpt>
      <trkpt lat="50.77617" lon="2.52518">
        <ele>29.110000610352</ele>
        <time>2011-04-17T06:53:59Z</time>
      </trkpt>
      <trkpt lat="50.77649" lon="2.52604">
        <ele>29.788000106811</ele>
        <time>2011-04-17T06:54:08Z</time>
      </trkpt>
      <trkpt lat="50.77676" lon="2.5269">
        <ele>30.509000778198</ele>
        <time>2011-04-17T06:54:17Z</time>
      </trkpt>
      <trkpt lat="50.77683" lon="2.5273">
        <ele>30.884000778198</ele>
        <time>2011-04-17T06:54:21Z</time>
      </trkpt>
      <trkpt lat="50.77681" lon="2.52801">
        <ele>31.718999862671</ele>
        <time>2011-04-17T06:54:28Z</time>
      </trkpt>
      <trkpt lat="50.77665" lon="2.52834">
        <ele>31.747999191284</ele>
        <time>2011-04-17T06:54:32Z</time>
      </trkpt>
      <trkpt lat="50.77659" lon="2.52838">
        <ele>31.687000274658</ele>
        <time>2011-04-17T06:54:33Z</time>
      </trkpt>
      <trkpt lat="50.77639" lon="2.52851">
        <ele>31.832000732422</ele>
        <time>2011-04-17T06:54:36Z</time>
      </trkpt>
      <trkpt lat="50.77618" lon="2.52878">
        <ele>31.940999984741</ele>
        <time>2011-04-17T06:54:40Z</time>
      </trkpt>
      <trkpt lat="50.77593" lon="2.52914">
        <ele>32.055000305176</ele>
        <time>2011-04-17T06:54:45Z</time>
      </trkpt>
      <trkpt lat="50.77593" lon="2.52946">
        <ele>32.612998962402</ele>
        <time>2011-04-17T06:54:48Z</time>
      </trkpt>
      <trkpt lat="50.77597" lon="2.52956">
        <ele>32.557998657227</ele>
        <time>2011-04-17T06:54:49Z</time>
      </trkpt>
      <trkpt lat="50.77627" lon="2.53016">
        <ele>32.529998779297</ele>
        <time>2011-04-17T06:54:56Z</time>
      </trkpt>
      <trkpt lat="50.77657" lon="2.53043">
        <ele>32.752998352051</ele>
        <time>2011-04-17T06:55:01Z</time>
      </trkpt>
      <trkpt lat="50.77694" lon="2.53075">
        <ele>33.721000671387</ele>
        <time>2011-04-17T06:55:07Z</time>
      </trkpt>
      <trkpt lat="50.77723" lon="2.53137">
        <ele>33.728000640869</ele>
        <time>2011-04-17T06:55:14Z</time>
      </trkpt>
      <trkpt lat="50.7775" lon="2.5322">
        <ele>33.009998321533</ele>
        <time>2011-04-17T06:55:22Z</time>
      </trkpt>
      <trkpt lat="50.77763" lon="2.53259">
        <ele>32.513999938965</ele>
        <time>2011-04-17T06:55:26Z</time>
      </trkpt>
      <trkpt lat="50.77781" lon="2.53275">
        <ele>32.17200088501</ele>
        <time>2011-04-17T06:55:30Z</time>
      </trkpt>
      <trkpt lat="50.7779" lon="2.53265">
        <ele>32.041000366211</ele>
        <time>2011-04-17T06:55:32Z</time>
      </trkpt>
      <trkpt lat="50.77825" lon="2.5323">
        <ele>32.417999267578</ele>
        <time>2011-04-17T06:55:38Z</time>
      </trkpt>
      <trkpt lat="50.77861" lon="2.53194">
        <ele>32.132999420166</ele>
        <time>2011-04-17T06:55:44Z</time>
      </trkpt>
      <trkpt lat="50.77923" lon="2.53134">
        <ele>30.423999786377</ele>
        <time>2011-04-17T06:55:54Z</time>
      </trkpt>
      <trkpt lat="50.77973" lon="2.53087">
        <ele>29.333999633789</ele>
        <time>2011-04-17T06:56:02Z</time>
      </trkpt>
      <trkpt lat="50.78039" lon="2.53025">
        <ele>28.590000152588</ele>
        <time>2011-04-17T06:56:13Z</time>
      </trkpt>
      <trkpt lat="50.78057" lon="2.53008">
        <ele>28.84700012207</ele>
        <time>2011-04-17T06:56:17Z</time>
      </trkpt>
      <trkpt lat="50.78062" lon="2.52991">
        <ele>28.646999359131</ele>
        <time>2011-04-17T06:56:20Z</time>
      </trkpt>
      <trkpt lat="50.78057" lon="2.52977">
        <ele>28.443000793457</ele>
        <time>2011-04-17T06:56:22Z</time>
      </trkpt>
      <trkpt lat="50.78028" lon="2.52908">
        <ele>28.79400062561</ele>
        <time>2011-04-17T06:56:31Z</time>
      </trkpt>
      <trkpt lat="50.78025" lon="2.52901">
        <ele>28.715999603271</ele>
        <time>2011-04-17T06:56:32Z</time>
      </trkpt>
      <trkpt lat="50.78027" lon="2.52877">
        <ele>28.464000701904</ele>
        <time>2011-04-17T06:56:35Z</time>
      </trkpt>
      <trkpt lat="50.78032" lon="2.52873">
        <ele>28.587999343872</ele>
        <time>2011-04-17T06:56:36Z</time>
      </trkpt>
      <trkpt lat="50.7807" lon="2.52834">
        <ele>28.860000610352</ele>
        <time>2011-04-17T06:56:44Z</time>
      </trkpt>
      <trkpt lat="50.78075" lon="2.5283">
        <ele>29.024000167847</ele>
        <time>2011-04-17T06:56:45Z</time>
      </trkpt>
      <trkpt lat="50.78103" lon="2.52797">
        <ele>29.600999832153</ele>
        <time>2011-04-17T06:56:51Z</time>
      </trkpt>
      <trkpt lat="50.78154" lon="2.52741">
        <ele>30.579000473023</ele>
        <time>2011-04-17T06:57:02Z</time>
      </trkpt>
      <trkpt lat="50.78196" lon="2.52696">
        <ele>31.992000579834</ele>
        <time>2011-04-17T06:57:12Z</time>
      </trkpt>
      <trkpt lat="50.78225" lon="2.52665">
        <ele>32.76900100708</ele>
        <time>2011-04-17T06:57:20Z</time>
      </trkpt>
      <trkpt lat="50.78249" lon="2.52643">
        <ele>33.881000518799</ele>
        <time>2011-04-17T06:57:26Z</time>
      </trkpt>
      <trkpt lat="50.78301" lon="2.52581">
        <ele>36.033000946045</ele>
        <time>2011-04-17T06:57:39Z</time>
      </trkpt>
      <trkpt lat="50.78339" lon="2.52539">
        <ele>37.479000091553</ele>
        <time>2011-04-17T06:57:48Z</time>
      </trkpt>
      <trkpt lat="50.7835" lon="2.52524">
        <ele>38.118000030518</ele>
        <time>2011-04-17T06:57:51Z</time>
      </trkpt>
      <trkpt lat="50.78368" lon="2.52516">
        <ele>38.916999816895</ele>
        <time>2011-04-17T06:57:55Z</time>
      </trkpt>
      <trkpt lat="50.78376" lon="2.52523">
        <ele>39.22200012207</ele>
        <time>2011-04-17T06:57:57Z</time>
      </trkpt>
      <trkpt lat="50.78386" lon="2.52535">
        <ele>39.567001342773</ele>
        <time>2011-04-17T06:58:00Z</time>
      </trkpt>
      <trkpt lat="50.78399" lon="2.5253">
        <ele>39.250999450684</ele>
        <time>2011-04-17T06:58:04Z</time>
      </trkpt>
      <trkpt lat="50.78401" lon="2.52516">
        <ele>39.363998413086</ele>
        <time>2011-04-17T06:58:06Z</time>
      </trkpt>
      <trkpt lat="50.78408" lon="2.52452">
        <ele>39.868999481201</ele>
        <time>2011-04-17T06:58:14Z</time>
      </trkpt>
      <trkpt lat="50.78416" lon="2.52357">
        <ele>40.40299987793</ele>
        <time>2011-04-17T06:58:25Z</time>
      </trkpt>
      <trkpt lat="50.78429" lon="2.52286">
        <ele>40.332000732422</ele>
        <time>2011-04-17T06:58:33Z</time>
      </trkpt>
      <trkpt lat="50.7845" lon="2.52199">
        <ele>39.93399810791</ele>
        <time>2011-04-17T06:58:42Z</time>
      </trkpt>
      <trkpt lat="50.78474" lon="2.52071">
        <ele>40.368000030518</ele>
        <time>2011-04-17T06:58:55Z</time>
      </trkpt>
      <trkpt lat="50.78481" lon="2.52">
        <ele>40.731998443604</ele>
        <time>2011-04-17T06:59:02Z</time>
      </trkpt>
      <trkpt lat="50.7849" lon="2.51922">
        <ele>41.381000518799</ele>
        <time>2011-04-17T06:59:10Z</time>
      </trkpt>
      <trkpt lat="50.78501" lon="2.51826">
        <ele>42.685001373291</ele>
        <time>2011-04-17T06:59:20Z</time>
      </trkpt>
      <trkpt lat="50.78514" lon="2.51754">
        <ele>43.362998962402</ele>
        <time>2011-04-17T06:59:28Z</time>
      </trkpt>
      <trkpt lat="50.78522" lon="2.51725">
        <ele>43.236999511719</ele>
        <time>2011-04-17T06:59:32Z</time>
      </trkpt>
      <trkpt lat="50.78522" lon="2.51694">
        <ele>42.624000549316</ele>
        <time>2011-04-17T06:59:36Z</time>
      </trkpt>
      <trkpt lat="50.78512" lon="2.51685">
        <ele>42.176998138428</ele>
        <time>2011-04-17T06:59:38Z</time>
      </trkpt>
      <trkpt lat="50.78474" lon="2.51655">
        <ele>40.541999816895</ele>
        <time>2011-04-17T06:59:44Z</time>
      </trkpt>
      <trkpt lat="50.78455" lon="2.5163">
        <ele>39.911998748779</ele>
        <time>2011-04-17T06:59:47Z</time>
      </trkpt>
      <trkpt lat="50.78428" lon="2.51561">
        <ele>38.198001861572</ele>
        <time>2011-04-17T06:59:53Z</time>
      </trkpt>
      <trkpt lat="50.78396" lon="2.51463">
        <ele>35.748001098633</ele>
        <time>2011-04-17T07:00:01Z</time>
      </trkpt>
      <trkpt lat="50.78368" lon="2.51431">
        <ele>34.881999969482</ele>
        <time>2011-04-17T07:00:05Z</time>
      </trkpt>
      <trkpt lat="50.7836" lon="2.51428">
        <ele>34.812999725342</ele>
        <time>2011-04-17T07:00:06Z</time>
      </trkpt>
      <trkpt lat="50.78299" lon="2.51412">
        <ele>33.967998504639</ele>
        <time>2011-04-17T07:00:13Z</time>
      </trkpt>
      <trkpt lat="50.78238" lon="2.51414">
        <ele>33.069000244141</ele>
        <time>2011-04-17T07:00:20Z</time>
      </trkpt>
      <trkpt lat="50.78224" lon="2.51407">
        <ele>32.515998840332</ele>
        <time>2011-04-17T07:00:23Z</time>
      </trkpt>
      <trkpt lat="50.78229" lon="2.51395">
        <ele>32.402000427246</ele>
        <time>2011-04-17T07:00:25Z</time>
      </trkpt>
      <trkpt lat="50.78238" lon="2.51384">
        <ele>32.513000488281</ele>
        <time>2011-04-17T07:00:27Z</time>
      </trkpt>
      <trkpt lat="50.7828" lon="2.5135">
        <ele>33.064998626709</ele>
        <time>2011-04-17T07:00:34Z</time>
      </trkpt>
      <trkpt lat="50.78292" lon="2.51341">
        <ele>33.340999603271</ele>
        <time>2011-04-17T07:00:36Z</time>
      </trkpt>
      <trkpt lat="50.78296" lon="2.51318">
        <ele>33.646999359131</ele>
        <time>2011-04-17T07:00:39Z</time>
      </trkpt>
      <trkpt lat="50.78284" lon="2.51282">
        <ele>33.610000610352</ele>
        <time>2011-04-17T07:00:43Z</time>
      </trkpt>
      <trkpt lat="50.7828" lon="2.51245">
        <ele>33.92200088501</ele>
        <time>2011-04-17T07:00:47Z</time>
      </trkpt>
      <trkpt lat="50.78283" lon="2.51237">
        <ele>34.129001617432</ele>
        <time>2011-04-17T07:00:48Z</time>
      </trkpt>
      <trkpt lat="50.78288" lon="2.51222">
        <ele>34.473999023438</ele>
        <time>2011-04-17T07:00:50Z</time>
      </trkpt>
      <trkpt lat="50.78294" lon="2.51205">
        <ele>34.715000152588</ele>
        <time>2011-04-17T07:00:53Z</time>
      </trkpt>
      <trkpt lat="50.78313" lon="2.51157">
        <ele>36.006999969482</ele>
        <time>2011-04-17T07:01:00Z</time>
      </trkpt>
      <trkpt lat="50.78336" lon="2.51091">
        <ele>37.026000976562</ele>
        <time>2011-04-17T07:01:08Z</time>
      </trkpt>
      <trkpt lat="50.78344" lon="2.51057">
        <ele>37.807998657227</ele>
        <time>2011-04-17T07:01:12Z</time>
      </trkpt>
      <trkpt lat="50.78359" lon="2.51029">
        <ele>38.472999572754</ele>
        <time>2011-04-17T07:01:16Z</time>
      </trkpt>
      <trkpt lat="50.78368" lon="2.51019">
        <ele>38.76900100708</ele>
        <time>2011-04-17T07:01:18Z</time>
      </trkpt>
      <trkpt lat="50.7838" lon="2.51027">
        <ele>39.390998840332</ele>
        <time>2011-04-17T07:01:21Z</time>
      </trkpt>
      <trkpt lat="50.78382" lon="2.51036">
        <ele>39.437000274658</ele>
        <time>2011-04-17T07:01:22Z</time>
      </trkpt>
      <trkpt lat="50.78408" lon="2.51108">
        <ele>39.159000396729</ele>
        <time>2011-04-17T07:01:30Z</time>
      </trkpt>
      <trkpt lat="50.78436" lon="2.51185">
        <ele>38.660999298096</ele>
        <time>2011-04-17T07:01:38Z</time>
      </trkpt>
      <trkpt lat="50.78449" lon="2.51225">
        <ele>37.837001800537</ele>
        <time>2011-04-17T07:01:42Z</time>
      </trkpt>
      <trkpt lat="50.78466" lon="2.51237">
        <ele>37.573001861572</ele>
        <time>2011-04-17T07:01:45Z</time>
      </trkpt>
      <trkpt lat="50.78479" lon="2.51226">
        <ele>37.680999755859</ele>
        <time>2011-04-17T07:01:47Z</time>
      </trkpt>
      <trkpt lat="50.78519" lon="2.51186">
        <ele>38.897998809814</ele>
        <time>2011-04-17T07:01:54Z</time>
      </trkpt>
      <trkpt lat="50.78571" lon="2.51141">
        <ele>40.993000030518</ele>
        <time>2011-04-17T07:02:03Z</time>
      </trkpt>
      <trkpt lat="50.78587" lon="2.51124">
        <ele>41.367000579834</ele>
        <time>2011-04-17T07:02:06Z</time>
      </trkpt>
      <trkpt lat="50.78592" lon="2.51104">
        <ele>41.261001586914</ele>
        <time>2011-04-17T07:02:09Z</time>
      </trkpt>
      <trkpt lat="50.78583" lon="2.51089">
        <ele>41.867000579834</ele>
        <time>2011-04-17T07:02:12Z</time>
      </trkpt>
      <trkpt lat="50.7855" lon="2.51011">
        <ele>43.014999389648</ele>
        <time>2011-04-17T07:02:22Z</time>
      </trkpt>
      <trkpt lat="50.7854" lon="2.50988">
        <ele>43.043998718262</ele>
        <time>2011-04-17T07:02:25Z</time>
      </trkpt>
      <trkpt lat="50.78539" lon="2.50956">
        <ele>43.90299987793</ele>
        <time>2011-04-17T07:02:29Z</time>
      </trkpt>
      <trkpt lat="50.78545" lon="2.50945">
        <ele>44.576000213623</ele>
        <time>2011-04-17T07:02:31Z</time>
      </trkpt>
      <trkpt lat="50.78561" lon="2.50924">
        <ele>45.113998413086</ele>
        <time>2011-04-17T07:02:35Z</time>
      </trkpt>
      <trkpt lat="50.78573" lon="2.50905">
        <ele>44.959999084473</ele>
        <time>2011-04-17T07:02:39Z</time>
      </trkpt>
      <trkpt lat="50.78569" lon="2.5089">
        <ele>45.362998962402</ele>
        <time>2011-04-17T07:02:42Z</time>
      </trkpt>
      <trkpt lat="50.78551" lon="2.50861">
        <ele>45.52799987793</ele>
        <time>2011-04-17T07:02:48Z</time>
      </trkpt>
      <trkpt lat="50.7855" lon="2.50858">
        <ele>45.485000610352</ele>
        <time>2011-04-17T07:02:49Z</time>
      </trkpt>
      <trkpt lat="50.78538" lon="2.50863">
        <ele>45.229999542236</ele>
        <time>2011-04-17T07:02:53Z</time>
      </trkpt>
      <trkpt lat="50.78524" lon="2.50882">
        <ele>44.623001098633</ele>
        <time>2011-04-17T07:02:58Z</time>
      </trkpt>
      <trkpt lat="50.78523" lon="2.50896">
        <ele>44.602001190186</ele>
        <time>2011-04-17T07:03:02Z</time>
      </trkpt>
      <trkpt lat="50.78518" lon="2.5091">
        <ele>44.535999298096</ele>
        <time>2011-04-17T07:03:07Z</time>
      </trkpt>
      <trkpt lat="50.78511" lon="2.50917">
        <ele>44.379001617432</ele>
        <time>2011-04-17T07:03:09Z</time>
      </trkpt>
      <trkpt lat="50.7849" lon="2.50943">
        <ele>43.051998138428</ele>
        <time>2011-04-17T07:03:14Z</time>
      </trkpt>
      <trkpt lat="50.78474" lon="2.50956">
        <ele>42.303001403809</ele>
        <time>2011-04-17T07:03:17Z</time>
      </trkpt>
      <trkpt lat="50.78452" lon="2.50966">
        <ele>41.67200088501</ele>
        <time>2011-04-17T07:03:23Z</time>
      </trkpt>
      <trkpt lat="50.7844" lon="2.50955">
        <ele>41.604000091553</ele>
        <time>2011-04-17T07:03:27Z</time>
      </trkpt>
      <trkpt lat="50.78433" lon="2.50943">
        <ele>41.662998199463</ele>
        <time>2011-04-17T07:03:29Z</time>
      </trkpt>
      <trkpt lat="50.78429" lon="2.50912">
        <ele>41.806999206543</ele>
        <time>2011-04-17T07:03:33Z</time>
      </trkpt>
      <trkpt lat="50.78422" lon="2.50864">
        <ele>42.539001464844</ele>
        <time>2011-04-17T07:03:39Z</time>
      </trkpt>
      <trkpt lat="50.78417" lon="2.50834">
        <ele>42.869998931885</ele>
        <time>2011-04-17T07:03:43Z</time>
      </trkpt>
      <trkpt lat="50.78426" lon="2.5081">
        <ele>43.157001495361</ele>
        <time>2011-04-17T07:03:47Z</time>
      </trkpt>
      <trkpt lat="50.78437" lon="2.50779">
        <ele>44.146999359131</ele>
        <time>2011-04-17T07:03:52Z</time>
      </trkpt>
      <trkpt lat="50.78439" lon="2.50754">
        <ele>44.738998413086</ele>
        <time>2011-04-17T07:03:55Z</time>
      </trkpt>
      <trkpt lat="50.78455" lon="2.5069">
        <ele>44.872001647949</ele>
        <time>2011-04-17T07:04:02Z</time>
      </trkpt>
      <trkpt lat="50.78466" lon="2.50645">
        <ele>44.85599899292</ele>
        <time>2011-04-17T07:04:07Z</time>
      </trkpt>
      <trkpt lat="50.78468" lon="2.50605">
        <ele>44.277000427246</ele>
        <time>2011-04-17T07:04:11Z</time>
      </trkpt>
      <trkpt lat="50.78475" lon="2.5057">
        <ele>44.083000183105</ele>
        <time>2011-04-17T07:04:15Z</time>
      </trkpt>
      <trkpt lat="50.78479" lon="2.50563">
        <ele>44.007999420166</ele>
        <time>2011-04-17T07:04:16Z</time>
      </trkpt>
      <trkpt lat="50.78488" lon="2.50551">
        <ele>43.515998840332</ele>
        <time>2011-04-17T07:04:18Z</time>
      </trkpt>
      <trkpt lat="50.78493" lon="2.5053">
        <ele>42.945999145508</ele>
        <time>2011-04-17T07:04:21Z</time>
      </trkpt>
      <trkpt lat="50.78491" lon="2.50522">
        <ele>42.354999542236</ele>
        <time>2011-04-17T07:04:22Z</time>
      </trkpt>
      <trkpt lat="50.7847" lon="2.50462">
        <ele>40.096000671387</ele>
        <time>2011-04-17T07:04:28Z</time>
      </trkpt>
      <trkpt lat="50.78454" lon="2.50416">
        <ele>38.819000244141</ele>
        <time>2011-04-17T07:04:32Z</time>
      </trkpt>
      <trkpt lat="50.78456" lon="2.50382">
        <ele>37.638999938965</ele>
        <time>2011-04-17T07:04:35Z</time>
      </trkpt>
      <trkpt lat="50.78461" lon="2.50374">
        <ele>37.265998840332</ele>
        <time>2011-04-17T07:04:36Z</time>
      </trkpt>
      <trkpt lat="50.78484" lon="2.50352">
        <ele>35.432998657227</ele>
        <time>2011-04-17T07:04:41Z</time>
      </trkpt>
      <trkpt lat="50.78486" lon="2.5035">
        <ele>35.159000396729</ele>
        <time>2011-04-17T07:04:42Z</time>
      </trkpt>
      <trkpt lat="50.78484" lon="2.5034">
        <ele>34.583000183105</ele>
        <time>2011-04-17T07:04:47Z</time>
      </trkpt>
      <trkpt lat="50.78468" lon="2.50304">
        <ele>33.587001800537</ele>
        <time>2011-04-17T07:04:52Z</time>
      </trkpt>
      <trkpt lat="50.78437" lon="2.50256">
        <ele>32.490001678467</ele>
        <time>2011-04-17T07:04:58Z</time>
      </trkpt>
      <trkpt lat="50.78399" lon="2.50196">
        <ele>30.726999282837</ele>
        <time>2011-04-17T07:05:05Z</time>
      </trkpt>
      <trkpt lat="50.78352" lon="2.50119">
        <ele>29.002000808716</ele>
        <time>2011-04-17T07:05:13Z</time>
      </trkpt>
      <trkpt lat="50.78336" lon="2.50094">
        <ele>28.319000244141</ele>
        <time>2011-04-17T07:05:16Z</time>
      </trkpt>
      <trkpt lat="50.7833" lon="2.5007">
        <ele>27.636999130249</ele>
        <time>2011-04-17T07:05:19Z</time>
      </trkpt>
      <trkpt lat="50.7834" lon="2.50044">
        <ele>27.219999313354</ele>
        <time>2011-04-17T07:05:22Z</time>
      </trkpt>
      <trkpt lat="50.7836" lon="2.50022">
        <ele>26.70599937439</ele>
        <time>2011-04-17T07:05:26Z</time>
      </trkpt>
      <trkpt lat="50.78409" lon="2.49998">
        <ele>26.170999526977</ele>
        <time>2011-04-17T07:05:35Z</time>
      </trkpt>
      <trkpt lat="50.7846" lon="2.49972">
        <ele>26.535999298096</ele>
        <time>2011-04-17T07:05:44Z</time>
      </trkpt>
      <trkpt lat="50.78508" lon="2.49945">
        <ele>27.145999908447</ele>
        <time>2011-04-17T07:05:53Z</time>
      </trkpt>
      <trkpt lat="50.78543" lon="2.49921">
        <ele>28.138999938965</ele>
        <time>2011-04-17T07:06:00Z</time>
      </trkpt>
      <trkpt lat="50.78588" lon="2.49895">
        <ele>30.469999313354</ele>
        <time>2011-04-17T07:06:09Z</time>
      </trkpt>
      <trkpt lat="50.78634" lon="2.49866">
        <ele>31.173999786377</ele>
        <time>2011-04-17T07:06:18Z</time>
      </trkpt>
      <trkpt lat="50.78673" lon="2.49842">
        <ele>33.256999969482</ele>
        <time>2011-04-17T07:06:26Z</time>
      </trkpt>
      <trkpt lat="50.78705" lon="2.49824">
        <ele>35.080001831055</ele>
        <time>2011-04-17T07:06:33Z</time>
      </trkpt>
      <trkpt lat="50.78744" lon="2.49801">
        <ele>37.036998748779</ele>
        <time>2011-04-17T07:06:42Z</time>
      </trkpt>
      <trkpt lat="50.78778" lon="2.4978">
        <ele>38.096000671387</ele>
        <time>2011-04-17T07:06:50Z</time>
      </trkpt>
      <trkpt lat="50.78815" lon="2.49759">
        <ele>39.175998687744</ele>
        <time>2011-04-17T07:06:59Z</time>
      </trkpt>
      <trkpt lat="50.78851" lon="2.49738">
        <ele>40.09400177002</ele>
        <time>2011-04-17T07:07:08Z</time>
      </trkpt>
      <trkpt lat="50.78894" lon="2.49713">
        <ele>41.964000701904</ele>
        <time>2011-04-17T07:07:19Z</time>
      </trkpt>
      <trkpt lat="50.78936" lon="2.49687">
        <ele>43.022998809814</ele>
        <time>2011-04-17T07:07:29Z</time>
      </trkpt>
      <trkpt lat="50.78984" lon="2.49658">
        <ele>43.398998260498</ele>
        <time>2011-04-17T07:07:39Z</time>
      </trkpt>
      <trkpt lat="50.78989" lon="2.49642">
        <ele>42.693000793457</ele>
        <time>2011-04-17T07:07:42Z</time>
      </trkpt>
      <trkpt lat="50.78987" lon="2.49637">
        <ele>42.631000518799</ele>
        <time>2011-04-17T07:07:43Z</time>
      </trkpt>
      <trkpt lat="50.78968" lon="2.496">
        <ele>43.567001342773</ele>
        <time>2011-04-17T07:07:49Z</time>
      </trkpt>
      <trkpt lat="50.78956" lon="2.49582">
        <ele>44.000999450684</ele>
        <time>2011-04-17T07:07:52Z</time>
      </trkpt>
      <trkpt lat="50.7894" lon="2.49534">
        <ele>43.823001861572</ele>
        <time>2011-04-17T07:07:58Z</time>
      </trkpt>
      <trkpt lat="50.7893" lon="2.49497">
        <ele>43.534999847412</ele>
        <time>2011-04-17T07:08:02Z</time>
      </trkpt>
      <trkpt lat="50.78933" lon="2.49473">
        <ele>43.25</ele>
        <time>2011-04-17T07:08:05Z</time>
      </trkpt>
      <trkpt lat="50.78937" lon="2.49467">
        <ele>43.186000823975</ele>
        <time>2011-04-17T07:08:06Z</time>
      </trkpt>
      <trkpt lat="50.78963" lon="2.49443">
        <ele>43.384998321533</ele>
        <time>2011-04-17T07:08:11Z</time>
      </trkpt>
      <trkpt lat="50.78987" lon="2.4943">
        <ele>44.109001159668</ele>
        <time>2011-04-17T07:08:15Z</time>
      </trkpt>
      <trkpt lat="50.79042" lon="2.49413">
        <ele>45.411998748779</ele>
        <time>2011-04-17T07:08:25Z</time>
      </trkpt>
      <trkpt lat="50.79073" lon="2.49409">
        <ele>46.40299987793</ele>
        <time>2011-04-17T07:08:31Z</time>
      </trkpt>
      <trkpt lat="50.79105" lon="2.49406">
        <ele>47.798000335693</ele>
        <time>2011-04-17T07:08:38Z</time>
      </trkpt>
      <trkpt lat="50.79144" lon="2.49404">
        <ele>49.800998687744</ele>
        <time>2011-04-17T07:08:47Z</time>
      </trkpt>
      <trkpt lat="50.79163" lon="2.49397">
        <ele>50.685001373291</ele>
        <time>2011-04-17T07:08:52Z</time>
      </trkpt>
      <trkpt lat="50.79172" lon="2.49375">
        <ele>51.291000366211</ele>
        <time>2011-04-17T07:08:56Z</time>
      </trkpt>
      <trkpt lat="50.79176" lon="2.49361">
        <ele>51.287998199463</ele>
        <time>2011-04-17T07:08:58Z</time>
      </trkpt>
      <trkpt lat="50.7919" lon="2.49339">
        <ele>51.567001342773</ele>
        <time>2011-04-17T07:09:02Z</time>
      </trkpt>
      <trkpt lat="50.79197" lon="2.49329">
        <ele>51.88399887085</ele>
        <time>2011-04-17T07:09:04Z</time>
      </trkpt>
      <trkpt lat="50.79221" lon="2.49304">
        <ele>53.847999572754</ele>
        <time>2011-04-17T07:09:11Z</time>
      </trkpt>
      <trkpt lat="50.79232" lon="2.49287">
        <ele>54.112998962402</ele>
        <time>2011-04-17T07:09:15Z</time>
      </trkpt>
      <trkpt lat="50.79254" lon="2.49265">
        <ele>55.869998931885</ele>
        <time>2011-04-17T07:09:22Z</time>
      </trkpt>
      <trkpt lat="50.7928" lon="2.4925">
        <ele>57.666999816895</ele>
        <time>2011-04-17T07:09:30Z</time>
      </trkpt>
      <trkpt lat="50.79297" lon="2.49243">
        <ele>59.932998657227</ele>
        <time>2011-04-17T07:09:36Z</time>
      </trkpt>
      <trkpt lat="50.79312" lon="2.49234">
        <ele>62.759998321533</ele>
        <time>2011-04-17T07:09:44Z</time>
      </trkpt>
      <trkpt lat="50.79318" lon="2.49237">
        <ele>64.515998840332</ele>
        <time>2011-04-17T07:09:48Z</time>
      </trkpt>
      <trkpt lat="50.79326" lon="2.49246">
        <ele>66.601997375488</ele>
        <time>2011-04-17T07:09:53Z</time>
      </trkpt>
      <trkpt lat="50.79341" lon="2.49263">
        <ele>69.13500213623</ele>
        <time>2011-04-17T07:10:02Z</time>
      </trkpt>
      <trkpt lat="50.79343" lon="2.49265">
        <ele>69.486000061035</ele>
        <time>2011-04-17T07:10:04Z</time>
      </trkpt>
      <trkpt lat="50.79343" lon="2.49285">
        <ele>69.728996276855</ele>
        <time>2011-04-17T07:10:09Z</time>
      </trkpt>
      <trkpt lat="50.79343" lon="2.49291">
        <ele>69.716003417969</ele>
        <time>2011-04-17T07:10:10Z</time>
      </trkpt>
      <trkpt lat="50.79352" lon="2.49301">
        <ele>70.172996520996</ele>
        <time>2011-04-17T07:10:14Z</time>
      </trkpt>
      <trkpt lat="50.79385" lon="2.49277">
        <ele>72.761001586914</ele>
        <time>2011-04-17T07:10:25Z</time>
      </trkpt>
      <trkpt lat="50.79405" lon="2.49249">
        <ele>74.438003540039</ele>
        <time>2011-04-17T07:10:33Z</time>
      </trkpt>
      <trkpt lat="50.79424" lon="2.49219">
        <ele>75.666000366211</ele>
        <time>2011-04-17T07:10:41Z</time>
      </trkpt>
      <trkpt lat="50.79446" lon="2.49193">
        <ele>77.079002380371</ele>
        <time>2011-04-17T07:10:49Z</time>
      </trkpt>
      <trkpt lat="50.79464" lon="2.49167">
        <ele>78.438003540039</ele>
        <time>2011-04-17T07:10:57Z</time>
      </trkpt>
      <trkpt lat="50.79467" lon="2.49153">
        <ele>78.768997192383</ele>
        <time>2011-04-17T07:11:00Z</time>
      </trkpt>
      <trkpt lat="50.7946" lon="2.49135">
        <ele>77.91300201416</ele>
        <time>2011-04-17T07:11:04Z</time>
      </trkpt>
      <trkpt lat="50.7945" lon="2.49112">
        <ele>76.862998962402</ele>
        <time>2011-04-17T07:11:08Z</time>
      </trkpt>
      <trkpt lat="50.79446" lon="2.49094">
        <ele>76.259002685547</ele>
        <time>2011-04-17T07:11:12Z</time>
      </trkpt>
      <trkpt lat="50.7945" lon="2.49097">
        <ele>76.46900177002</ele>
        <time>2011-04-17T07:11:15Z</time>
      </trkpt>
      <trkpt lat="50.79464" lon="2.4912">
        <ele>77.464996337891</ele>
        <time>2011-04-17T07:11:21Z</time>
      </trkpt>
      <trkpt lat="50.7948" lon="2.49118">
        <ele>78.369003295898</ele>
        <time>2011-04-17T07:11:26Z</time>
      </trkpt>
      <trkpt lat="50.79492" lon="2.49112">
        <ele>78.845001220703</ele>
        <time>2011-04-17T07:11:30Z</time>
      </trkpt>
      <trkpt lat="50.79494" lon="2.4911">
        <ele>79.193000793457</ele>
        <time>2011-04-17T07:11:31Z</time>
      </trkpt>
      <trkpt lat="50.79511" lon="2.49101">
        <ele>81.415000915527</ele>
        <time>2011-04-17T07:11:38Z</time>
      </trkpt>
      <trkpt lat="50.79531" lon="2.49093">
        <ele>84.013000488281</ele>
        <time>2011-04-17T07:11:47Z</time>
      </trkpt>
      <trkpt lat="50.79538" lon="2.49082">
        <ele>84.904998779297</ele>
        <time>2011-04-17T07:11:51Z</time>
      </trkpt>
      <trkpt lat="50.79539" lon="2.49075">
        <ele>85.271003723145</ele>
        <time>2011-04-17T07:11:53Z</time>
      </trkpt>
      <trkpt lat="50.79535" lon="2.49055">
        <ele>84.647003173828</ele>
        <time>2011-04-17T07:11:57Z</time>
      </trkpt>
      <trkpt lat="50.79528" lon="2.49007">
        <ele>83.436996459961</ele>
        <time>2011-04-17T07:12:04Z</time>
      </trkpt>
      <trkpt lat="50.79526" lon="2.48982">
        <ele>82.122001647949</ele>
        <time>2011-04-17T07:12:09Z</time>
      </trkpt>
      <trkpt lat="50.79524" lon="2.48977">
        <ele>81.574996948242</ele>
        <time>2011-04-17T07:12:12Z</time>
      </trkpt>
      <trkpt lat="50.79511" lon="2.4896">
        <ele>79.657997131348</ele>
        <time>2011-04-17T07:12:23Z</time>
      </trkpt>
      <trkpt lat="50.79507" lon="2.48966">
        <ele>78.476997375488</ele>
        <time>2011-04-17T07:12:25Z</time>
      </trkpt>
      <trkpt lat="50.79513" lon="2.48969">
        <ele>78.353996276855</ele>
        <time>2011-04-17T07:12:28Z</time>
      </trkpt>
      <trkpt lat="50.79514" lon="2.48978">
        <ele>78.460998535156</ele>
        <time>2011-04-17T07:12:30Z</time>
      </trkpt>
      <trkpt lat="50.79517" lon="2.49005">
        <ele>78.598999023438</ele>
        <time>2011-04-17T07:12:35Z</time>
      </trkpt>
      <trkpt lat="50.79514" lon="2.49009">
        <ele>78.511001586914</ele>
        <time>2011-04-17T07:12:36Z</time>
      </trkpt>
      <trkpt lat="50.79507" lon="2.49015">
        <ele>78.412002563477</ele>
        <time>2011-04-17T07:12:38Z</time>
      </trkpt>
      <trkpt lat="50.79498" lon="2.49009">
        <ele>78.261001586914</ele>
        <time>2011-04-17T07:12:41Z</time>
      </trkpt>
      <trkpt lat="50.79482" lon="2.48968">
        <ele>78.432998657227</ele>
        <time>2011-04-17T07:12:47Z</time>
      </trkpt>
      <trkpt lat="50.79483" lon="2.48942">
        <ele>78.261001586914</ele>
        <time>2011-04-17T07:12:51Z</time>
      </trkpt>
      <trkpt lat="50.79491" lon="2.48936">
        <ele>78.338996887207</ele>
        <time>2011-04-17T07:12:53Z</time>
      </trkpt>
      <trkpt lat="50.79512" lon="2.48926">
        <ele>77.935997009277</ele>
        <time>2011-04-17T07:12:59Z</time>
      </trkpt>
      <trkpt lat="50.79514" lon="2.48929">
        <ele>77.496002197266</ele>
        <time>2011-04-17T07:13:02Z</time>
      </trkpt>
      <trkpt lat="50.79512" lon="2.4891">
        <ele>77.009002685547</ele>
        <time>2011-04-17T07:13:15Z</time>
      </trkpt>
      <trkpt lat="50.7952" lon="2.48903">
        <ele>76.434997558594</ele>
        <time>2011-04-17T07:13:19Z</time>
      </trkpt>
      <trkpt lat="50.79534" lon="2.48912">
        <ele>78.148002624512</ele>
        <time>2011-04-17T07:13:23Z</time>
      </trkpt>
      <trkpt lat="50.79558" lon="2.48927">
        <ele>82.071998596191</ele>
        <time>2011-04-17T07:13:29Z</time>
      </trkpt>
      <trkpt lat="50.79571" lon="2.48934">
        <ele>85.383003234863</ele>
        <time>2011-04-17T07:13:33Z</time>
      </trkpt>
      <trkpt lat="50.79583" lon="2.48928">
        <ele>87.474998474121</ele>
        <time>2011-04-17T07:13:37Z</time>
      </trkpt>
      <trkpt lat="50.79598" lon="2.48922">
        <ele>89.445999145508</ele>
        <time>2011-04-17T07:13:44Z</time>
      </trkpt>
      <trkpt lat="50.79611" lon="2.4892">
        <ele>91.241996765137</ele>
        <time>2011-04-17T07:13:50Z</time>
      </trkpt>
      <trkpt lat="50.79622" lon="2.48919">
        <ele>93.276000976562</ele>
        <time>2011-04-17T07:13:56Z</time>
      </trkpt>
      <trkpt lat="50.79632" lon="2.4892">
        <ele>95.301002502441</ele>
        <time>2011-04-17T07:14:03Z</time>
      </trkpt>
      <trkpt lat="50.79634" lon="2.48919">
        <ele>95.847999572754</ele>
        <time>2011-04-17T07:14:05Z</time>
      </trkpt>
      <trkpt lat="50.79646" lon="2.4892">
        <ele>98.228996276855</ele>
        <time>2011-04-17T07:14:13Z</time>
      </trkpt>
      <trkpt lat="50.7966" lon="2.48924">
        <ele>101.25299835205</ele>
        <time>2011-04-17T07:14:22Z</time>
      </trkpt>
      <trkpt lat="50.79672" lon="2.48926">
        <ele>103.577003479</ele>
        <time>2011-04-17T07:14:29Z</time>
      </trkpt>
      <trkpt lat="50.79678" lon="2.48928">
        <ele>104.97200012207</ele>
        <time>2011-04-17T07:14:33Z</time>
      </trkpt>
      <trkpt lat="50.79683" lon="2.48923">
        <ele>106.03600311279</ele>
        <time>2011-04-17T07:14:37Z</time>
      </trkpt>
      <trkpt lat="50.79693" lon="2.489">
        <ele>108.37599945068</ele>
        <time>2011-04-17T07:14:48Z</time>
      </trkpt>
      <trkpt lat="50.79703" lon="2.48892">
        <ele>110.4049987793</ele>
        <time>2011-04-17T07:14:55Z</time>
      </trkpt>
      <trkpt lat="50.7972" lon="2.48887">
        <ele>113.32800292969</ele>
        <time>2011-04-17T07:15:05Z</time>
      </trkpt>
      <trkpt lat="50.79733" lon="2.48885">
        <ele>115.18499755859</ele>
        <time>2011-04-17T07:15:12Z</time>
      </trkpt>
      <trkpt lat="50.79745" lon="2.48884">
        <ele>116.43099975586</ele>
        <time>2011-04-17T07:15:18Z</time>
      </trkpt>
      <trkpt lat="50.7975" lon="2.48882">
        <ele>117.17500305176</ele>
        <time>2011-04-17T07:15:21Z</time>
      </trkpt>
      <trkpt lat="50.7976" lon="2.48877">
        <ele>119.202003479</ele>
        <time>2011-04-17T07:15:27Z</time>
      </trkpt>
      <trkpt lat="50.79769" lon="2.48875">
        <ele>121.46399688721</ele>
        <time>2011-04-17T07:15:33Z</time>
      </trkpt>
      <trkpt lat="50.79777" lon="2.48892">
        <ele>123.69000244141</ele>
        <time>2011-04-17T07:15:41Z</time>
      </trkpt>
      <trkpt lat="50.79781" lon="2.48913">
        <ele>125.58499908447</ele>
        <time>2011-04-17T07:15:49Z</time>
      </trkpt>
      <trkpt lat="50.79788" lon="2.48937">
        <ele>127.71099853516</ele>
        <time>2011-04-17T07:15:58Z</time>
      </trkpt>
      <trkpt lat="50.79794" lon="2.48959">
        <ele>129.29200744629</ele>
        <time>2011-04-17T07:16:06Z</time>
      </trkpt>
      <trkpt lat="50.798" lon="2.48967">
        <ele>130.70399475098</ele>
        <time>2011-04-17T07:16:09Z</time>
      </trkpt>
      <trkpt lat="50.79807" lon="2.48962">
        <ele>130.58999633789</ele>
        <time>2011-04-17T07:16:13Z</time>
      </trkpt>
      <trkpt lat="50.79819" lon="2.48938">
        <ele>131.21299743652</ele>
        <time>2011-04-17T07:16:19Z</time>
      </trkpt>
      <trkpt lat="50.79828" lon="2.4892">
        <ele>131.43800354004</ele>
        <time>2011-04-17T07:16:24Z</time>
      </trkpt>
      <trkpt lat="50.79836" lon="2.48898">
        <ele>131.87800598144</ele>
        <time>2011-04-17T07:16:30Z</time>
      </trkpt>
      <trkpt lat="50.79851" lon="2.48866">
        <ele>132.5059967041</ele>
        <time>2011-04-17T07:16:37Z</time>
      </trkpt>
      <trkpt lat="50.7986" lon="2.48848">
        <ele>132.89599609375</ele>
        <time>2011-04-17T07:16:41Z</time>
      </trkpt>
      <trkpt lat="50.79868" lon="2.48851">
        <ele>133.67500305176</ele>
        <time>2011-04-17T07:16:45Z</time>
      </trkpt>
      <trkpt lat="50.79877" lon="2.4886">
        <ele>135.42399597168</ele>
        <time>2011-04-17T07:16:49Z</time>
      </trkpt>
      <trkpt lat="50.7989" lon="2.48846">
        <ele>137.70599365234</ele>
        <time>2011-04-17T07:16:55Z</time>
      </trkpt>
      <trkpt lat="50.79911" lon="2.48816">
        <ele>139.71099853516</ele>
        <time>2011-04-17T07:17:04Z</time>
      </trkpt>
      <trkpt lat="50.79932" lon="2.48795">
        <ele>141.17199707031</ele>
        <time>2011-04-17T07:17:12Z</time>
      </trkpt>
      <trkpt lat="50.79936" lon="2.48795">
        <ele>140.94900512695</ele>
        <time>2011-04-17T07:17:13Z</time>
      </trkpt>
      <trkpt lat="50.79952" lon="2.48778">
        <ele>139.20199584961</ele>
        <time>2011-04-17T07:17:17Z</time>
      </trkpt>
      <trkpt lat="50.79961" lon="2.48768">
        <ele>137.94200134277</ele>
        <time>2011-04-17T07:17:19Z</time>
      </trkpt>
      <trkpt lat="50.7997" lon="2.48777">
        <ele>137.27099609375</ele>
        <time>2011-04-17T07:17:21Z</time>
      </trkpt>
      <trkpt lat="50.79974" lon="2.48782">
        <ele>137.2140045166</ele>
        <time>2011-04-17T07:17:22Z</time>
      </trkpt>
      <trkpt lat="50.79988" lon="2.48801">
        <ele>136.89500427246</ele>
        <time>2011-04-17T07:17:25Z</time>
      </trkpt>
      <trkpt lat="50.80004" lon="2.4882">
        <ele>135.66200256348</ele>
        <time>2011-04-17T07:17:28Z</time>
      </trkpt>
      <trkpt lat="50.80024" lon="2.4883">
        <ele>134.24800109863</ele>
        <time>2011-04-17T07:17:31Z</time>
      </trkpt>
      <trkpt lat="50.8004" lon="2.4883">
        <ele>133.88400268555</ele>
        <time>2011-04-17T07:17:33Z</time>
      </trkpt>
      <trkpt lat="50.80116" lon="2.48823">
        <ele>130.9640045166</ele>
        <time>2011-04-17T07:17:42Z</time>
      </trkpt>
      <trkpt lat="50.80178" lon="2.4881">
        <ele>128.2440032959</ele>
        <time>2011-04-17T07:17:49Z</time>
      </trkpt>
      <trkpt lat="50.80186" lon="2.48808">
        <ele>127.47200012207</ele>
        <time>2011-04-17T07:17:50Z</time>
      </trkpt>
      <trkpt lat="50.80204" lon="2.48808">
        <ele>126.55899810791</ele>
        <time>2011-04-17T07:17:52Z</time>
      </trkpt>
      <trkpt lat="50.80227" lon="2.48811">
        <ele>124.81199645996</ele>
        <time>2011-04-17T07:17:55Z</time>
      </trkpt>
      <trkpt lat="50.8024" lon="2.488">
        <ele>123.70099639893</ele>
        <time>2011-04-17T07:17:58Z</time>
      </trkpt>
      <trkpt lat="50.80238" lon="2.48782">
        <ele>123.22599792481</ele>
        <time>2011-04-17T07:18:01Z</time>
      </trkpt>
      <trkpt lat="50.80233" lon="2.48762">
        <ele>124.50099945068</ele>
        <time>2011-04-17T07:18:05Z</time>
      </trkpt>
      <trkpt lat="50.80222" lon="2.48763">
        <ele>125.40599822998</ele>
        <time>2011-04-17T07:18:10Z</time>
      </trkpt>
      <trkpt lat="50.80211" lon="2.48759">
        <ele>126.8330001831</ele>
        <time>2011-04-17T07:18:14Z</time>
      </trkpt>
      <trkpt lat="50.802" lon="2.48737">
        <ele>129.82899475098</ele>
        <time>2011-04-17T07:18:21Z</time>
      </trkpt>
      <trkpt lat="50.80193" lon="2.48712">
        <ele>132.07499694824</ele>
        <time>2011-04-17T07:18:28Z</time>
      </trkpt>
      <trkpt lat="50.80185" lon="2.48692">
        <ele>134.4049987793</ele>
        <time>2011-04-17T07:18:34Z</time>
      </trkpt>
      <trkpt lat="50.80171" lon="2.48665">
        <ele>137.49600219727</ele>
        <time>2011-04-17T07:18:43Z</time>
      </trkpt>
      <trkpt lat="50.80157" lon="2.48645">
        <ele>139.79699707031</ele>
        <time>2011-04-17T07:18:50Z</time>
      </trkpt>
      <trkpt lat="50.80152" lon="2.48635">
        <ele>141.03900146484</ele>
        <time>2011-04-17T07:18:53Z</time>
      </trkpt>
      <trkpt lat="50.80142" lon="2.48624">
        <ele>143.35899353027</ele>
        <time>2011-04-17T07:18:58Z</time>
      </trkpt>
      <trkpt lat="50.80133" lon="2.48613">
        <ele>145.19700622559</ele>
        <time>2011-04-17T07:19:03Z</time>
      </trkpt>
      <trkpt lat="50.8012" lon="2.48601">
        <ele>147.01600646973</ele>
        <time>2011-04-17T07:19:12Z</time>
      </trkpt>
      <trkpt lat="50.80119" lon="2.486">
        <ele>147.29299926758</ele>
        <time>2011-04-17T07:19:13Z</time>
      </trkpt>
      <trkpt lat="50.80123" lon="2.48591">
        <ele>148.17700195312</ele>
        <time>2011-04-17T07:19:19Z</time>
      </trkpt>
      <trkpt lat="50.80127" lon="2.4859">
        <ele>149.30999755859</ele>
        <time>2011-04-17T07:19:22Z</time>
      </trkpt>
      <trkpt lat="50.80138" lon="2.48593">
        <ele>151.86500549316</ele>
        <time>2011-04-17T07:19:31Z</time>
      </trkpt>
      <trkpt lat="50.80141" lon="2.48583">
        <ele>153.67199707031</ele>
        <time>2011-04-17T07:19:37Z</time>
      </trkpt>
      <trkpt lat="50.80141" lon="2.48582">
        <ele>153.99299621582</ele>
        <time>2011-04-17T07:19:38Z</time>
      </trkpt>
      <trkpt lat="50.80135" lon="2.48574">
        <ele>155.06100463867</ele>
        <time>2011-04-17T07:19:44Z</time>
      </trkpt>
      <trkpt lat="50.80124" lon="2.48567">
        <ele>156.11500549316</ele>
        <time>2011-04-17T07:19:51Z</time>
      </trkpt>
      <trkpt lat="50.80114" lon="2.48558">
        <ele>156.94000244141</ele>
        <time>2011-04-17T07:19:57Z</time>
      </trkpt>
      <trkpt lat="50.80112" lon="2.48541">
        <ele>157.19000244141</ele>
        <time>2011-04-17T07:20:02Z</time>
      </trkpt>
      <trkpt lat="50.80116" lon="2.48517">
        <ele>157.43699645996</ele>
        <time>2011-04-17T07:20:09Z</time>
      </trkpt>
      <trkpt lat="50.80124" lon="2.48491">
        <ele>157.21699523926</ele>
        <time>2011-04-17T07:20:17Z</time>
      </trkpt>
      <trkpt lat="50.80133" lon="2.48458">
        <ele>156.84100341797</ele>
        <time>2011-04-17T07:20:27Z</time>
      </trkpt>
      <trkpt lat="50.80134" lon="2.48456">
        <ele>156.76800537109</ele>
        <time>2011-04-17T07:20:30Z</time>
      </trkpt>
      <trkpt lat="50.80136" lon="2.48453">
        <ele>156.48899841309</ele>
        <time>2011-04-17T07:20:34Z</time>
      </trkpt>
      <trkpt lat="50.80136" lon="2.48452">
        <ele>156.57099914551</ele>
        <time>2011-04-17T07:20:36Z</time>
      </trkpt>
      <trkpt lat="50.80134" lon="2.48438">
        <ele>155.74899291992</ele>
        <time>2011-04-17T07:24:01Z</time>
      </trkpt>
      <trkpt lat="50.80134" lon="2.48437">
        <ele>155.68200683594</ele>
        <time>2011-04-17T07:24:02Z</time>
      </trkpt>
      <trkpt lat="50.80124" lon="2.48441">
        <ele>154.92300415039</ele>
        <time>2011-04-17T07:24:08Z</time>
      </trkpt>
      <trkpt lat="50.80109" lon="2.48442">
        <ele>153.32099914551</ele>
        <time>2011-04-17T07:24:13Z</time>
      </trkpt>
      <trkpt lat="50.80098" lon="2.48437">
        <ele>151.65899658203</ele>
        <time>2011-04-17T07:24:16Z</time>
      </trkpt>
      <trkpt lat="50.80083" lon="2.48456">
        <ele>149.01800537109</ele>
        <time>2011-04-17T07:24:20Z</time>
      </trkpt>
      <trkpt lat="50.80076" lon="2.48476">
        <ele>147.93499755859</ele>
        <time>2011-04-17T07:24:22Z</time>
      </trkpt>
      <trkpt lat="50.80048" lon="2.48525">
        <ele>143.91299438477</ele>
        <time>2011-04-17T07:24:27Z</time>
      </trkpt>
      <trkpt lat="50.80042" lon="2.48548">
        <ele>142.63200378418</ele>
        <time>2011-04-17T07:24:29Z</time>
      </trkpt>
      <trkpt lat="50.80029" lon="2.48609">
        <ele>141.94500732422</ele>
        <time>2011-04-17T07:24:35Z</time>
      </trkpt>
      <trkpt lat="50.80011" lon="2.487">
        <ele>141.39799499512</ele>
        <time>2011-04-17T07:24:45Z</time>
      </trkpt>
      <trkpt lat="50.80003" lon="2.48738">
        <ele>141.33200073242</ele>
        <time>2011-04-17T07:24:49Z</time>
      </trkpt>
      <trkpt lat="50.79977" lon="2.48793">
        <ele>140.91999816894</ele>
        <time>2011-04-17T07:24:56Z</time>
      </trkpt>
      <trkpt lat="50.79972" lon="2.48799">
        <ele>140.97500610352</ele>
        <time>2011-04-17T07:24:57Z</time>
      </trkpt>
      <trkpt lat="50.79961" lon="2.48807">
        <ele>140.91400146484</ele>
        <time>2011-04-17T07:24:59Z</time>
      </trkpt>
      <trkpt lat="50.79947" lon="2.48839">
        <ele>141.07600402832</ele>
        <time>2011-04-17T07:25:03Z</time>
      </trkpt>
      <trkpt lat="50.79928" lon="2.48896">
        <ele>141.96699523926</ele>
        <time>2011-04-17T07:25:11Z</time>
      </trkpt>
      <trkpt lat="50.79931" lon="2.48906">
        <ele>141.17999267578</ele>
        <time>2011-04-17T07:25:16Z</time>
      </trkpt>
      <trkpt lat="50.79932" lon="2.48907">
        <ele>140.66000366211</ele>
        <time>2011-04-17T07:25:18Z</time>
      </trkpt>
      <trkpt lat="50.79935" lon="2.4891">
        <ele>140.27299499512</ele>
        <time>2011-04-17T07:25:22Z</time>
      </trkpt>
      <trkpt lat="50.79937" lon="2.48911">
        <ele>139.34100341797</ele>
        <time>2011-04-17T07:25:25Z</time>
      </trkpt>
      <trkpt lat="50.79947" lon="2.48922">
        <ele>136.31799316406</ele>
        <time>2011-04-17T07:25:35Z</time>
      </trkpt>
      <trkpt lat="50.7995" lon="2.48928">
        <ele>134.10200500488</ele>
        <time>2011-04-17T07:25:42Z</time>
      </trkpt>
      <trkpt lat="50.79951" lon="2.4893">
        <ele>133.3450012207</ele>
        <time>2011-04-17T07:25:44Z</time>
      </trkpt>
      <trkpt lat="50.79953" lon="2.48943">
        <ele>131.50900268555</ele>
        <time>2011-04-17T07:25:52Z</time>
      </trkpt>
      <trkpt lat="50.79953" lon="2.48954">
        <ele>130.09199523926</ele>
        <time>2011-04-17T07:25:57Z</time>
      </trkpt>
      <trkpt lat="50.79953" lon="2.48961">
        <ele>128.89399719238</ele>
        <time>2011-04-17T07:26:02Z</time>
      </trkpt>
      <trkpt lat="50.79953" lon="2.48975">
        <ele>128.17300415039</ele>
        <time>2011-04-17T07:26:06Z</time>
      </trkpt>
      <trkpt lat="50.79951" lon="2.49009">
        <ele>126.68599700928</ele>
        <time>2011-04-17T07:26:10Z</time>
      </trkpt>
      <trkpt lat="50.7995" lon="2.49019">
        <ele>126.19599914551</ele>
        <time>2011-04-17T07:26:11Z</time>
      </trkpt>
      <trkpt lat="50.79935" lon="2.4906">
        <ele>125.09400177002</ele>
        <time>2011-04-17T07:26:16Z</time>
      </trkpt>
      <trkpt lat="50.79923" lon="2.49088">
        <ele>124.68900299072</ele>
        <time>2011-04-17T07:26:20Z</time>
      </trkpt>
      <trkpt lat="50.79916" lon="2.49105">
        <ele>124.16300201416</ele>
        <time>2011-04-17T07:26:23Z</time>
      </trkpt>
      <trkpt lat="50.79903" lon="2.49103">
        <ele>124.03299713135</ele>
        <time>2011-04-17T07:26:26Z</time>
      </trkpt>
      <trkpt lat="50.79899" lon="2.49101">
        <ele>124.15200042725</ele>
        <time>2011-04-17T07:26:27Z</time>
      </trkpt>
      <trkpt lat="50.79849" lon="2.49079">
        <ele>126.3929977417</ele>
        <time>2011-04-17T07:26:39Z</time>
      </trkpt>
      <trkpt lat="50.79845" lon="2.49077">
        <ele>126.41200256348</ele>
        <time>2011-04-17T07:26:40Z</time>
      </trkpt>
      <trkpt lat="50.79829" lon="2.49055">
        <ele>127.54499816894</ele>
        <time>2011-04-17T07:26:45Z</time>
      </trkpt>
      <trkpt lat="50.79807" lon="2.48997">
        <ele>129.35000610352</ele>
        <time>2011-04-17T07:26:55Z</time>
      </trkpt>
      <trkpt lat="50.79802" lon="2.4899">
        <ele>129.6609954834</ele>
        <time>2011-04-17T07:26:57Z</time>
      </trkpt>
      <trkpt lat="50.79789" lon="2.49008">
        <ele>128.60000610352</ele>
        <time>2011-04-17T07:27:01Z</time>
      </trkpt>
      <trkpt lat="50.79782" lon="2.49037">
        <ele>127.56900024414</ele>
        <time>2011-04-17T07:27:04Z</time>
      </trkpt>
      <trkpt lat="50.79762" lon="2.49044">
        <ele>123.83200073242</ele>
        <time>2011-04-17T07:27:08Z</time>
      </trkpt>
      <trkpt lat="50.79726" lon="2.49033">
        <ele>120.16500091553</ele>
        <time>2011-04-17T07:27:13Z</time>
      </trkpt>
      <trkpt lat="50.79705" lon="2.49042">
        <ele>117.58100128174</ele>
        <time>2011-04-17T07:27:18Z</time>
      </trkpt>
      <trkpt lat="50.79683" lon="2.49058">
        <ele>115.7080001831</ele>
        <time>2011-04-17T07:27:23Z</time>
      </trkpt>
      <trkpt lat="50.79681" lon="2.49059">
        <ele>115.3809967041</ele>
        <time>2011-04-17T07:27:24Z</time>
      </trkpt>
      <trkpt lat="50.79682" lon="2.49067">
        <ele>114.44699859619</ele>
        <time>2011-04-17T07:27:28Z</time>
      </trkpt>
      <trkpt lat="50.79697" lon="2.49092">
        <ele>115.65699768066</ele>
        <time>2011-04-17T07:27:35Z</time>
      </trkpt>
      <trkpt lat="50.79707" lon="2.49096">
        <ele>116.32099914551</ele>
        <time>2011-04-17T07:27:39Z</time>
      </trkpt>
      <trkpt lat="50.79724" lon="2.49098">
        <ele>117.39099884033</ele>
        <time>2011-04-17T07:27:45Z</time>
      </trkpt>
      <trkpt lat="50.79738" lon="2.491">
        <ele>119.2919998169</ele>
        <time>2011-04-17T07:27:51Z</time>
      </trkpt>
      <trkpt lat="50.7975" lon="2.49106">
        <ele>120.8629989624</ele>
        <time>2011-04-17T07:27:56Z</time>
      </trkpt>
      <trkpt lat="50.79755" lon="2.49118">
        <ele>121.01100158691</ele>
        <time>2011-04-17T07:28:00Z</time>
      </trkpt>
      <trkpt lat="50.79752" lon="2.49139">
        <ele>118.46399688721</ele>
        <time>2011-04-17T07:28:04Z</time>
      </trkpt>
      <trkpt lat="50.7975" lon="2.49144">
        <ele>118.15899658203</ele>
        <time>2011-04-17T07:28:05Z</time>
      </trkpt>
      <trkpt lat="50.79738" lon="2.49165">
        <ele>116.43800354004</ele>
        <time>2011-04-17T07:28:10Z</time>
      </trkpt>
      <trkpt lat="50.7972" lon="2.49186">
        <ele>111.18000030518</ele>
        <time>2011-04-17T07:28:16Z</time>
      </trkpt>
      <trkpt lat="50.7971" lon="2.49181">
        <ele>109.40100097656</ele>
        <time>2011-04-17T07:28:20Z</time>
      </trkpt>
      <trkpt lat="50.79705" lon="2.49172">
        <ele>109.24299621582</ele>
        <time>2011-04-17T07:28:23Z</time>
      </trkpt>
      <trkpt lat="50.79689" lon="2.49169">
        <ele>109.39199829102</ele>
        <time>2011-04-17T07:28:28Z</time>
      </trkpt>
      <trkpt lat="50.79683" lon="2.49178">
        <ele>108.63800048828</ele>
        <time>2011-04-17T07:28:31Z</time>
      </trkpt>
      <trkpt lat="50.79691" lon="2.4919">
        <ele>107.13800048828</ele>
        <time>2011-04-17T07:28:35Z</time>
      </trkpt>
      <trkpt lat="50.79701" lon="2.49199">
        <ele>105.87699890137</ele>
        <time>2011-04-17T07:28:38Z</time>
      </trkpt>
      <trkpt lat="50.79713" lon="2.492">
        <ele>106.67099761963</ele>
        <time>2011-04-17T07:28:43Z</time>
      </trkpt>
      <trkpt lat="50.79719" lon="2.49211">
        <ele>107.57199859619</ele>
        <time>2011-04-17T07:28:48Z</time>
      </trkpt>
      <trkpt lat="50.79712" lon="2.49217">
        <ele>107.69400024414</ele>
        <time>2011-04-17T07:28:51Z</time>
      </trkpt>
      <trkpt lat="50.79708" lon="2.49216">
        <ele>107.58399963379</ele>
        <time>2011-04-17T07:28:52Z</time>
      </trkpt>
      <trkpt lat="50.79686" lon="2.49211">
        <ele>107.02600097656</ele>
        <time>2011-04-17T07:28:56Z</time>
      </trkpt>
      <trkpt lat="50.79661" lon="2.49189">
        <ele>105.22699737549</ele>
        <time>2011-04-17T07:29:00Z</time>
      </trkpt>
      <trkpt lat="50.79638" lon="2.49152">
        <ele>103.66400146484</ele>
        <time>2011-04-17T07:29:04Z</time>
      </trkpt>
      <trkpt lat="50.7961" lon="2.49136">
        <ele>101.07900238037</ele>
        <time>2011-04-17T07:29:08Z</time>
      </trkpt>
      <trkpt lat="50.79597" lon="2.49151">
        <ele>99.81600189209</ele>
        <time>2011-04-17T07:29:10Z</time>
      </trkpt>
      <trkpt lat="50.79593" lon="2.49161">
        <ele>99.640998840332</ele>
        <time>2011-04-17T07:29:11Z</time>
      </trkpt>
      <trkpt lat="50.79586" lon="2.49201">
        <ele>98.156997680664</ele>
        <time>2011-04-17T07:29:14Z</time>
      </trkpt>
      <trkpt lat="50.7959" lon="2.49229">
        <ele>96.830001831055</ele>
        <time>2011-04-17T07:29:16Z</time>
      </trkpt>
      <trkpt lat="50.796" lon="2.49265">
        <ele>93.846000671387</ele>
        <time>2011-04-17T07:29:19Z</time>
      </trkpt>
      <trkpt lat="50.79616" lon="2.49291">
        <ele>91.522003173828</ele>
        <time>2011-04-17T07:29:23Z</time>
      </trkpt>
      <trkpt lat="50.79621" lon="2.49305">
        <ele>90.829002380371</ele>
        <time>2011-04-17T07:29:25Z</time>
      </trkpt>
      <trkpt lat="50.79624" lon="2.49319">
        <ele>89.685997009277</ele>
        <time>2011-04-17T07:29:28Z</time>
      </trkpt>
      <trkpt lat="50.79632" lon="2.49319">
        <ele>89.685997009277</ele>
        <time>2011-04-17T07:29:33Z</time>
      </trkpt>
      <trkpt lat="50.79634" lon="2.49317">
        <ele>89.759002685547</ele>
        <time>2011-04-17T07:29:34Z</time>
      </trkpt>
      <trkpt lat="50.79648" lon="2.49305">
        <ele>91.600997924805</ele>
        <time>2011-04-17T07:29:42Z</time>
      </trkpt>
      <trkpt lat="50.7966" lon="2.49301">
        <ele>94.213996887207</ele>
        <time>2011-04-17T07:29:50Z</time>
      </trkpt>
      <trkpt lat="50.79675" lon="2.49299">
        <ele>96.879997253418</ele>
        <time>2011-04-17T07:29:59Z</time>
      </trkpt>
      <trkpt lat="50.79689" lon="2.49296">
        <ele>98.936996459961</ele>
        <time>2011-04-17T07:30:08Z</time>
      </trkpt>
      <trkpt lat="50.79702" lon="2.49294">
        <ele>101.77899932861</ele>
        <time>2011-04-17T07:30:16Z</time>
      </trkpt>
      <trkpt lat="50.7971" lon="2.49274">
        <ele>103.85299682617</ele>
        <time>2011-04-17T07:30:23Z</time>
      </trkpt>
      <trkpt lat="50.7972" lon="2.49247">
        <ele>105.69100189209</ele>
        <time>2011-04-17T07:30:31Z</time>
      </trkpt>
      <trkpt lat="50.79723" lon="2.49234">
        <ele>107.25800323486</ele>
        <time>2011-04-17T07:30:35Z</time>
      </trkpt>
      <trkpt lat="50.79732" lon="2.49236">
        <ele>108.75800323486</ele>
        <time>2011-04-17T07:30:40Z</time>
      </trkpt>
      <trkpt lat="50.79734" lon="2.49238">
        <ele>108.95500183106</ele>
        <time>2011-04-17T07:30:41Z</time>
      </trkpt>
      <trkpt lat="50.79755" lon="2.49265">
        <ele>110.98500061035</ele>
        <time>2011-04-17T07:30:51Z</time>
      </trkpt>
      <trkpt lat="50.79774" lon="2.49286">
        <ele>112.3570022583</ele>
        <time>2011-04-17T07:30:58Z</time>
      </trkpt>
      <trkpt lat="50.79797" lon="2.49304">
        <ele>114.3450012207</ele>
        <time>2011-04-17T07:31:06Z</time>
      </trkpt>
      <trkpt lat="50.79813" lon="2.49298">
        <ele>115.23600006103</ele>
        <time>2011-04-17T07:31:11Z</time>
      </trkpt>
      <trkpt lat="50.79823" lon="2.49291">
        <ele>115.32099914551</ele>
        <time>2011-04-17T07:31:15Z</time>
      </trkpt>
      <trkpt lat="50.79831" lon="2.49286">
        <ele>113.92199707031</ele>
        <time>2011-04-17T07:31:18Z</time>
      </trkpt>
      <trkpt lat="50.79837" lon="2.49284">
        <ele>112.89600372315</ele>
        <time>2011-04-17T07:31:20Z</time>
      </trkpt>
      <trkpt lat="50.79842" lon="2.49297">
        <ele>110.15299987793</ele>
        <time>2011-04-17T07:31:24Z</time>
      </trkpt>
      <trkpt lat="50.79845" lon="2.49304">
        <ele>109.46700286865</ele>
        <time>2011-04-17T07:31:25Z</time>
      </trkpt>
      <trkpt lat="50.79863" lon="2.49343">
        <ele>108.03099822998</ele>
        <time>2011-04-17T07:31:30Z</time>
      </trkpt>
      <trkpt lat="50.79889" lon="2.49415">
        <ele>104.7679977417</ele>
        <time>2011-04-17T07:31:38Z</time>
      </trkpt>
      <trkpt lat="50.7988" lon="2.49429">
        <ele>103.82599639893</ele>
        <time>2011-04-17T07:31:42Z</time>
      </trkpt>
      <trkpt lat="50.7986" lon="2.49446">
        <ele>103.57099914551</ele>
        <time>2011-04-17T07:31:47Z</time>
      </trkpt>
      <trkpt lat="50.79859" lon="2.49463">
        <ele>103.63300323486</ele>
        <time>2011-04-17T07:31:50Z</time>
      </trkpt>
      <trkpt lat="50.79863" lon="2.4947">
        <ele>103.71199798584</ele>
        <time>2011-04-17T07:31:51Z</time>
      </trkpt>
      <trkpt lat="50.79891" lon="2.49535">
        <ele>103.52400207519</ele>
        <time>2011-04-17T07:31:59Z</time>
      </trkpt>
      <trkpt lat="50.79901" lon="2.49585">
        <ele>103.01499938965</ele>
        <time>2011-04-17T07:32:04Z</time>
      </trkpt>
      <trkpt lat="50.79901" lon="2.49596">
        <ele>102.71199798584</ele>
        <time>2011-04-17T07:32:05Z</time>
      </trkpt>
      <trkpt lat="50.79898" lon="2.49626">
        <ele>101.51000213623</ele>
        <time>2011-04-17T07:32:08Z</time>
      </trkpt>
      <trkpt lat="50.79891" lon="2.49658">
        <ele>99.036003112793</ele>
        <time>2011-04-17T07:32:13Z</time>
      </trkpt>
      <trkpt lat="50.7989" lon="2.4966">
        <ele>98.730003356934</ele>
        <time>2011-04-17T07:32:14Z</time>
      </trkpt>
      <trkpt lat="50.79886" lon="2.49669">
        <ele>98.107002258301</ele>
        <time>2011-04-17T07:32:20Z</time>
      </trkpt>
      <trkpt lat="50.79886" lon="2.49682">
        <ele>97.860000610352</ele>
        <time>2011-04-17T07:32:24Z</time>
      </trkpt>
      <trkpt lat="50.79875" lon="2.49695">
        <ele>95.918998718262</ele>
        <time>2011-04-17T07:32:28Z</time>
      </trkpt>
      <trkpt lat="50.79864" lon="2.49705">
        <ele>94.240997314453</ele>
        <time>2011-04-17T07:32:30Z</time>
      </trkpt>
      <trkpt lat="50.79846" lon="2.49732">
        <ele>89.149002075195</ele>
        <time>2011-04-17T07:32:34Z</time>
      </trkpt>
      <trkpt lat="50.79839" lon="2.49767">
        <ele>85.139999389648</ele>
        <time>2011-04-17T07:32:39Z</time>
      </trkpt>
      <trkpt lat="50.79839" lon="2.49773">
        <ele>84.728996276855</ele>
        <time>2011-04-17T07:32:40Z</time>
      </trkpt>
      <trkpt lat="50.79841" lon="2.49818">
        <ele>80.751998901367</ele>
        <time>2011-04-17T07:32:49Z</time>
      </trkpt>
      <trkpt lat="50.79842" lon="2.49847">
        <ele>78.494003295898</ele>
        <time>2011-04-17T07:32:55Z</time>
      </trkpt>
      <trkpt lat="50.79843" lon="2.49859">
        <ele>77.802001953125</ele>
        <time>2011-04-17T07:32:57Z</time>
      </trkpt>
      <trkpt lat="50.79844" lon="2.49894">
        <ele>73.980003356934</ele>
        <time>2011-04-17T07:33:03Z</time>
      </trkpt>
      <trkpt lat="50.7983" lon="2.49903">
        <ele>71.583999633789</ele>
        <time>2011-04-17T07:33:07Z</time>
      </trkpt>
      <trkpt lat="50.79807" lon="2.49903">
        <ele>70.178001403809</ele>
        <time>2011-04-17T07:33:12Z</time>
      </trkpt>
      <trkpt lat="50.79784" lon="2.49911">
        <ele>68.872001647949</ele>
        <time>2011-04-17T07:33:16Z</time>
      </trkpt>
      <trkpt lat="50.79771" lon="2.49928">
        <ele>67.049003601074</ele>
        <time>2011-04-17T07:33:21Z</time>
      </trkpt>
      <trkpt lat="50.7978" lon="2.49962">
        <ele>65.778999328613</ele>
        <time>2011-04-17T07:33:27Z</time>
      </trkpt>
      <trkpt lat="50.79787" lon="2.49994">
        <ele>65.430999755859</ele>
        <time>2011-04-17T07:33:31Z</time>
      </trkpt>
      <trkpt lat="50.79786" lon="2.50042">
        <ele>64.90599822998</ele>
        <time>2011-04-17T07:33:36Z</time>
      </trkpt>
      <trkpt lat="50.79778" lon="2.50112">
        <ele>63.846000671387</ele>
        <time>2011-04-17T07:33:42Z</time>
      </trkpt>
      <trkpt lat="50.79772" lon="2.50151">
        <ele>63.763999938965</ele>
        <time>2011-04-17T07:33:45Z</time>
      </trkpt>
      <trkpt lat="50.7974" lon="2.50232">
        <ele>63.268001556396</ele>
        <time>2011-04-17T07:33:52Z</time>
      </trkpt>
      <trkpt lat="50.7973" lon="2.50253">
        <ele>63.282001495361</ele>
        <time>2011-04-17T07:33:54Z</time>
      </trkpt>
      <trkpt lat="50.79722" lon="2.50297">
        <ele>63.881000518799</ele>
        <time>2011-04-17T07:33:58Z</time>
      </trkpt>
      <trkpt lat="50.79726" lon="2.50312">
        <ele>64.09400177002</ele>
        <time>2011-04-17T07:34:00Z</time>
      </trkpt>
      <trkpt lat="50.79727" lon="2.50324">
        <ele>64.375</ele>
        <time>2011-04-17T07:34:04Z</time>
      </trkpt>
      <trkpt lat="50.79721" lon="2.5034">
        <ele>64.656997680664</ele>
        <time>2011-04-17T07:34:08Z</time>
      </trkpt>
      <trkpt lat="50.79717" lon="2.5035">
        <ele>64.660003662109</ele>
        <time>2011-04-17T07:34:10Z</time>
      </trkpt>
      <trkpt lat="50.79717" lon="2.50371">
        <ele>64.442001342773</ele>
        <time>2011-04-17T07:34:14Z</time>
      </trkpt>
      <trkpt lat="50.79727" lon="2.5039">
        <ele>64.986000061035</ele>
        <time>2011-04-17T07:34:19Z</time>
      </trkpt>
      <trkpt lat="50.79724" lon="2.50411">
        <ele>65.616996765137</ele>
        <time>2011-04-17T07:34:23Z</time>
      </trkpt>
      <trkpt lat="50.79707" lon="2.50461">
        <ele>65.922996520996</ele>
        <time>2011-04-17T07:34:32Z</time>
      </trkpt>
      <trkpt lat="50.79695" lon="2.505">
        <ele>67.305999755859</ele>
        <time>2011-04-17T07:34:39Z</time>
      </trkpt>
      <trkpt lat="50.79684" lon="2.50541">
        <ele>67.865997314453</ele>
        <time>2011-04-17T07:34:46Z</time>
      </trkpt>
      <trkpt lat="50.79678" lon="2.50571">
        <ele>68.182998657227</ele>
        <time>2011-04-17T07:34:51Z</time>
      </trkpt>
      <trkpt lat="50.79661" lon="2.50603">
        <ele>67.511001586914</ele>
        <time>2011-04-17T07:34:57Z</time>
      </trkpt>
      <trkpt lat="50.79646" lon="2.50622">
        <ele>67.113998413086</ele>
        <time>2011-04-17T07:35:03Z</time>
      </trkpt>
      <trkpt lat="50.79645" lon="2.50624">
        <ele>67.168998718262</ele>
        <time>2011-04-17T07:35:05Z</time>
      </trkpt>
      <trkpt lat="50.79639" lon="2.50629">
        <ele>67.188003540039</ele>
        <time>2011-04-17T07:35:12Z</time>
      </trkpt>
      <trkpt lat="50.79631" lon="2.50641">
        <ele>68.721000671387</ele>
        <time>2011-04-17T07:35:18Z</time>
      </trkpt>
      <trkpt lat="50.79622" lon="2.50659">
        <ele>71.011001586914</ele>
        <time>2011-04-17T07:35:25Z</time>
      </trkpt>
      <trkpt lat="50.7962" lon="2.50672">
        <ele>72.333000183105</ele>
        <time>2011-04-17T07:35:29Z</time>
      </trkpt>
      <trkpt lat="50.79634" lon="2.50698">
        <ele>74.694999694824</ele>
        <time>2011-04-17T07:35:39Z</time>
      </trkpt>
      <trkpt lat="50.79646" lon="2.5072">
        <ele>77.194000244141</ele>
        <time>2011-04-17T07:35:48Z</time>
      </trkpt>
      <trkpt lat="50.79656" lon="2.50738">
        <ele>78.633003234863</ele>
        <time>2011-04-17T07:35:55Z</time>
      </trkpt>
      <trkpt lat="50.79652" lon="2.50743">
        <ele>78.363998413086</ele>
        <time>2011-04-17T07:35:58Z</time>
      </trkpt>
      <trkpt lat="50.79648" lon="2.50742">
        <ele>78.078002929688</ele>
        <time>2011-04-17T07:35:59Z</time>
      </trkpt>
      <trkpt lat="50.79638" lon="2.50741">
        <ele>77.411003112793</ele>
        <time>2011-04-17T07:36:01Z</time>
      </trkpt>
      <trkpt lat="50.79614" lon="2.50753">
        <ele>75.31600189209</ele>
        <time>2011-04-17T07:36:05Z</time>
      </trkpt>
      <trkpt lat="50.79599" lon="2.50767">
        <ele>74.084999084473</ele>
        <time>2011-04-17T07:36:07Z</time>
      </trkpt>
      <trkpt lat="50.79564" lon="2.50786">
        <ele>71.475997924805</ele>
        <time>2011-04-17T07:36:11Z</time>
      </trkpt>
      <trkpt lat="50.79513" lon="2.50787">
        <ele>68.581001281738</ele>
        <time>2011-04-17T07:36:16Z</time>
      </trkpt>
      <trkpt lat="50.79492" lon="2.50796">
        <ele>67.275001525879</ele>
        <time>2011-04-17T07:36:18Z</time>
      </trkpt>
      <trkpt lat="50.7946" lon="2.50811">
        <ele>66.400001525879</ele>
        <time>2011-04-17T07:36:21Z</time>
      </trkpt>
      <trkpt lat="50.79404" lon="2.50809">
        <ele>64.053001403809</ele>
        <time>2011-04-17T07:36:26Z</time>
      </trkpt>
      <trkpt lat="50.79385" lon="2.50797">
        <ele>62.893001556396</ele>
        <time>2011-04-17T07:36:28Z</time>
      </trkpt>
      <trkpt lat="50.79369" lon="2.50784">
        <ele>61.902000427246</ele>
        <time>2011-04-17T07:36:30Z</time>
      </trkpt>
      <trkpt lat="50.79356" lon="2.50781">
        <ele>60.25</ele>
        <time>2011-04-17T07:36:33Z</time>
      </trkpt>
      <trkpt lat="50.79349" lon="2.50793">
        <ele>60.408000946045</ele>
        <time>2011-04-17T07:36:35Z</time>
      </trkpt>
      <trkpt lat="50.79313" lon="2.50856">
        <ele>59.819000244141</ele>
        <time>2011-04-17T07:36:43Z</time>
      </trkpt>
      <trkpt lat="50.79291" lon="2.50894">
        <ele>58.35599899292</ele>
        <time>2011-04-17T07:36:48Z</time>
      </trkpt>
      <trkpt lat="50.79287" lon="2.50918">
        <ele>57.971000671387</ele>
        <time>2011-04-17T07:36:51Z</time>
      </trkpt>
      <trkpt lat="50.79294" lon="2.5093">
        <ele>57.798000335693</ele>
        <time>2011-04-17T07:36:53Z</time>
      </trkpt>
      <trkpt lat="50.79327" lon="2.50969">
        <ele>58.573001861572</ele>
        <time>2011-04-17T07:37:00Z</time>
      </trkpt>
      <trkpt lat="50.79369" lon="2.5102">
        <ele>60.139999389648</ele>
        <time>2011-04-17T07:37:09Z</time>
      </trkpt>
      <trkpt lat="50.7941" lon="2.5107">
        <ele>62.145999908447</ele>
        <time>2011-04-17T07:37:18Z</time>
      </trkpt>
      <trkpt lat="50.79443" lon="2.51108">
        <ele>63.292999267578</ele>
        <time>2011-04-17T07:37:25Z</time>
      </trkpt>
      <trkpt lat="50.79452" lon="2.51127">
        <ele>64.019996643066</ele>
        <time>2011-04-17T07:37:28Z</time>
      </trkpt>
      <trkpt lat="50.79468" lon="2.51183">
        <ele>64.810997009277</ele>
        <time>2011-04-17T07:37:35Z</time>
      </trkpt>
      <trkpt lat="50.79465" lon="2.51203">
        <ele>64.569000244141</ele>
        <time>2011-04-17T07:37:38Z</time>
      </trkpt>
      <trkpt lat="50.79447" lon="2.51218">
        <ele>63.664001464844</ele>
        <time>2011-04-17T07:37:42Z</time>
      </trkpt>
      <trkpt lat="50.7943" lon="2.51234">
        <ele>61.793998718262</ele>
        <time>2011-04-17T07:37:45Z</time>
      </trkpt>
      <trkpt lat="50.79416" lon="2.51256">
        <ele>60.050998687744</ele>
        <time>2011-04-17T07:37:48Z</time>
      </trkpt>
      <trkpt lat="50.79406" lon="2.51279">
        <ele>57.992000579834</ele>
        <time>2011-04-17T07:37:51Z</time>
      </trkpt>
      <trkpt lat="50.794" lon="2.51286">
        <ele>56.608001708984</ele>
        <time>2011-04-17T07:37:53Z</time>
      </trkpt>
      <trkpt lat="50.7939" lon="2.51275">
        <ele>53.976001739502</ele>
        <time>2011-04-17T07:37:57Z</time>
      </trkpt>
      <trkpt lat="50.79387" lon="2.51266">
        <ele>51.696998596191</ele>
        <time>2011-04-17T07:37:59Z</time>
      </trkpt>
      <trkpt lat="50.79378" lon="2.51263">
        <ele>48.207000732422</ele>
        <time>2011-04-17T07:38:03Z</time>
      </trkpt>
      <trkpt lat="50.79376" lon="2.51266">
        <ele>47.356998443604</ele>
        <time>2011-04-17T07:38:05Z</time>
      </trkpt>
      <trkpt lat="50.79372" lon="2.51273">
        <ele>45.833000183105</ele>
        <time>2011-04-17T07:38:10Z</time>
      </trkpt>
      <trkpt lat="50.7937" lon="2.51275">
        <ele>45.726001739502</ele>
        <time>2011-04-17T07:38:12Z</time>
      </trkpt>
      <trkpt lat="50.79367" lon="2.51288">
        <ele>46.580001831055</ele>
        <time>2011-04-17T07:38:18Z</time>
      </trkpt>
      <trkpt lat="50.79365" lon="2.51289">
        <ele>46.557998657227</ele>
        <time>2011-04-17T07:38:19Z</time>
      </trkpt>
      <trkpt lat="50.79348" lon="2.51302">
        <ele>44.262001037598</ele>
        <time>2011-04-17T07:38:24Z</time>
      </trkpt>
      <trkpt lat="50.79339" lon="2.51317">
        <ele>44.409000396729</ele>
        <time>2011-04-17T07:38:28Z</time>
      </trkpt>
      <trkpt lat="50.79331" lon="2.51327">
        <ele>45.101001739502</ele>
        <time>2011-04-17T07:38:32Z</time>
      </trkpt>
      <trkpt lat="50.79329" lon="2.51331">
        <ele>45.652000427246</ele>
        <time>2011-04-17T07:38:34Z</time>
      </trkpt>
      <trkpt lat="50.79333" lon="2.51343">
        <ele>47.393001556396</ele>
        <time>2011-04-17T07:38:39Z</time>
      </trkpt>
      <trkpt lat="50.79329" lon="2.51351">
        <ele>47.618999481201</ele>
        <time>2011-04-17T07:38:42Z</time>
      </trkpt>
      <trkpt lat="50.79331" lon="2.51368">
        <ele>47.988998413086</ele>
        <time>2011-04-17T07:38:46Z</time>
      </trkpt>
      <trkpt lat="50.79334" lon="2.51382">
        <ele>48.470001220703</ele>
        <time>2011-04-17T07:38:51Z</time>
      </trkpt>
      <trkpt lat="50.79344" lon="2.51376">
        <ele>49.863998413086</ele>
        <time>2011-04-17T07:38:56Z</time>
      </trkpt>
      <trkpt lat="50.79356" lon="2.51362">
        <ele>52.487998962402</ele>
        <time>2011-04-17T07:39:02Z</time>
      </trkpt>
      <trkpt lat="50.79358" lon="2.51361">
        <ele>52.694999694824</ele>
        <time>2011-04-17T07:39:03Z</time>
      </trkpt>
      <trkpt lat="50.79365" lon="2.51357">
        <ele>53.970001220703</ele>
        <time>2011-04-17T07:39:08Z</time>
      </trkpt>
      <trkpt lat="50.79361" lon="2.51345">
        <ele>53.382999420166</ele>
        <time>2011-04-17T07:39:12Z</time>
      </trkpt>
      <trkpt lat="50.79364" lon="2.51338">
        <ele>53.465000152588</ele>
        <time>2011-04-17T07:39:15Z</time>
      </trkpt>
      <trkpt lat="50.79375" lon="2.51325">
        <ele>54.412998199463</ele>
        <time>2011-04-17T07:39:21Z</time>
      </trkpt>
      <trkpt lat="50.79386" lon="2.51316">
        <ele>55.282001495361</ele>
        <time>2011-04-17T07:39:26Z</time>
      </trkpt>
      <trkpt lat="50.79399" lon="2.51305">
        <ele>55.923999786377</ele>
        <time>2011-04-17T07:39:31Z</time>
      </trkpt>
      <trkpt lat="50.79423" lon="2.51308">
        <ele>56.791000366211</ele>
        <time>2011-04-17T07:39:38Z</time>
      </trkpt>
      <trkpt lat="50.79446" lon="2.51305">
        <ele>57.67200088501</ele>
        <time>2011-04-17T07:39:45Z</time>
      </trkpt>
      <trkpt lat="50.79463" lon="2.51293">
        <ele>58.763999938965</ele>
        <time>2011-04-17T07:39:51Z</time>
      </trkpt>
      <trkpt lat="50.79467" lon="2.51279">
        <ele>59.381999969482</ele>
        <time>2011-04-17T07:39:55Z</time>
      </trkpt>
      <trkpt lat="50.79467" lon="2.51272">
        <ele>60.162998199463</ele>
        <time>2011-04-17T07:39:57Z</time>
      </trkpt>
      <trkpt lat="50.79475" lon="2.51258">
        <ele>61.43399810791</ele>
        <time>2011-04-17T07:40:02Z</time>
      </trkpt>
      <trkpt lat="50.79485" lon="2.51255">
        <ele>62.173000335693</ele>
        <time>2011-04-17T07:40:06Z</time>
      </trkpt>
      <trkpt lat="50.79499" lon="2.5125">
        <ele>62.910999298096</ele>
        <time>2011-04-17T07:40:12Z</time>
      </trkpt>
      <trkpt lat="50.79506" lon="2.51249">
        <ele>62.791999816895</ele>
        <time>2011-04-17T07:40:15Z</time>
      </trkpt>
      <trkpt lat="50.79511" lon="2.51264">
        <ele>61.819999694824</ele>
        <time>2011-04-17T07:40:19Z</time>
      </trkpt>
      <trkpt lat="50.79517" lon="2.51304">
        <ele>60.041000366211</ele>
        <time>2011-04-17T07:40:24Z</time>
      </trkpt>
      <trkpt lat="50.79522" lon="2.51323">
        <ele>59.518001556396</ele>
        <time>2011-04-17T07:40:26Z</time>
      </trkpt>
      <trkpt lat="50.79541" lon="2.51395">
        <ele>56.214000701904</ele>
        <time>2011-04-17T07:40:33Z</time>
      </trkpt>
      <trkpt lat="50.79548" lon="2.51417">
        <ele>55.50899887085</ele>
        <time>2011-04-17T07:40:35Z</time>
      </trkpt>
      <trkpt lat="50.79568" lon="2.51494">
        <ele>53.703998565674</ele>
        <time>2011-04-17T07:40:41Z</time>
      </trkpt>
      <trkpt lat="50.79592" lon="2.51611">
        <ele>51.601001739502</ele>
        <time>2011-04-17T07:40:50Z</time>
      </trkpt>
      <trkpt lat="50.79605" lon="2.5167">
        <ele>49.081001281738</ele>
        <time>2011-04-17T07:40:55Z</time>
      </trkpt>
      <trkpt lat="50.79626" lon="2.5169">
        <ele>47.319999694824</ele>
        <time>2011-04-17T07:40:59Z</time>
      </trkpt>
      <trkpt lat="50.79641" lon="2.51684">
        <ele>46.696998596191</ele>
        <time>2011-04-17T07:41:01Z</time>
      </trkpt>
      <trkpt lat="50.79665" lon="2.51683">
        <ele>44.178001403809</ele>
        <time>2011-04-17T07:41:05Z</time>
      </trkpt>
      <trkpt lat="50.79668" lon="2.51691">
        <ele>43.882999420166</ele>
        <time>2011-04-17T07:41:06Z</time>
      </trkpt>
      <trkpt lat="50.7967" lon="2.51701">
        <ele>43.384998321533</ele>
        <time>2011-04-17T07:41:07Z</time>
      </trkpt>
      <trkpt lat="50.79678" lon="2.51757">
        <ele>42.294998168945</ele>
        <time>2011-04-17T07:41:12Z</time>
      </trkpt>
      <trkpt lat="50.79691" lon="2.51827">
        <ele>40.481998443604</ele>
        <time>2011-04-17T07:41:18Z</time>
      </trkpt>
      <trkpt lat="50.79707" lon="2.51884">
        <ele>39.117000579834</ele>
        <time>2011-04-17T07:41:23Z</time>
      </trkpt>
      <trkpt lat="50.79719" lon="2.51954">
        <ele>37.145000457764</ele>
        <time>2011-04-17T07:41:29Z</time>
      </trkpt>
      <trkpt lat="50.79721" lon="2.52001">
        <ele>35.692001342773</ele>
        <time>2011-04-17T07:41:33Z</time>
      </trkpt>
      <trkpt lat="50.79713" lon="2.5208">
        <ele>32.618999481201</ele>
        <time>2011-04-17T07:41:39Z</time>
      </trkpt>
      <trkpt lat="50.79707" lon="2.5219">
        <ele>29.261999130249</ele>
        <time>2011-04-17T07:41:47Z</time>
      </trkpt>
      <trkpt lat="50.79705" lon="2.52283">
        <ele>26.767000198364</ele>
        <time>2011-04-17T07:41:54Z</time>
      </trkpt>
      <trkpt lat="50.79705" lon="2.52308">
        <ele>26.361000061035</ele>
        <time>2011-04-17T07:41:56Z</time>
      </trkpt>
      <trkpt lat="50.79718" lon="2.52364">
        <ele>25.504999160767</ele>
        <time>2011-04-17T07:42:01Z</time>
      </trkpt>
      <trkpt lat="50.79729" lon="2.52382">
        <ele>25.181999206543</ele>
        <time>2011-04-17T07:42:03Z</time>
      </trkpt>
      <trkpt lat="50.79795" lon="2.52479">
        <ele>23.867000579834</ele>
        <time>2011-04-17T07:42:15Z</time>
      </trkpt>
      <trkpt lat="50.79822" lon="2.5252">
        <ele>23.724000930786</ele>
        <time>2011-04-17T07:42:20Z</time>
      </trkpt>
      <trkpt lat="50.79837" lon="2.52575">
        <ele>23.384000778198</ele>
        <time>2011-04-17T07:42:25Z</time>
      </trkpt>
      <trkpt lat="50.7984" lon="2.52639">
        <ele>22.298000335693</ele>
        <time>2011-04-17T07:42:30Z</time>
      </trkpt>
      <trkpt lat="50.79833" lon="2.52703">
        <ele>22.034000396729</ele>
        <time>2011-04-17T07:42:35Z</time>
      </trkpt>
      <trkpt lat="50.79834" lon="2.52808">
        <ele>21.413000106811</ele>
        <time>2011-04-17T07:42:43Z</time>
      </trkpt>
      <trkpt lat="50.79834" lon="2.52924">
        <ele>20.385000228882</ele>
        <time>2011-04-17T07:42:52Z</time>
      </trkpt>
      <trkpt lat="50.79835" lon="2.53044">
        <ele>18.888000488281</ele>
        <time>2011-04-17T07:43:01Z</time>
      </trkpt>
      <trkpt lat="50.79837" lon="2.53193">
        <ele>16.15299987793</ele>
        <time>2011-04-17T07:43:12Z</time>
      </trkpt>
      <trkpt lat="50.79837" lon="2.53232">
        <ele>15.310000419617</ele>
        <time>2011-04-17T07:43:15Z</time>
      </trkpt>
      <trkpt lat="50.79824" lon="2.5328">
        <ele>14.793999671936</ele>
        <time>2011-04-17T07:43:19Z</time>
      </trkpt>
      <trkpt lat="50.79811" lon="2.53298">
        <ele>14.454000473023</ele>
        <time>2011-04-17T07:43:21Z</time>
      </trkpt>
      <trkpt lat="50.79769" lon="2.53356">
        <ele>15.493000030518</ele>
        <time>2011-04-17T07:43:28Z</time>
      </trkpt>
      <trkpt lat="50.79763" lon="2.53365">
        <ele>15.982000350952</ele>
        <time>2011-04-17T07:43:29Z</time>
      </trkpt>
      <trkpt lat="50.79755" lon="2.53397">
        <ele>17.101999282837</ele>
        <time>2011-04-17T07:43:32Z</time>
      </trkpt>
      <trkpt lat="50.79763" lon="2.53419">
        <ele>17.283000946045</ele>
        <time>2011-04-17T07:43:34Z</time>
      </trkpt>
      <trkpt lat="50.798" lon="2.53495">
        <ele>16.517000198364</ele>
        <time>2011-04-17T07:43:41Z</time>
      </trkpt>
      <trkpt lat="50.79819" lon="2.53521">
        <ele>15.871000289917</ele>
        <time>2011-04-17T07:43:44Z</time>
      </trkpt>
      <trkpt lat="50.79838" lon="2.53565">
        <ele>15.095999717712</ele>
        <time>2011-04-17T07:43:48Z</time>
      </trkpt>
      <trkpt lat="50.79869" lon="2.53683">
        <ele>14.105999946594</ele>
        <time>2011-04-17T07:43:58Z</time>
      </trkpt>
      <trkpt lat="50.79882" lon="2.53778">
        <ele>14.239000320435</ele>
        <time>2011-04-17T07:44:06Z</time>
      </trkpt>
      <trkpt lat="50.79889" lon="2.5383">
        <ele>13.90299987793</ele>
        <time>2011-04-17T07:44:11Z</time>
      </trkpt>
      <trkpt lat="50.79887" lon="2.53861">
        <ele>13.239000320435</ele>
        <time>2011-04-17T07:44:15Z</time>
      </trkpt>
      <trkpt lat="50.79877" lon="2.53866">
        <ele>13.220000267029</ele>
        <time>2011-04-17T07:44:17Z</time>
      </trkpt>
      <trkpt lat="50.7986" lon="2.5387">
        <ele>13.88300037384</ele>
        <time>2011-04-17T07:44:20Z</time>
      </trkpt>
      <trkpt lat="50.79845" lon="2.53887">
        <ele>14.730999946594</ele>
        <time>2011-04-17T07:44:24Z</time>
      </trkpt>
      <trkpt lat="50.79845" lon="2.53894">
        <ele>14.854999542236</ele>
        <time>2011-04-17T07:44:25Z</time>
      </trkpt>
      <trkpt lat="50.79847" lon="2.5391">
        <ele>15.173000335693</ele>
        <time>2011-04-17T07:44:27Z</time>
      </trkpt>
      <trkpt lat="50.79855" lon="2.53931">
        <ele>14.552000045776</ele>
        <time>2011-04-17T07:44:31Z</time>
      </trkpt>
      <trkpt lat="50.79861" lon="2.53947">
        <ele>14.190999984741</ele>
        <time>2011-04-17T07:44:34Z</time>
      </trkpt>
      <trkpt lat="50.79867" lon="2.53999">
        <ele>14.045000076294</ele>
        <time>2011-04-17T07:44:40Z</time>
      </trkpt>
      <trkpt lat="50.79867" lon="2.54036">
        <ele>13.692999839783</ele>
        <time>2011-04-17T07:44:44Z</time>
      </trkpt>
      <trkpt lat="50.79873" lon="2.54072">
        <ele>13.293000221252</ele>
        <time>2011-04-17T07:44:48Z</time>
      </trkpt>
      <trkpt lat="50.79892" lon="2.54127">
        <ele>12.147000312805</ele>
        <time>2011-04-17T07:44:54Z</time>
      </trkpt>
      <trkpt lat="50.79913" lon="2.54147">
        <ele>11.3140001297</ele>
        <time>2011-04-17T07:44:58Z</time>
      </trkpt>
      <trkpt lat="50.79935" lon="2.54148">
        <ele>10.828000068665</ele>
        <time>2011-04-17T07:45:01Z</time>
      </trkpt>
      <trkpt lat="50.79961" lon="2.54156">
        <ele>10.494999885559</ele>
        <time>2011-04-17T07:45:05Z</time>
      </trkpt>
      <trkpt lat="50.79971" lon="2.54169">
        <ele>10.14999961853</ele>
        <time>2011-04-17T07:45:09Z</time>
      </trkpt>
      <trkpt lat="50.79977" lon="2.5418">
        <ele>10.118000030518</ele>
        <time>2011-04-17T07:45:12Z</time>
      </trkpt>
      <trkpt lat="50.79981" lon="2.54182">
        <ele>10.175999641418</ele>
        <time>2011-04-17T07:45:13Z</time>
      </trkpt>
      <trkpt lat="50.80014" lon="2.54196">
        <ele>11.145000457764</ele>
        <time>2011-04-17T07:45:20Z</time>
      </trkpt>
      <trkpt lat="50.80017" lon="2.54199">
        <ele>11.199000358582</ele>
        <time>2011-04-17T07:45:21Z</time>
      </trkpt>
      <trkpt lat="50.80022" lon="2.54222">
        <ele>11.675000190735</ele>
        <time>2011-04-17T07:45:25Z</time>
      </trkpt>
      <trkpt lat="50.80021" lon="2.54272">
        <ele>12.604000091553</ele>
        <time>2011-04-17T07:45:31Z</time>
      </trkpt>
      <trkpt lat="50.80018" lon="2.54366">
        <ele>13.821999549866</ele>
        <time>2011-04-17T07:45:41Z</time>
      </trkpt>
      <trkpt lat="50.80019" lon="2.54434">
        <ele>14.685000419617</ele>
        <time>2011-04-17T07:45:49Z</time>
      </trkpt>
      <trkpt lat="50.80024" lon="2.54501">
        <ele>16.034999847412</ele>
        <time>2011-04-17T07:45:57Z</time>
      </trkpt>
      <trkpt lat="50.80035" lon="2.54571">
        <ele>17.209999084473</ele>
        <time>2011-04-17T07:46:05Z</time>
      </trkpt>
      <trkpt lat="50.80034" lon="2.54623">
        <ele>17.569999694824</ele>
        <time>2011-04-17T07:46:11Z</time>
      </trkpt>
      <trkpt lat="50.80024" lon="2.54688">
        <ele>17.398000717163</ele>
        <time>2011-04-17T07:46:18Z</time>
      </trkpt>
      <trkpt lat="50.80016" lon="2.54767">
        <ele>17.584999084473</ele>
        <time>2011-04-17T07:46:26Z</time>
      </trkpt>
      <trkpt lat="50.80014" lon="2.54846">
        <ele>17.954000473023</ele>
        <time>2011-04-17T07:46:34Z</time>
      </trkpt>
      <trkpt lat="50.80015" lon="2.54909">
        <ele>17.784000396729</ele>
        <time>2011-04-17T07:46:40Z</time>
      </trkpt>
      <trkpt lat="50.80016" lon="2.54934">
        <ele>17.645000457764</ele>
        <time>2011-04-17T07:46:42Z</time>
      </trkpt>
      <trkpt lat="50.80026" lon="2.54981">
        <ele>17.944000244141</ele>
        <time>2011-04-17T07:46:46Z</time>
      </trkpt>
      <trkpt lat="50.80045" lon="2.55027">
        <ele>18.184999465942</ele>
        <time>2011-04-17T07:46:51Z</time>
      </trkpt>
      <trkpt lat="50.80057" lon="2.5509">
        <ele>17.829000473023</ele>
        <time>2011-04-17T07:46:57Z</time>
      </trkpt>
      <trkpt lat="50.80067" lon="2.55135">
        <ele>17.778999328613</ele>
        <time>2011-04-17T07:47:01Z</time>
      </trkpt>
      <trkpt lat="50.80092" lon="2.5518">
        <ele>17.434000015259</ele>
        <time>2011-04-17T07:47:06Z</time>
      </trkpt>
      <trkpt lat="50.80129" lon="2.5523">
        <ele>18.556999206543</ele>
        <time>2011-04-17T07:47:12Z</time>
      </trkpt>
      <trkpt lat="50.80145" lon="2.55281">
        <ele>19.572999954224</ele>
        <time>2011-04-17T07:47:16Z</time>
      </trkpt>
      <trkpt lat="50.8015" lon="2.55309">
        <ele>19.680999755859</ele>
        <time>2011-04-17T07:47:18Z</time>
      </trkpt>
      <trkpt lat="50.8017" lon="2.55357">
        <ele>20.281999588013</ele>
        <time>2011-04-17T07:47:22Z</time>
      </trkpt>
      <trkpt lat="50.80202" lon="2.55423">
        <ele>20.408000946045</ele>
        <time>2011-04-17T07:47:28Z</time>
      </trkpt>
      <trkpt lat="50.80227" lon="2.55508">
        <ele>19.893999099731</ele>
        <time>2011-04-17T07:47:35Z</time>
      </trkpt>
      <trkpt lat="50.80249" lon="2.55569">
        <ele>18.565999984741</ele>
        <time>2011-04-17T07:47:41Z</time>
      </trkpt>
      <trkpt lat="50.80266" lon="2.55591">
        <ele>18.024000167847</ele>
        <time>2011-04-17T07:47:44Z</time>
      </trkpt>
      <trkpt lat="50.80274" lon="2.55593">
        <ele>17.983999252319</ele>
        <time>2011-04-17T07:47:45Z</time>
      </trkpt>
      <trkpt lat="50.8031" lon="2.55593">
        <ele>17.291999816894</ele>
        <time>2011-04-17T07:47:50Z</time>
      </trkpt>
      <trkpt lat="50.80328" lon="2.55575">
        <ele>16.896999359131</ele>
        <time>2011-04-17T07:47:54Z</time>
      </trkpt>
      <trkpt lat="50.80328" lon="2.55557">
        <ele>17.284000396729</ele>
        <time>2011-04-17T07:47:56Z</time>
      </trkpt>
      <trkpt lat="50.80325" lon="2.55491">
        <ele>18.548000335693</ele>
        <time>2011-04-17T07:48:02Z</time>
      </trkpt>
      <trkpt lat="50.80326" lon="2.55412">
        <ele>20.235000610352</ele>
        <time>2011-04-17T07:48:09Z</time>
      </trkpt>
      <trkpt lat="50.8033" lon="2.55319">
        <ele>22.042999267578</ele>
        <time>2011-04-17T07:48:18Z</time>
      </trkpt>
      <trkpt lat="50.80332" lon="2.55254">
        <ele>23.344999313354</ele>
        <time>2011-04-17T07:48:25Z</time>
      </trkpt>
      <trkpt lat="50.80334" lon="2.55227">
        <ele>24.017000198364</ele>
        <time>2011-04-17T07:48:28Z</time>
      </trkpt>
      <trkpt lat="50.80352" lon="2.55172">
        <ele>25.341999053955</ele>
        <time>2011-04-17T07:48:35Z</time>
      </trkpt>
      <trkpt lat="50.80369" lon="2.55107">
        <ele>26.618999481201</ele>
        <time>2011-04-17T07:48:43Z</time>
      </trkpt>
      <trkpt lat="50.80386" lon="2.55024">
        <ele>28.683000564575</ele>
        <time>2011-04-17T07:48:53Z</time>
      </trkpt>
      <trkpt lat="50.80388" lon="2.55007">
        <ele>29.136999130249</ele>
        <time>2011-04-17T07:48:55Z</time>
      </trkpt>
      <trkpt lat="50.80389" lon="2.5496">
        <ele>30.820999145508</ele>
        <time>2011-04-17T07:49:02Z</time>
      </trkpt>
      <trkpt lat="50.80392" lon="2.54905">
        <ele>32.747001647949</ele>
        <time>2011-04-17T07:49:11Z</time>
      </trkpt>
      <trkpt lat="50.80394" lon="2.54857">
        <ele>34.273998260498</ele>
        <time>2011-04-17T07:49:19Z</time>
      </trkpt>
      <trkpt lat="50.80395" lon="2.54805">
        <ele>35.604000091553</ele>
        <time>2011-04-17T07:49:27Z</time>
      </trkpt>
      <trkpt lat="50.80396" lon="2.54774">
        <ele>36.208000183105</ele>
        <time>2011-04-17T07:49:32Z</time>
      </trkpt>
      <trkpt lat="50.80407" lon="2.54771">
        <ele>36.248001098633</ele>
        <time>2011-04-17T07:49:36Z</time>
      </trkpt>
      <trkpt lat="50.80412" lon="2.54773">
        <ele>36.339000701904</ele>
        <time>2011-04-17T07:49:37Z</time>
      </trkpt>
      <trkpt lat="50.8046" lon="2.54792">
        <ele>35.717998504639</ele>
        <time>2011-04-17T07:49:46Z</time>
      </trkpt>
      <trkpt lat="50.80478" lon="2.54799">
        <ele>34.548000335693</ele>
        <time>2011-04-17T07:49:49Z</time>
      </trkpt>
      <trkpt lat="50.80488" lon="2.54793">
        <ele>32.987998962402</ele>
        <time>2011-04-17T07:49:52Z</time>
      </trkpt>
      <trkpt lat="50.80489" lon="2.54778">
        <ele>32.717998504639</ele>
        <time>2011-04-17T07:49:55Z</time>
      </trkpt>
      <trkpt lat="50.80494" lon="2.54728">
        <ele>33.145999908447</ele>
        <time>2011-04-17T07:50:02Z</time>
      </trkpt>
      <trkpt lat="50.805" lon="2.54663">
        <ele>33.770000457764</ele>
        <time>2011-04-17T07:50:10Z</time>
      </trkpt>
      <trkpt lat="50.80506" lon="2.54604">
        <ele>33.858001708984</ele>
        <time>2011-04-17T07:50:17Z</time>
      </trkpt>
      <trkpt lat="50.80508" lon="2.54583">
        <ele>33.923999786377</ele>
        <time>2011-04-17T07:50:20Z</time>
      </trkpt>
      <trkpt lat="50.80521" lon="2.54571">
        <ele>34.61600112915</ele>
        <time>2011-04-17T07:50:24Z</time>
      </trkpt>
      <trkpt lat="50.8053" lon="2.54574">
        <ele>35.05899810791</ele>
        <time>2011-04-17T07:50:26Z</time>
      </trkpt>
      <trkpt lat="50.8058" lon="2.54583">
        <ele>35.694000244141</ele>
        <time>2011-04-17T07:50:35Z</time>
      </trkpt>
      <trkpt lat="50.80634" lon="2.54592">
        <ele>35.365001678467</ele>
        <time>2011-04-17T07:50:44Z</time>
      </trkpt>
      <trkpt lat="50.8067" lon="2.54597">
        <ele>33.723999023438</ele>
        <time>2011-04-17T07:50:50Z</time>
      </trkpt>
      <trkpt lat="50.80676" lon="2.54597">
        <ele>32.92200088501</ele>
        <time>2011-04-17T07:50:52Z</time>
      </trkpt>
      <trkpt lat="50.80677" lon="2.54596">
        <ele>32.536998748779</ele>
        <time>2011-04-17T07:50:53Z</time>
      </trkpt>
      <trkpt lat="50.80679" lon="2.54584">
        <ele>31.813999176025</ele>
        <time>2011-04-17T07:51:00Z</time>
      </trkpt>
      <trkpt lat="50.80683" lon="2.54555">
        <ele>32.028999328613</ele>
        <time>2011-04-17T07:51:04Z</time>
      </trkpt>
      <trkpt lat="50.80683" lon="2.54491">
        <ele>31.235000610352</ele>
        <time>2011-04-17T07:51:10Z</time>
      </trkpt>
      <trkpt lat="50.80681" lon="2.54411">
        <ele>30.313999176025</ele>
        <time>2011-04-17T07:51:16Z</time>
      </trkpt>
      <trkpt lat="50.80679" lon="2.54318">
        <ele>28.603000640869</ele>
        <time>2011-04-17T07:51:22Z</time>
      </trkpt>
      <trkpt lat="50.80676" lon="2.54197">
        <ele>26.659000396729</ele>
        <time>2011-04-17T07:51:29Z</time>
      </trkpt>
      <trkpt lat="50.80667" lon="2.54052">
        <ele>23.909999847412</ele>
        <time>2011-04-17T07:51:37Z</time>
      </trkpt>
      <trkpt lat="50.80663" lon="2.53983">
        <ele>22.236000061035</ele>
        <time>2011-04-17T07:51:41Z</time>
      </trkpt>
      <trkpt lat="50.80655" lon="2.53872">
        <ele>20.226999282837</ele>
        <time>2011-04-17T07:51:48Z</time>
      </trkpt>
      <trkpt lat="50.80647" lon="2.5379">
        <ele>18.576999664307</ele>
        <time>2011-04-17T07:51:54Z</time>
      </trkpt>
      <trkpt lat="50.80644" lon="2.53753">
        <ele>18.003999710083</ele>
        <time>2011-04-17T07:51:57Z</time>
      </trkpt>
      <trkpt lat="50.8065" lon="2.53731">
        <ele>17.497999191284</ele>
        <time>2011-04-17T07:52:00Z</time>
      </trkpt>
      <trkpt lat="50.80659" lon="2.53732">
        <ele>17.431999206543</ele>
        <time>2011-04-17T07:52:02Z</time>
      </trkpt>
      <trkpt lat="50.80701" lon="2.53748">
        <ele>18.253999710083</ele>
        <time>2011-04-17T07:52:09Z</time>
      </trkpt>
      <trkpt lat="50.80708" lon="2.5375">
        <ele>18.511999130249</ele>
        <time>2011-04-17T07:52:10Z</time>
      </trkpt>
      <trkpt lat="50.80737" lon="2.53746">
        <ele>19.450000762939</ele>
        <time>2011-04-17T07:52:15Z</time>
      </trkpt>
      <trkpt lat="50.80743" lon="2.53744">
        <ele>19.680000305176</ele>
        <time>2011-04-17T07:52:16Z</time>
      </trkpt>
      <trkpt lat="50.80794" lon="2.53718">
        <ele>20.643999099731</ele>
        <time>2011-04-17T07:52:25Z</time>
      </trkpt>
      <trkpt lat="50.80851" lon="2.53699">
        <ele>20.639999389648</ele>
        <time>2011-04-17T07:52:34Z</time>
      </trkpt>
      <trkpt lat="50.80889" lon="2.53685">
        <ele>21.615999221802</ele>
        <time>2011-04-17T07:52:41Z</time>
      </trkpt>
      <trkpt lat="50.80904" lon="2.53676">
        <ele>21.871999740601</ele>
        <time>2011-04-17T07:52:44Z</time>
      </trkpt>
      <trkpt lat="50.80917" lon="2.53664">
        <ele>22.132999420166</ele>
        <time>2011-04-17T07:52:47Z</time>
      </trkpt>
      <trkpt lat="50.80931" lon="2.53642">
        <ele>22.437000274658</ele>
        <time>2011-04-17T07:52:51Z</time>
      </trkpt>
      <trkpt lat="50.80962" lon="2.53588">
        <ele>23.410999298096</ele>
        <time>2011-04-17T07:53:00Z</time>
      </trkpt>
      <trkpt lat="50.80993" lon="2.53535">
        <ele>24.850999832153</ele>
        <time>2011-04-17T07:53:10Z</time>
      </trkpt>
      <trkpt lat="50.81027" lon="2.53475">
        <ele>26.224000930786</ele>
        <time>2011-04-17T07:53:21Z</time>
      </trkpt>
      <trkpt lat="50.81057" lon="2.53418">
        <ele>27.20599937439</ele>
        <time>2011-04-17T07:53:31Z</time>
      </trkpt>
      <trkpt lat="50.81081" lon="2.53377">
        <ele>28.188999176025</ele>
        <time>2011-04-17T07:53:38Z</time>
      </trkpt>
      <trkpt lat="50.8111" lon="2.53324">
        <ele>29.375</ele>
        <time>2011-04-17T07:53:47Z</time>
      </trkpt>
      <trkpt lat="50.81139" lon="2.53273">
        <ele>30.500999450684</ele>
        <time>2011-04-17T07:53:56Z</time>
      </trkpt>
      <trkpt lat="50.81158" lon="2.53241">
        <ele>30.97200012207</ele>
        <time>2011-04-17T07:54:02Z</time>
      </trkpt>
      <trkpt lat="50.81165" lon="2.53229">
        <ele>31.131000518799</ele>
        <time>2011-04-17T07:54:04Z</time>
      </trkpt>
      <trkpt lat="50.81186" lon="2.53187">
        <ele>31.552000045776</ele>
        <time>2011-04-17T07:54:11Z</time>
      </trkpt>
      <trkpt lat="50.81195" lon="2.53149">
        <ele>31.620000839233</ele>
        <time>2011-04-17T07:54:16Z</time>
      </trkpt>
      <trkpt lat="50.81195" lon="2.53141">
        <ele>31.646999359131</ele>
        <time>2011-04-17T07:54:17Z</time>
      </trkpt>
      <trkpt lat="50.81188" lon="2.53069">
        <ele>32.847999572754</ele>
        <time>2011-04-17T07:54:26Z</time>
      </trkpt>
      <trkpt lat="50.81184" lon="2.53013">
        <ele>33.745998382568</ele>
        <time>2011-04-17T07:54:33Z</time>
      </trkpt>
      <trkpt lat="50.81194" lon="2.52991">
        <ele>34.442001342773</ele>
        <time>2011-04-17T07:54:37Z</time>
      </trkpt>
      <trkpt lat="50.81233" lon="2.5296">
        <ele>36.342998504639</ele>
        <time>2011-04-17T07:54:47Z</time>
      </trkpt>
      <trkpt lat="50.81272" lon="2.5293">
        <ele>38.053001403809</ele>
        <time>2011-04-17T07:54:57Z</time>
      </trkpt>
      <trkpt lat="50.81303" lon="2.52904">
        <ele>39.298000335693</ele>
        <time>2011-04-17T07:55:05Z</time>
      </trkpt>
      <trkpt lat="50.8133" lon="2.52879">
        <ele>40.285999298096</ele>
        <time>2011-04-17T07:55:12Z</time>
      </trkpt>
      <trkpt lat="50.81361" lon="2.52854">
        <ele>40.791999816895</ele>
        <time>2011-04-17T07:55:19Z</time>
      </trkpt>
      <trkpt lat="50.81386" lon="2.52832">
        <ele>41.193000793457</ele>
        <time>2011-04-17T07:55:25Z</time>
      </trkpt>
      <trkpt lat="50.81408" lon="2.52815">
        <ele>41.408000946045</ele>
        <time>2011-04-17T07:55:30Z</time>
      </trkpt>
      <trkpt lat="50.8142" lon="2.52782">
        <ele>41.63399887085</ele>
        <time>2011-04-17T07:55:35Z</time>
      </trkpt>
      <trkpt lat="50.81414" lon="2.52704">
        <ele>41.564998626709</ele>
        <time>2011-04-17T07:55:43Z</time>
      </trkpt>
      <trkpt lat="50.81407" lon="2.52622">
        <ele>41.63399887085</ele>
        <time>2011-04-17T07:55:51Z</time>
      </trkpt>
      <trkpt lat="50.81404" lon="2.52591">
        <ele>41.553001403809</ele>
        <time>2011-04-17T07:55:54Z</time>
      </trkpt>
      <trkpt lat="50.81396" lon="2.52498">
        <ele>39.423000335693</ele>
        <time>2011-04-17T07:56:02Z</time>
      </trkpt>
      <trkpt lat="50.81393" lon="2.52472">
        <ele>38.647998809814</ele>
        <time>2011-04-17T07:56:04Z</time>
      </trkpt>
      <trkpt lat="50.8139" lon="2.52445">
        <ele>37.666000366211</ele>
        <time>2011-04-17T07:56:06Z</time>
      </trkpt>
      <trkpt lat="50.81371" lon="2.52387">
        <ele>35.993000030518</ele>
        <time>2011-04-17T07:56:11Z</time>
      </trkpt>
      <trkpt lat="50.81363" lon="2.52367">
        <ele>35.029998779297</ele>
        <time>2011-04-17T07:56:13Z</time>
      </trkpt>
      <trkpt lat="50.81353" lon="2.52344">
        <ele>33.370998382568</ele>
        <time>2011-04-17T07:56:17Z</time>
      </trkpt>
      <trkpt lat="50.81351" lon="2.52337">
        <ele>33.290000915527</ele>
        <time>2011-04-17T07:56:19Z</time>
      </trkpt>
      <trkpt lat="50.81333" lon="2.52297">
        <ele>33.51900100708</ele>
        <time>2011-04-17T07:56:25Z</time>
      </trkpt>
      <trkpt lat="50.8132" lon="2.52267">
        <ele>32.868000030518</ele>
        <time>2011-04-17T07:56:29Z</time>
      </trkpt>
      <trkpt lat="50.81311" lon="2.5224">
        <ele>32.102001190186</ele>
        <time>2011-04-17T07:56:33Z</time>
      </trkpt>
      <trkpt lat="50.81298" lon="2.52213">
        <ele>32.012001037598</ele>
        <time>2011-04-17T07:56:37Z</time>
      </trkpt>
      <trkpt lat="50.8127" lon="2.52164">
        <ele>31.457000732422</ele>
        <time>2011-04-17T07:56:44Z</time>
      </trkpt>
      <trkpt lat="50.81248" lon="2.52126">
        <ele>29.433000564575</ele>
        <time>2011-04-17T07:56:49Z</time>
      </trkpt>
      <trkpt lat="50.8124" lon="2.52115">
        <ele>28.246999740601</ele>
        <time>2011-04-17T07:56:52Z</time>
      </trkpt>
      <trkpt lat="50.81232" lon="2.52096">
        <ele>28.160999298096</ele>
        <time>2011-04-17T07:56:57Z</time>
      </trkpt>
      <trkpt lat="50.8123" lon="2.5209">
        <ele>28.525999069214</ele>
        <time>2011-04-17T07:56:58Z</time>
      </trkpt>
      <trkpt lat="50.81214" lon="2.52045">
        <ele>29.551000595093</ele>
        <time>2011-04-17T07:57:04Z</time>
      </trkpt>
      <trkpt lat="50.81208" lon="2.52027">
        <ele>29.805000305176</ele>
        <time>2011-04-17T07:57:06Z</time>
      </trkpt>
      <trkpt lat="50.81195" lon="2.51996">
        <ele>30.575000762939</ele>
        <time>2011-04-17T07:57:10Z</time>
      </trkpt>
      <trkpt lat="50.81174" lon="2.51954">
        <ele>31.82799911499</ele>
        <time>2011-04-17T07:57:17Z</time>
      </trkpt>
      <trkpt lat="50.81153" lon="2.51921">
        <ele>33.164001464844</ele>
        <time>2011-04-17T07:57:24Z</time>
      </trkpt>
      <trkpt lat="50.81128" lon="2.51879">
        <ele>34.784999847412</ele>
        <time>2011-04-17T07:57:32Z</time>
      </trkpt>
      <trkpt lat="50.81103" lon="2.51832">
        <ele>36.228000640869</ele>
        <time>2011-04-17T07:57:40Z</time>
      </trkpt>
      <trkpt lat="50.81084" lon="2.51786">
        <ele>37.518001556396</ele>
        <time>2011-04-17T07:57:48Z</time>
      </trkpt>
      <trkpt lat="50.81063" lon="2.51728">
        <ele>39.25899887085</ele>
        <time>2011-04-17T07:57:58Z</time>
      </trkpt>
      <trkpt lat="50.81039" lon="2.51662">
        <ele>41.377998352051</ele>
        <time>2011-04-17T07:58:09Z</time>
      </trkpt>
      <trkpt lat="50.81016" lon="2.51602">
        <ele>43.15299987793</ele>
        <time>2011-04-17T07:58:19Z</time>
      </trkpt>
      <trkpt lat="50.8099" lon="2.51532">
        <ele>45.09700012207</ele>
        <time>2011-04-17T07:58:31Z</time>
      </trkpt>
      <trkpt lat="50.80983" lon="2.51515">
        <ele>45.666999816895</ele>
        <time>2011-04-17T07:58:34Z</time>
      </trkpt>
      <trkpt lat="50.80969" lon="2.51509">
        <ele>46.457000732422</ele>
        <time>2011-04-17T07:58:38Z</time>
      </trkpt>
      <trkpt lat="50.80963" lon="2.51519">
        <ele>46.751998901367</ele>
        <time>2011-04-17T07:58:40Z</time>
      </trkpt>
      <trkpt lat="50.80932" lon="2.51573">
        <ele>47.104999542236</ele>
        <time>2011-04-17T07:58:48Z</time>
      </trkpt>
      <trkpt lat="50.8089" lon="2.51637">
        <ele>45.988998413086</ele>
        <time>2011-04-17T07:58:56Z</time>
      </trkpt>
      <trkpt lat="50.80853" lon="2.51697">
        <ele>43.963001251221</ele>
        <time>2011-04-17T07:59:02Z</time>
      </trkpt>
      <trkpt lat="50.80807" lon="2.51773">
        <ele>40.409000396729</ele>
        <time>2011-04-17T07:59:09Z</time>
      </trkpt>
      <trkpt lat="50.80775" lon="2.51818">
        <ele>38.585998535156</ele>
        <time>2011-04-17T07:59:14Z</time>
      </trkpt>
      <trkpt lat="50.80769" lon="2.51825">
        <ele>38.293998718262</ele>
        <time>2011-04-17T07:59:15Z</time>
      </trkpt>
      <trkpt lat="50.80753" lon="2.51844">
        <ele>38.32799911499</ele>
        <time>2011-04-17T07:59:18Z</time>
      </trkpt>
      <trkpt lat="50.80721" lon="2.51863">
        <ele>39.618999481201</ele>
        <time>2011-04-17T07:59:24Z</time>
      </trkpt>
      <trkpt lat="50.80677" lon="2.51889">
        <ele>40.98099899292</ele>
        <time>2011-04-17T07:59:32Z</time>
      </trkpt>
      <trkpt lat="50.80631" lon="2.5192">
        <ele>42.830001831055</ele>
        <time>2011-04-17T07:59:41Z</time>
      </trkpt>
      <trkpt lat="50.80576" lon="2.5195">
        <ele>43.514999389648</ele>
        <time>2011-04-17T07:59:51Z</time>
      </trkpt>
      <trkpt lat="50.8053" lon="2.51969">
        <ele>44.004001617432</ele>
        <time>2011-04-17T07:59:59Z</time>
      </trkpt>
      <trkpt lat="50.80499" lon="2.51981">
        <ele>44.026000976562</ele>
        <time>2011-04-17T08:00:04Z</time>
      </trkpt>
      <trkpt lat="50.80473" lon="2.51974">
        <ele>43.436000823975</ele>
        <time>2011-04-17T08:00:08Z</time>
      </trkpt>
      <trkpt lat="50.80464" lon="2.51958">
        <ele>43.507999420166</ele>
        <time>2011-04-17T08:00:10Z</time>
      </trkpt>
      <trkpt lat="50.80458" lon="2.51941">
        <ele>43.97200012207</ele>
        <time>2011-04-17T08:00:12Z</time>
      </trkpt>
      <trkpt lat="50.80446" lon="2.51932">
        <ele>44.662998199463</ele>
        <time>2011-04-17T08:00:15Z</time>
      </trkpt>
      <trkpt lat="50.80436" lon="2.51938">
        <ele>45.497001647949</ele>
        <time>2011-04-17T08:00:18Z</time>
      </trkpt>
      <trkpt lat="50.80428" lon="2.51944">
        <ele>45.479999542236</ele>
        <time>2011-04-17T08:00:20Z</time>
      </trkpt>
      <trkpt lat="50.80397" lon="2.51965">
        <ele>45.312999725342</ele>
        <time>2011-04-17T08:00:27Z</time>
      </trkpt>
      <trkpt lat="50.80342" lon="2.52005">
        <ele>43.768001556396</ele>
        <time>2011-04-17T08:00:37Z</time>
      </trkpt>
      <trkpt lat="50.80323" lon="2.52018">
        <ele>42.610000610352</ele>
        <time>2011-04-17T08:00:41Z</time>
      </trkpt>
      <trkpt lat="50.80318" lon="2.52005">
        <ele>41.986000061035</ele>
        <time>2011-04-17T08:00:45Z</time>
      </trkpt>
      <trkpt lat="50.80316" lon="2.51981">
        <ele>42.792999267578</ele>
        <time>2011-04-17T08:00:49Z</time>
      </trkpt>
      <trkpt lat="50.80304" lon="2.51917">
        <ele>44.612998962402</ele>
        <time>2011-04-17T08:00:58Z</time>
      </trkpt>
      <trkpt lat="50.80285" lon="2.51836">
        <ele>45.958999633789</ele>
        <time>2011-04-17T08:01:09Z</time>
      </trkpt>
      <trkpt lat="50.80284" lon="2.51829">
        <ele>45.999000549316</ele>
        <time>2011-04-17T08:01:10Z</time>
      </trkpt>
      <trkpt lat="50.80282" lon="2.51774">
        <ele>47.242000579834</ele>
        <time>2011-04-17T08:01:17Z</time>
      </trkpt>
      <trkpt lat="50.80288" lon="2.51726">
        <ele>47.924999237061</ele>
        <time>2011-04-17T08:01:23Z</time>
      </trkpt>
      <trkpt lat="50.80297" lon="2.5169">
        <ele>48.783000946045</ele>
        <time>2011-04-17T08:01:28Z</time>
      </trkpt>
      <trkpt lat="50.80307" lon="2.51645">
        <ele>50.881999969482</ele>
        <time>2011-04-17T08:01:36Z</time>
      </trkpt>
      <trkpt lat="50.80308" lon="2.51641">
        <ele>51.182998657227</ele>
        <time>2011-04-17T08:01:37Z</time>
      </trkpt>
      <trkpt lat="50.80303" lon="2.51635">
        <ele>52.387001037598</ele>
        <time>2011-04-17T08:01:41Z</time>
      </trkpt>
      <trkpt lat="50.80277" lon="2.51648">
        <ele>52.68399810791</ele>
        <time>2011-04-17T08:01:48Z</time>
      </trkpt>
      <trkpt lat="50.80248" lon="2.5166">
        <ele>51.044998168945</ele>
        <time>2011-04-17T08:01:53Z</time>
      </trkpt>
      <trkpt lat="50.80202" lon="2.51672">
        <ele>48.712001800537</ele>
        <time>2011-04-17T08:01:59Z</time>
      </trkpt>
      <trkpt lat="50.80135" lon="2.51685">
        <ele>46.486000061035</ele>
        <time>2011-04-17T08:02:07Z</time>
      </trkpt>
      <trkpt lat="50.80079" lon="2.51694">
        <ele>45.235000610352</ele>
        <time>2011-04-17T08:02:14Z</time>
      </trkpt>
      <trkpt lat="50.80072" lon="2.51695">
        <ele>44.895000457764</ele>
        <time>2011-04-17T08:02:15Z</time>
      </trkpt>
      <trkpt lat="50.80051" lon="2.51677">
        <ele>44.111000061035</ele>
        <time>2011-04-17T08:02:19Z</time>
      </trkpt>
      <trkpt lat="50.80024" lon="2.51629">
        <ele>44.623001098633</ele>
        <time>2011-04-17T08:02:26Z</time>
      </trkpt>
      <trkpt lat="50.79996" lon="2.51576">
        <ele>42.001998901367</ele>
        <time>2011-04-17T08:02:32Z</time>
      </trkpt>
      <trkpt lat="50.7997" lon="2.51529">
        <ele>42.430999755859</ele>
        <time>2011-04-17T08:02:38Z</time>
      </trkpt>
      <trkpt lat="50.79957" lon="2.51499">
        <ele>43.930999755859</ele>
        <time>2011-04-17T08:02:43Z</time>
      </trkpt>
      <trkpt lat="50.79942" lon="2.5146">
        <ele>46.042999267578</ele>
        <time>2011-04-17T08:02:51Z</time>
      </trkpt>
      <trkpt lat="50.79942" lon="2.51442">
        <ele>46.846000671387</ele>
        <time>2011-04-17T08:02:55Z</time>
      </trkpt>
      <trkpt lat="50.79952" lon="2.51422">
        <ele>47.681999206543</ele>
        <time>2011-04-17T08:03:00Z</time>
      </trkpt>
      <trkpt lat="50.79969" lon="2.51395">
        <ele>49.897998809814</ele>
        <time>2011-04-17T08:03:08Z</time>
      </trkpt>
      <trkpt lat="50.79989" lon="2.51365">
        <ele>51.978000640869</ele>
        <time>2011-04-17T08:03:17Z</time>
      </trkpt>
      <trkpt lat="50.80005" lon="2.51339">
        <ele>52.937000274658</ele>
        <time>2011-04-17T08:03:24Z</time>
      </trkpt>
      <trkpt lat="50.80025" lon="2.51309">
        <ele>54.645999908447</ele>
        <time>2011-04-17T08:03:33Z</time>
      </trkpt>
      <trkpt lat="50.80043" lon="2.51283">
        <ele>56.522998809814</ele>
        <time>2011-04-17T08:03:41Z</time>
      </trkpt>
      <trkpt lat="50.80062" lon="2.51254">
        <ele>58.712001800537</ele>
        <time>2011-04-17T08:03:51Z</time>
      </trkpt>
      <trkpt lat="50.8008" lon="2.51228">
        <ele>60.96900177002</ele>
        <time>2011-04-17T08:04:00Z</time>
      </trkpt>
      <trkpt lat="50.80093" lon="2.51205">
        <ele>62.888999938965</ele>
        <time>2011-04-17T08:04:08Z</time>
      </trkpt>
      <trkpt lat="50.801" lon="2.51184">
        <ele>64.074996948242</ele>
        <time>2011-04-17T08:04:14Z</time>
      </trkpt>
      <trkpt lat="50.8011" lon="2.51151">
        <ele>66.563003540039</ele>
        <time>2011-04-17T08:04:23Z</time>
      </trkpt>
      <trkpt lat="50.80122" lon="2.51127">
        <ele>68.791999816895</ele>
        <time>2011-04-17T08:04:31Z</time>
      </trkpt>
      <trkpt lat="50.80133" lon="2.51124">
        <ele>70.190002441406</ele>
        <time>2011-04-17T08:04:36Z</time>
      </trkpt>
      <trkpt lat="50.80147" lon="2.51133">
        <ele>72.404998779297</ele>
        <time>2011-04-17T08:04:43Z</time>
      </trkpt>
      <trkpt lat="50.80162" lon="2.51151">
        <ele>73.15599822998</ele>
        <time>2011-04-17T08:04:50Z</time>
      </trkpt>
      <trkpt lat="50.8018" lon="2.51165">
        <ele>73.736000061035</ele>
        <time>2011-04-17T08:04:57Z</time>
      </trkpt>
      <trkpt lat="50.80195" lon="2.51171">
        <ele>74.930000305176</ele>
        <time>2011-04-17T08:05:03Z</time>
      </trkpt>
      <trkpt lat="50.80219" lon="2.51172">
        <ele>76.428001403809</ele>
        <time>2011-04-17T08:05:12Z</time>
      </trkpt>
      <trkpt lat="50.80223" lon="2.51169">
        <ele>76.646003723145</ele>
        <time>2011-04-17T08:05:14Z</time>
      </trkpt>
      <trkpt lat="50.80221" lon="2.51152">
        <ele>77.589996337891</ele>
        <time>2011-04-17T08:05:19Z</time>
      </trkpt>
      <trkpt lat="50.80219" lon="2.51141">
        <ele>78.26000213623</ele>
        <time>2011-04-17T08:05:22Z</time>
      </trkpt>
      <trkpt lat="50.80218" lon="2.51115">
        <ele>79.372001647949</ele>
        <time>2011-04-17T08:05:29Z</time>
      </trkpt>
      <trkpt lat="50.80217" lon="2.51092">
        <ele>81.408996582031</ele>
        <time>2011-04-17T08:05:36Z</time>
      </trkpt>
      <trkpt lat="50.80211" lon="2.51068">
        <ele>83.785003662109</ele>
        <time>2011-04-17T08:05:44Z</time>
      </trkpt>
      <trkpt lat="50.80208" lon="2.51045">
        <ele>85.471000671387</ele>
        <time>2011-04-17T08:05:51Z</time>
      </trkpt>
      <trkpt lat="50.80205" lon="2.51032">
        <ele>86.041999816895</ele>
        <time>2011-04-17T08:05:56Z</time>
      </trkpt>
      <trkpt lat="50.802" lon="2.51013">
        <ele>87.513000488281</ele>
        <time>2011-04-17T08:06:02Z</time>
      </trkpt>
      <trkpt lat="50.80192" lon="2.50995">
        <ele>90.476997375488</ele>
        <time>2011-04-17T08:06:09Z</time>
      </trkpt>
      <trkpt lat="50.80186" lon="2.50974">
        <ele>92.362998962402</ele>
        <time>2011-04-17T08:06:16Z</time>
      </trkpt>
      <trkpt lat="50.80183" lon="2.50957">
        <ele>93.180999755859</ele>
        <time>2011-04-17T08:06:21Z</time>
      </trkpt>
      <trkpt lat="50.80177" lon="2.50946">
        <ele>93.824996948242</ele>
        <time>2011-04-17T08:06:25Z</time>
      </trkpt>
      <trkpt lat="50.80165" lon="2.50929">
        <ele>94.171997070312</ele>
        <time>2011-04-17T08:06:30Z</time>
      </trkpt>
      <trkpt lat="50.80157" lon="2.50912">
        <ele>93.817001342773</ele>
        <time>2011-04-17T08:06:34Z</time>
      </trkpt>
      <trkpt lat="50.80152" lon="2.50888">
        <ele>95.355003356934</ele>
        <time>2011-04-17T08:06:40Z</time>
      </trkpt>
      <trkpt lat="50.8015" lon="2.50868">
        <ele>96.406997680664</ele>
        <time>2011-04-17T08:06:45Z</time>
      </trkpt>
      <trkpt lat="50.8015" lon="2.50841">
        <ele>97.746002197266</ele>
        <time>2011-04-17T08:06:51Z</time>
      </trkpt>
      <trkpt lat="50.80149" lon="2.50814">
        <ele>98.59700012207</ele>
        <time>2011-04-17T08:06:56Z</time>
      </trkpt>
      <trkpt lat="50.80151" lon="2.50788">
        <ele>99.309997558594</ele>
        <time>2011-04-17T08:07:01Z</time>
      </trkpt>
      <trkpt lat="50.8016" lon="2.50761">
        <ele>99.795997619629</ele>
        <time>2011-04-17T08:07:06Z</time>
      </trkpt>
      <trkpt lat="50.80161" lon="2.5073">
        <ele>100.91600036621</ele>
        <time>2011-04-17T08:07:10Z</time>
      </trkpt>
      <trkpt lat="50.8016" lon="2.50722">
        <ele>101.10099792481</ele>
        <time>2011-04-17T08:07:11Z</time>
      </trkpt>
      <trkpt lat="50.80155" lon="2.50686">
        <ele>101.82800292969</ele>
        <time>2011-04-17T08:07:17Z</time>
      </trkpt>
      <trkpt lat="50.80148" lon="2.50658">
        <ele>102.42400360107</ele>
        <time>2011-04-17T08:07:22Z</time>
      </trkpt>
      <trkpt lat="50.80143" lon="2.5063">
        <ele>103.19499969482</ele>
        <time>2011-04-17T08:07:27Z</time>
      </trkpt>
      <trkpt lat="50.80141" lon="2.50595">
        <ele>104.55699920654</ele>
        <time>2011-04-17T08:07:33Z</time>
      </trkpt>
      <trkpt lat="50.80139" lon="2.50571">
        <ele>106.07499694824</ele>
        <time>2011-04-17T08:07:38Z</time>
      </trkpt>
      <trkpt lat="50.80136" lon="2.50551">
        <ele>107.27400207519</ele>
        <time>2011-04-17T08:07:42Z</time>
      </trkpt>
      <trkpt lat="50.80132" lon="2.50538">
        <ele>107.45700073242</ele>
        <time>2011-04-17T08:07:44Z</time>
      </trkpt>
      <trkpt lat="50.80118" lon="2.50512">
        <ele>106.59100341797</ele>
        <time>2011-04-17T08:07:48Z</time>
      </trkpt>
      <trkpt lat="50.80103" lon="2.50461">
        <ele>106.27899932861</ele>
        <time>2011-04-17T08:07:54Z</time>
      </trkpt>
      <trkpt lat="50.80097" lon="2.50432">
        <ele>106.17500305176</ele>
        <time>2011-04-17T08:07:58Z</time>
      </trkpt>
      <trkpt lat="50.80099" lon="2.50405">
        <ele>106.21099853516</ele>
        <time>2011-04-17T08:08:02Z</time>
      </trkpt>
      <trkpt lat="50.80102" lon="2.50368">
        <ele>105.18399810791</ele>
        <time>2011-04-17T08:08:06Z</time>
      </trkpt>
      <trkpt lat="50.80106" lon="2.50339">
        <ele>102.55400085449</ele>
        <time>2011-04-17T08:08:09Z</time>
      </trkpt>
      <trkpt lat="50.80104" lon="2.50325">
        <ele>100.19499969482</ele>
        <time>2011-04-17T08:08:13Z</time>
      </trkpt>
      <trkpt lat="50.80091" lon="2.50323">
        <ele>102.09300231934</ele>
        <time>2011-04-17T08:08:18Z</time>
      </trkpt>
      <trkpt lat="50.80078" lon="2.50321">
        <ele>103.94200134277</ele>
        <time>2011-04-17T08:08:23Z</time>
      </trkpt>
      <trkpt lat="50.80071" lon="2.5032">
        <ele>104.00099945068</ele>
        <time>2011-04-17T08:08:25Z</time>
      </trkpt>
      <trkpt lat="50.80047" lon="2.50318">
        <ele>104.37400054932</ele>
        <time>2011-04-17T08:08:31Z</time>
      </trkpt>
      <trkpt lat="50.80043" lon="2.50317">
        <ele>104.37999725342</ele>
        <time>2011-04-17T08:08:32Z</time>
      </trkpt>
      <trkpt lat="50.80034" lon="2.50316">
        <ele>104.55200195312</ele>
        <time>2011-04-17T08:08:34Z</time>
      </trkpt>
      <trkpt lat="50.80017" lon="2.50324">
        <ele>105.14700317383</ele>
        <time>2011-04-17T08:08:38Z</time>
      </trkpt>
      <trkpt lat="50.80009" lon="2.50333">
        <ele>105.40899658203</ele>
        <time>2011-04-17T08:08:40Z</time>
      </trkpt>
      <trkpt lat="50.79993" lon="2.50353">
        <ele>105.56600189209</ele>
        <time>2011-04-17T08:08:44Z</time>
      </trkpt>
      <trkpt lat="50.79982" lon="2.50364">
        <ele>105.31199645996</ele>
        <time>2011-04-17T08:08:47Z</time>
      </trkpt>
      <trkpt lat="50.79959" lon="2.50373">
        <ele>102.94499969482</ele>
        <time>2011-04-17T08:08:51Z</time>
      </trkpt>
      <trkpt lat="50.79937" lon="2.50382">
        <ele>100.77700042725</ele>
        <time>2011-04-17T08:08:54Z</time>
      </trkpt>
      <trkpt lat="50.79916" lon="2.50395">
        <ele>99.889999389648</ele>
        <time>2011-04-17T08:08:57Z</time>
      </trkpt>
      <trkpt lat="50.79881" lon="2.50402">
        <ele>99.053001403809</ele>
        <time>2011-04-17T08:09:02Z</time>
      </trkpt>
      <trkpt lat="50.7986" lon="2.50399">
        <ele>96.587997436523</ele>
        <time>2011-04-17T08:09:05Z</time>
      </trkpt>
      <trkpt lat="50.7984" lon="2.5042">
        <ele>92.156997680664</ele>
        <time>2011-04-17T08:09:09Z</time>
      </trkpt>
      <trkpt lat="50.79837" lon="2.50431">
        <ele>91.827003479004</ele>
        <time>2011-04-17T08:09:10Z</time>
      </trkpt>
      <trkpt lat="50.79823" lon="2.50464">
        <ele>89.796997070312</ele>
        <time>2011-04-17T08:09:13Z</time>
      </trkpt>
      <trkpt lat="50.79815" lon="2.50495">
        <ele>89.652000427246</ele>
        <time>2011-04-17T08:09:16Z</time>
      </trkpt>
      <trkpt lat="50.79812" lon="2.50532">
        <ele>90.474998474121</ele>
        <time>2011-04-17T08:09:20Z</time>
      </trkpt>
      <trkpt lat="50.7981" lon="2.50553">
        <ele>90.888000488281</ele>
        <time>2011-04-17T08:09:22Z</time>
      </trkpt>
      <trkpt lat="50.79808" lon="2.50597">
        <ele>92.039001464844</ele>
        <time>2011-04-17T08:09:26Z</time>
      </trkpt>
      <trkpt lat="50.79815" lon="2.50631">
        <ele>92.828002929688</ele>
        <time>2011-04-17T08:09:29Z</time>
      </trkpt>
      <trkpt lat="50.79833" lon="2.5068">
        <ele>93.80899810791</ele>
        <time>2011-04-17T08:09:34Z</time>
      </trkpt>
      <trkpt lat="50.79853" lon="2.50725">
        <ele>94.475997924805</ele>
        <time>2011-04-17T08:09:40Z</time>
      </trkpt>
      <trkpt lat="50.79864" lon="2.50747">
        <ele>94.612998962402</ele>
        <time>2011-04-17T08:09:45Z</time>
      </trkpt>
      <trkpt lat="50.79872" lon="2.50758">
        <ele>95.203002929688</ele>
        <time>2011-04-17T08:09:49Z</time>
      </trkpt>
      <trkpt lat="50.79879" lon="2.50758">
        <ele>97.283996582031</ele>
        <time>2011-04-17T08:09:55Z</time>
      </trkpt>
      <trkpt lat="50.79884" lon="2.50752">
        <ele>98.755996704102</ele>
        <time>2011-04-17T08:10:00Z</time>
      </trkpt>
      <trkpt lat="50.79895" lon="2.50748">
        <ele>100.68599700928</ele>
        <time>2011-04-17T08:10:07Z</time>
      </trkpt>
      <trkpt lat="50.79903" lon="2.50746">
        <ele>102.26499938965</ele>
        <time>2011-04-17T08:10:12Z</time>
      </trkpt>
      <trkpt lat="50.79911" lon="2.50751">
        <ele>104.65000152588</ele>
        <time>2011-04-17T08:10:20Z</time>
      </trkpt>
      <trkpt lat="50.79914" lon="2.50755">
        <ele>105.66300201416</ele>
        <time>2011-04-17T08:10:23Z</time>
      </trkpt>
      <trkpt lat="50.79912" lon="2.50768">
        <ele>106.96299743652</ele>
        <time>2011-04-17T08:10:28Z</time>
      </trkpt>
      <trkpt lat="50.79904" lon="2.5079">
        <ele>106.66600036621</ele>
        <time>2011-04-17T08:10:33Z</time>
      </trkpt>
      <trkpt lat="50.79909" lon="2.50815">
        <ele>104.87599945068</ele>
        <time>2011-04-17T08:10:36Z</time>
      </trkpt>
      <trkpt lat="50.79913" lon="2.50825">
        <ele>104.44799804688</ele>
        <time>2011-04-17T08:10:37Z</time>
      </trkpt>
      <trkpt lat="50.7994" lon="2.50868">
        <ele>101.04399871826</ele>
        <time>2011-04-17T08:10:42Z</time>
      </trkpt>
      <trkpt lat="50.79947" lon="2.50875">
        <ele>100.56900024414</ele>
        <time>2011-04-17T08:10:43Z</time>
      </trkpt>
      <trkpt lat="50.79979" lon="2.509">
        <ele>98.486999511719</ele>
        <time>2011-04-17T08:10:48Z</time>
      </trkpt>
      <trkpt lat="50.79996" lon="2.50912">
        <ele>98.65299987793</ele>
        <time>2011-04-17T08:10:51Z</time>
      </trkpt>
      <trkpt lat="50.80006" lon="2.50922">
        <ele>98.490997314453</ele>
        <time>2011-04-17T08:10:53Z</time>
      </trkpt>
      <trkpt lat="50.80021" lon="2.50929">
        <ele>97.915000915527</ele>
        <time>2011-04-17T08:10:56Z</time>
      </trkpt>
      <trkpt lat="50.80045" lon="2.50933">
        <ele>97.955001831055</ele>
        <time>2011-04-17T08:11:01Z</time>
      </trkpt>
      <trkpt lat="50.80081" lon="2.50933">
        <ele>96.319000244141</ele>
        <time>2011-04-17T08:11:06Z</time>
      </trkpt>
      <trkpt lat="50.80095" lon="2.50936">
        <ele>96.53800201416</ele>
        <time>2011-04-17T08:11:08Z</time>
      </trkpt>
      <trkpt lat="50.80119" lon="2.50944">
        <ele>96.194999694824</ele>
        <time>2011-04-17T08:11:12Z</time>
      </trkpt>
      <trkpt lat="50.8013" lon="2.50949">
        <ele>95.623001098633</ele>
        <time>2011-04-17T08:11:14Z</time>
      </trkpt>
      <trkpt lat="50.80153" lon="2.5097">
        <ele>93.524002075195</ele>
        <time>2011-04-17T08:11:19Z</time>
      </trkpt>
      <trkpt lat="50.80167" lon="2.51004">
        <ele>91.856002807617</ele>
        <time>2011-04-17T08:11:23Z</time>
      </trkpt>
      <trkpt lat="50.80172" lon="2.51011">
        <ele>90.591003417969</ele>
        <time>2011-04-17T08:11:25Z</time>
      </trkpt>
      <trkpt lat="50.80178" lon="2.51033">
        <ele>89.957000732422</ele>
        <time>2011-04-17T08:11:30Z</time>
      </trkpt>
      <trkpt lat="50.80175" lon="2.51047">
        <ele>88.468002319336</ele>
        <time>2011-04-17T08:11:33Z</time>
      </trkpt>
      <trkpt lat="50.80172" lon="2.51045">
        <ele>87.814002990723</ele>
        <time>2011-04-17T08:11:34Z</time>
      </trkpt>
      <trkpt lat="50.80135" lon="2.51009">
        <ele>86.81600189209</ele>
        <time>2011-04-17T08:11:41Z</time>
      </trkpt>
      <trkpt lat="50.80093" lon="2.50984">
        <ele>86.603996276855</ele>
        <time>2011-04-17T08:11:47Z</time>
      </trkpt>
      <trkpt lat="50.8008" lon="2.50976">
        <ele>87.157997131348</ele>
        <time>2011-04-17T08:11:49Z</time>
      </trkpt>
      <trkpt lat="50.8006" lon="2.50984">
        <ele>87.771003723145</ele>
        <time>2011-04-17T08:11:53Z</time>
      </trkpt>
      <trkpt lat="50.80055" lon="2.50987">
        <ele>87.679000854492</ele>
        <time>2011-04-17T08:11:54Z</time>
      </trkpt>
      <trkpt lat="50.80048" lon="2.51012">
        <ele>85.026000976562</ele>
        <time>2011-04-17T08:11:58Z</time>
      </trkpt>
      <trkpt lat="50.8004" lon="2.51018">
        <ele>83.327003479004</ele>
        <time>2011-04-17T08:12:00Z</time>
      </trkpt>
      <trkpt lat="50.80035" lon="2.51018">
        <ele>83.063003540039</ele>
        <time>2011-04-17T08:12:01Z</time>
      </trkpt>
      <trkpt lat="50.80029" lon="2.51017">
        <ele>82.928001403809</ele>
        <time>2011-04-17T08:12:02Z</time>
      </trkpt>
      <trkpt lat="50.79995" lon="2.51001">
        <ele>82.18399810791</ele>
        <time>2011-04-17T08:12:07Z</time>
      </trkpt>
      <trkpt lat="50.79964" lon="2.50966">
        <ele>81.764999389648</ele>
        <time>2011-04-17T08:12:12Z</time>
      </trkpt>
      <trkpt lat="50.79938" lon="2.50937">
        <ele>80.998001098633</ele>
        <time>2011-04-17T08:12:16Z</time>
      </trkpt>
      <trkpt lat="50.79915" lon="2.50892">
        <ele>81.669998168945</ele>
        <time>2011-04-17T08:12:21Z</time>
      </trkpt>
      <trkpt lat="50.79893" lon="2.50862">
        <ele>82.858001708984</ele>
        <time>2011-04-17T08:12:26Z</time>
      </trkpt>
      <trkpt lat="50.79876" lon="2.50849">
        <ele>82.511001586914</ele>
        <time>2011-04-17T08:12:29Z</time>
      </trkpt>
      <trkpt lat="50.79846" lon="2.50812">
        <ele>80.402000427246</ele>
        <time>2011-04-17T08:12:34Z</time>
      </trkpt>
      <trkpt lat="50.79819" lon="2.50763">
        <ele>80.121002197266</ele>
        <time>2011-04-17T08:12:39Z</time>
      </trkpt>
      <trkpt lat="50.79804" lon="2.50733">
        <ele>80.5</ele>
        <time>2011-04-17T08:12:42Z</time>
      </trkpt>
      <trkpt lat="50.79779" lon="2.50673">
        <ele>81.68399810791</ele>
        <time>2011-04-17T08:12:48Z</time>
      </trkpt>
      <trkpt lat="50.79761" lon="2.50609">
        <ele>82.373001098633</ele>
        <time>2011-04-17T08:12:54Z</time>
      </trkpt>
      <trkpt lat="50.79753" lon="2.50569">
        <ele>81.484001159668</ele>
        <time>2011-04-17T08:12:58Z</time>
      </trkpt>
      <trkpt lat="50.7975" lon="2.50549">
        <ele>79.069000244141</ele>
        <time>2011-04-17T08:13:02Z</time>
      </trkpt>
      <trkpt lat="50.79752" lon="2.50546">
        <ele>78.777000427246</ele>
        <time>2011-04-17T08:13:03Z</time>
      </trkpt>
      <trkpt lat="50.79755" lon="2.50544">
        <ele>78.63200378418</ele>
        <time>2011-04-17T08:13:07Z</time>
      </trkpt>
      <trkpt lat="50.79755" lon="2.50538">
        <ele>77.317001342773</ele>
        <time>2011-04-17T08:13:12Z</time>
      </trkpt>
      <trkpt lat="50.7976" lon="2.5053">
        <ele>78.467002868652</ele>
        <time>2011-04-17T08:13:18Z</time>
      </trkpt>
      <trkpt lat="50.79763" lon="2.50519">
        <ele>78.36799621582</ele>
        <time>2011-04-17T08:13:22Z</time>
      </trkpt>
      <trkpt lat="50.79763" lon="2.50508">
        <ele>77.846000671387</ele>
        <time>2011-04-17T08:13:24Z</time>
      </trkpt>
      <trkpt lat="50.79765" lon="2.50494">
        <ele>77.585998535156</ele>
        <time>2011-04-17T08:13:26Z</time>
      </trkpt>
      <trkpt lat="50.79779" lon="2.50469">
        <ele>76.883003234863</ele>
        <time>2011-04-17T08:13:31Z</time>
      </trkpt>
      <trkpt lat="50.79787" lon="2.50456">
        <ele>78.524002075195</ele>
        <time>2011-04-17T08:13:34Z</time>
      </trkpt>
      <trkpt lat="50.79788" lon="2.50449">
        <ele>78.646003723145</ele>
        <time>2011-04-17T08:13:35Z</time>
      </trkpt>
      <trkpt lat="50.79792" lon="2.50435">
        <ele>78.524002075195</ele>
        <time>2011-04-17T08:13:37Z</time>
      </trkpt>
      <trkpt lat="50.79803" lon="2.50379">
        <ele>77.274002075195</ele>
        <time>2011-04-17T08:13:44Z</time>
      </trkpt>
      <trkpt lat="50.79805" lon="2.50375">
        <ele>77.136001586914</ele>
        <time>2011-04-17T08:13:45Z</time>
      </trkpt>
      <trkpt lat="50.79816" lon="2.50372">
        <ele>78.616996765137</ele>
        <time>2011-04-17T08:13:51Z</time>
      </trkpt>
      <trkpt lat="50.79819" lon="2.50373">
        <ele>80.736999511719</ele>
        <time>2011-04-17T08:13:56Z</time>
      </trkpt>
      <trkpt lat="50.79824" lon="2.50379">
        <ele>83.236000061035</ele>
        <time>2011-04-17T08:14:02Z</time>
      </trkpt>
      <trkpt lat="50.79828" lon="2.50382">
        <ele>83.605003356934</ele>
        <time>2011-04-17T08:14:04Z</time>
      </trkpt>
      <trkpt lat="50.79836" lon="2.50373">
        <ele>83.543998718262</ele>
        <time>2011-04-17T08:14:10Z</time>
      </trkpt>
      <trkpt lat="50.79849" lon="2.50348">
        <ele>82.156997680664</ele>
        <time>2011-04-17T08:14:16Z</time>
      </trkpt>
      <trkpt lat="50.79853" lon="2.50345">
        <ele>82.050003051758</ele>
        <time>2011-04-17T08:14:17Z</time>
      </trkpt>
      <trkpt lat="50.79871" lon="2.50322">
        <ele>80.665000915527</ele>
        <time>2011-04-17T08:14:22Z</time>
      </trkpt>
      <trkpt lat="50.79866" lon="2.50308">
        <ele>78.664001464844</ele>
        <time>2011-04-17T08:14:26Z</time>
      </trkpt>
      <trkpt lat="50.7986" lon="2.50311">
        <ele>78.370002746582</ele>
        <time>2011-04-17T08:14:27Z</time>
      </trkpt>
      <trkpt lat="50.79853" lon="2.50314">
        <ele>77.695999145508</ele>
        <time>2011-04-17T08:14:28Z</time>
      </trkpt>
      <trkpt lat="50.79797" lon="2.50327">
        <ele>73.421997070312</ele>
        <time>2011-04-17T08:14:34Z</time>
      </trkpt>
      <trkpt lat="50.79789" lon="2.50327">
        <ele>72.703002929688</ele>
        <time>2011-04-17T08:14:35Z</time>
      </trkpt>
      <trkpt lat="50.79776" lon="2.50323">
        <ele>71.819000244141</ele>
        <time>2011-04-17T08:14:37Z</time>
      </trkpt>
      <trkpt lat="50.79756" lon="2.50316">
        <ele>69.800003051758</ele>
        <time>2011-04-17T08:14:41Z</time>
      </trkpt>
      <trkpt lat="50.79742" lon="2.50318">
        <ele>69.102996826172</ele>
        <time>2011-04-17T08:14:45Z</time>
      </trkpt>
      <trkpt lat="50.79737" lon="2.50313">
        <ele>68.936996459961</ele>
        <time>2011-04-17T08:14:47Z</time>
      </trkpt>
      <trkpt lat="50.79736" lon="2.50304">
        <ele>67.910003662109</ele>
        <time>2011-04-17T08:14:51Z</time>
      </trkpt>
      <trkpt lat="50.79734" lon="2.50288">
        <ele>67.27799987793</ele>
        <time>2011-04-17T08:14:57Z</time>
      </trkpt>
      <trkpt lat="50.79739" lon="2.50282">
        <ele>67.170997619629</ele>
        <time>2011-04-17T08:15:00Z</time>
      </trkpt>
      <trkpt lat="50.79748" lon="2.5028">
        <ele>67.668998718262</ele>
        <time>2011-04-17T08:15:05Z</time>
      </trkpt>
      <trkpt lat="50.79748" lon="2.50262">
        <ele>67.254997253418</ele>
        <time>2011-04-17T08:15:10Z</time>
      </trkpt>
      <trkpt lat="50.79751" lon="2.50252">
        <ele>67.095001220703</ele>
        <time>2011-04-17T08:15:14Z</time>
      </trkpt>
      <trkpt lat="50.79755" lon="2.50246">
        <ele>66.829002380371</ele>
        <time>2011-04-17T08:15:16Z</time>
      </trkpt>
      <trkpt lat="50.79768" lon="2.50219">
        <ele>65.896003723145</ele>
        <time>2011-04-17T08:15:22Z</time>
      </trkpt>
      <trkpt lat="50.79782" lon="2.502">
        <ele>65.856002807617</ele>
        <time>2011-04-17T08:15:28Z</time>
      </trkpt>
      <trkpt lat="50.79789" lon="2.50205">
        <ele>66.216003417969</ele>
        <time>2011-04-17T08:15:32Z</time>
      </trkpt>
      <trkpt lat="50.79796" lon="2.50213">
        <ele>66.832000732422</ele>
        <time>2011-04-17T08:15:36Z</time>
      </trkpt>
      <trkpt lat="50.79799" lon="2.50214">
        <ele>67.185997009277</ele>
        <time>2011-04-17T08:15:39Z</time>
      </trkpt>
      <trkpt lat="50.79806" lon="2.50213">
        <ele>67.866996765137</ele>
        <time>2011-04-17T08:15:43Z</time>
      </trkpt>
      <trkpt lat="50.79818" lon="2.50209">
        <ele>69.327003479004</ele>
        <time>2011-04-17T08:15:49Z</time>
      </trkpt>
      <trkpt lat="50.79827" lon="2.50204">
        <ele>70.602996826172</ele>
        <time>2011-04-17T08:15:54Z</time>
      </trkpt>
      <trkpt lat="50.79836" lon="2.50201">
        <ele>71.512001037598</ele>
        <time>2011-04-17T08:16:00Z</time>
      </trkpt>
      <trkpt lat="50.79845" lon="2.50194">
        <ele>72.606002807617</ele>
        <time>2011-04-17T08:16:05Z</time>
      </trkpt>
      <trkpt lat="50.79847" lon="2.50186">
        <ele>72.843002319336</ele>
        <time>2011-04-17T08:16:08Z</time>
      </trkpt>
      <trkpt lat="50.79853" lon="2.50175">
        <ele>72.440002441406</ele>
        <time>2011-04-17T08:16:13Z</time>
      </trkpt>
      <trkpt lat="50.79855" lon="2.50174">
        <ele>72.265998840332</ele>
        <time>2011-04-17T08:16:14Z</time>
      </trkpt>
      <trkpt lat="50.7987" lon="2.50157">
        <ele>71.134002685547</ele>
        <time>2011-04-17T08:16:19Z</time>
      </trkpt>
      <trkpt lat="50.79879" lon="2.50143">
        <ele>70.263999938965</ele>
        <time>2011-04-17T08:16:22Z</time>
      </trkpt>
      <trkpt lat="50.79883" lon="2.50132">
        <ele>70.28800201416</ele>
        <time>2011-04-17T08:16:24Z</time>
      </trkpt>
      <trkpt lat="50.79888" lon="2.50118">
        <ele>70.675003051758</ele>
        <time>2011-04-17T08:16:26Z</time>
      </trkpt>
      <trkpt lat="50.79898" lon="2.50086">
        <ele>71.876998901367</ele>
        <time>2011-04-17T08:16:31Z</time>
      </trkpt>
      <trkpt lat="50.79901" lon="2.50062">
        <ele>72.431999206543</ele>
        <time>2011-04-17T08:16:35Z</time>
      </trkpt>
      <trkpt lat="50.79903" lon="2.50055">
        <ele>72.388000488281</ele>
        <time>2011-04-17T08:16:36Z</time>
      </trkpt>
      <trkpt lat="50.79909" lon="2.50015">
        <ele>72.241996765137</ele>
        <time>2011-04-17T08:16:42Z</time>
      </trkpt>
      <trkpt lat="50.7991" lon="2.50009">
        <ele>71.91300201416</ele>
        <time>2011-04-17T08:16:43Z</time>
      </trkpt>
      <trkpt lat="50.79922" lon="2.49991">
        <ele>72.539001464844</ele>
        <time>2011-04-17T08:16:48Z</time>
      </trkpt>
      <trkpt lat="50.79933" lon="2.4998">
        <ele>73.502998352051</ele>
        <time>2011-04-17T08:16:52Z</time>
      </trkpt>
      <trkpt lat="50.79938" lon="2.49965">
        <ele>73.875</ele>
        <time>2011-04-17T08:16:56Z</time>
      </trkpt>
      <trkpt lat="50.79941" lon="2.49942">
        <ele>74.321998596191</ele>
        <time>2011-04-17T08:17:01Z</time>
      </trkpt>
      <trkpt lat="50.79942" lon="2.49921">
        <ele>74.564002990723</ele>
        <time>2011-04-17T08:17:05Z</time>
      </trkpt>
      <trkpt lat="50.79947" lon="2.49905">
        <ele>75.113998413086</ele>
        <time>2011-04-17T08:17:09Z</time>
      </trkpt>
      <trkpt lat="50.7995" lon="2.49902">
        <ele>75.599998474121</ele>
        <time>2011-04-17T08:17:11Z</time>
      </trkpt>
      <trkpt lat="50.79954" lon="2.4989">
        <ele>76.516998291016</ele>
        <time>2011-04-17T08:17:15Z</time>
      </trkpt>
      <trkpt lat="50.79953" lon="2.49876">
        <ele>77.607002258301</ele>
        <time>2011-04-17T08:17:20Z</time>
      </trkpt>
      <trkpt lat="50.79958" lon="2.49866">
        <ele>78.985000610352</ele>
        <time>2011-04-17T08:17:24Z</time>
      </trkpt>
      <trkpt lat="50.79966" lon="2.49862">
        <ele>80.236999511719</ele>
        <time>2011-04-17T08:17:28Z</time>
      </trkpt>
      <trkpt lat="50.79976" lon="2.49856">
        <ele>82.346000671387</ele>
        <time>2011-04-17T08:17:35Z</time>
      </trkpt>
      <trkpt lat="50.79984" lon="2.49852">
        <ele>84.140998840332</ele>
        <time>2011-04-17T08:17:40Z</time>
      </trkpt>
      <trkpt lat="50.79998" lon="2.49845">
        <ele>87.037002563477</ele>
        <time>2011-04-17T08:17:48Z</time>
      </trkpt>
      <trkpt lat="50.80009" lon="2.49838">
        <ele>88.518997192383</ele>
        <time>2011-04-17T08:17:54Z</time>
      </trkpt>
      <trkpt lat="50.80012" lon="2.49837">
        <ele>88.837997436523</ele>
        <time>2011-04-17T08:17:56Z</time>
      </trkpt>
      <trkpt lat="50.80013" lon="2.4983">
        <ele>89.491996765137</ele>
        <time>2011-04-17T08:18:00Z</time>
      </trkpt>
      <trkpt lat="50.80009" lon="2.498">
        <ele>90.343002319336</ele>
        <time>2011-04-17T08:18:07Z</time>
      </trkpt>
      <trkpt lat="50.8" lon="2.49766">
        <ele>91.322998046875</ele>
        <time>2011-04-17T08:18:15Z</time>
      </trkpt>
      <trkpt lat="50.79993" lon="2.49741">
        <ele>92.233001708984</ele>
        <time>2011-04-17T08:18:21Z</time>
      </trkpt>
      <trkpt lat="50.79985" lon="2.49716">
        <ele>94.142997741699</ele>
        <time>2011-04-17T08:18:28Z</time>
      </trkpt>
      <trkpt lat="50.79982" lon="2.49701">
        <ele>96.376998901367</ele>
        <time>2011-04-17T08:18:32Z</time>
      </trkpt>
      <trkpt lat="50.7997" lon="2.49684">
        <ele>97.804000854492</ele>
        <time>2011-04-17T08:18:38Z</time>
      </trkpt>
      <trkpt lat="50.79966" lon="2.49662">
        <ele>98.595001220703</ele>
        <time>2011-04-17T08:18:43Z</time>
      </trkpt>
      <trkpt lat="50.7996" lon="2.49636">
        <ele>99.452003479004</ele>
        <time>2011-04-17T08:18:49Z</time>
      </trkpt>
      <trkpt lat="50.79952" lon="2.49609">
        <ele>100.53600311279</ele>
        <time>2011-04-17T08:18:55Z</time>
      </trkpt>
      <trkpt lat="50.79938" lon="2.49576">
        <ele>102.2320022583</ele>
        <time>2011-04-17T08:19:03Z</time>
      </trkpt>
      <trkpt lat="50.79927" lon="2.49544">
        <ele>104.05999755859</ele>
        <time>2011-04-17T08:19:10Z</time>
      </trkpt>
      <trkpt lat="50.79921" lon="2.49523">
        <ele>104.95700073242</ele>
        <time>2011-04-17T08:19:15Z</time>
      </trkpt>
      <trkpt lat="50.7992" lon="2.49506">
        <ele>105.37999725342</ele>
        <time>2011-04-17T08:19:18Z</time>
      </trkpt>
      <trkpt lat="50.79913" lon="2.49468">
        <ele>104.89399719238</ele>
        <time>2011-04-17T08:19:23Z</time>
      </trkpt>
      <trkpt lat="50.7992" lon="2.49423">
        <ele>102.13300323486</ele>
        <time>2011-04-17T08:19:28Z</time>
      </trkpt>
      <trkpt lat="50.79931" lon="2.49418">
        <ele>101.04599761963</ele>
        <time>2011-04-17T08:19:30Z</time>
      </trkpt>
      <trkpt lat="50.79962" lon="2.49422">
        <ele>99.291999816895</ele>
        <time>2011-04-17T08:19:35Z</time>
      </trkpt>
      <trkpt lat="50.80014" lon="2.49425">
        <ele>97.75</ele>
        <time>2011-04-17T08:19:40Z</time>
      </trkpt>
      <trkpt lat="50.8003" lon="2.49419">
        <ele>97.139999389648</ele>
        <time>2011-04-17T08:19:42Z</time>
      </trkpt>
      <trkpt lat="50.80071" lon="2.49396">
        <ele>96.223999023438</ele>
        <time>2011-04-17T08:19:48Z</time>
      </trkpt>
      <trkpt lat="50.80091" lon="2.49374">
        <ele>96.48999786377</ele>
        <time>2011-04-17T08:19:52Z</time>
      </trkpt>
      <trkpt lat="50.80106" lon="2.49361">
        <ele>96.125999450684</ele>
        <time>2011-04-17T08:19:57Z</time>
      </trkpt>
      <trkpt lat="50.80107" lon="2.49361">
        <ele>95.944000244141</ele>
        <time>2011-04-17T08:19:58Z</time>
      </trkpt>
      <trkpt lat="50.8011" lon="2.4936">
        <ele>95.051002502441</ele>
        <time>2011-04-17T08:20:02Z</time>
      </trkpt>
      <trkpt lat="50.80119" lon="2.49363">
        <ele>95.277000427246</ele>
        <time>2011-04-17T08:20:07Z</time>
      </trkpt>
      <trkpt lat="50.80128" lon="2.4937">
        <ele>94.849998474121</ele>
        <time>2011-04-17T08:20:11Z</time>
      </trkpt>
      <trkpt lat="50.8013" lon="2.49369">
        <ele>94.49299621582</ele>
        <time>2011-04-17T08:20:14Z</time>
      </trkpt>
      <trkpt lat="50.8013" lon="2.49357">
        <ele>92.360000610352</ele>
        <time>2011-04-17T08:20:19Z</time>
      </trkpt>
      <trkpt lat="50.80132" lon="2.49346">
        <ele>90.523002624512</ele>
        <time>2011-04-17T08:20:23Z</time>
      </trkpt>
      <trkpt lat="50.80133" lon="2.49334">
        <ele>87.297996520996</ele>
        <time>2011-04-17T08:20:26Z</time>
      </trkpt>
      <trkpt lat="50.8014" lon="2.49327">
        <ele>85.470001220703</ele>
        <time>2011-04-17T08:20:29Z</time>
      </trkpt>
      <trkpt lat="50.80161" lon="2.49317">
        <ele>84.168998718262</ele>
        <time>2011-04-17T08:20:34Z</time>
      </trkpt>
      <trkpt lat="50.80193" lon="2.49314">
        <ele>83.016998291016</ele>
        <time>2011-04-17T08:20:39Z</time>
      </trkpt>
      <trkpt lat="50.80237" lon="2.49321">
        <ele>80.325996398926</ele>
        <time>2011-04-17T08:20:44Z</time>
      </trkpt>
      <trkpt lat="50.80246" lon="2.49321">
        <ele>79.877998352051</ele>
        <time>2011-04-17T08:20:45Z</time>
      </trkpt>
      <trkpt lat="50.80304" lon="2.49345">
        <ele>76.262001037598</ele>
        <time>2011-04-17T08:20:51Z</time>
      </trkpt>
      <trkpt lat="50.8031" lon="2.49352">
        <ele>75.607002258301</ele>
        <time>2011-04-17T08:20:52Z</time>
      </trkpt>
      <trkpt lat="50.80318" lon="2.49362">
        <ele>74.390998840332</ele>
        <time>2011-04-17T08:20:54Z</time>
      </trkpt>
      <trkpt lat="50.80326" lon="2.49354">
        <ele>73.099998474121</ele>
        <time>2011-04-17T08:20:57Z</time>
      </trkpt>
      <trkpt lat="50.8032" lon="2.49327">
        <ele>72.694000244141</ele>
        <time>2011-04-17T08:21:01Z</time>
      </trkpt>
      <trkpt lat="50.80317" lon="2.49321">
        <ele>72.815002441406</ele>
        <time>2011-04-17T08:21:02Z</time>
      </trkpt>
      <trkpt lat="50.80304" lon="2.49291">
        <ele>74.050003051758</ele>
        <time>2011-04-17T08:21:07Z</time>
      </trkpt>
      <trkpt lat="50.80301" lon="2.49263">
        <ele>73.865997314453</ele>
        <time>2011-04-17T08:21:11Z</time>
      </trkpt>
      <trkpt lat="50.80297" lon="2.49225">
        <ele>70.986999511719</ele>
        <time>2011-04-17T08:21:15Z</time>
      </trkpt>
      <trkpt lat="50.80292" lon="2.4921">
        <ele>69.15599822998</ele>
        <time>2011-04-17T08:21:18Z</time>
      </trkpt>
      <trkpt lat="50.80281" lon="2.49205">
        <ele>69.478996276855</ele>
        <time>2011-04-17T08:21:22Z</time>
      </trkpt>
      <trkpt lat="50.80277" lon="2.49204">
        <ele>69.781997680664</ele>
        <time>2011-04-17T08:21:23Z</time>
      </trkpt>
      <trkpt lat="50.80251" lon="2.49195">
        <ele>71.670997619629</ele>
        <time>2011-04-17T08:21:31Z</time>
      </trkpt>
      <trkpt lat="50.80226" lon="2.4919">
        <ele>74.095001220703</ele>
        <time>2011-04-17T08:21:39Z</time>
      </trkpt>
      <trkpt lat="50.80214" lon="2.49184">
        <ele>75.111000061035</ele>
        <time>2011-04-17T08:21:44Z</time>
      </trkpt>
      <trkpt lat="50.80199" lon="2.49174">
        <ele>76.457000732422</ele>
        <time>2011-04-17T08:21:51Z</time>
      </trkpt>
      <trkpt lat="50.80188" lon="2.49156">
        <ele>78.767997741699</ele>
        <time>2011-04-17T08:21:59Z</time>
      </trkpt>
      <trkpt lat="50.80185" lon="2.49143">
        <ele>80.408996582031</ele>
        <time>2011-04-17T08:22:05Z</time>
      </trkpt>
      <trkpt lat="50.80184" lon="2.4914">
        <ele>80.598999023438</ele>
        <time>2011-04-17T08:22:07Z</time>
      </trkpt>
      <trkpt lat="50.80182" lon="2.49123">
        <ele>82.188003540039</ele>
        <time>2011-04-17T08:22:14Z</time>
      </trkpt>
      <trkpt lat="50.8018" lon="2.49106">
        <ele>84.121002197266</ele>
        <time>2011-04-17T08:22:21Z</time>
      </trkpt>
      <trkpt lat="50.80177" lon="2.49085">
        <ele>86.291000366211</ele>
        <time>2011-04-17T08:22:30Z</time>
      </trkpt>
      <trkpt lat="50.80175" lon="2.49066">
        <ele>88.112998962402</ele>
        <time>2011-04-17T08:22:38Z</time>
      </trkpt>
      <trkpt lat="50.80175" lon="2.49056">
        <ele>89.789001464844</ele>
        <time>2011-04-17T08:22:43Z</time>
      </trkpt>
      <trkpt lat="50.80179" lon="2.49037">
        <ele>92.679000854492</ele>
        <time>2011-04-17T08:22:52Z</time>
      </trkpt>
      <trkpt lat="50.80178" lon="2.49022">
        <ele>95.11499786377</ele>
        <time>2011-04-17T08:22:59Z</time>
      </trkpt>
      <trkpt lat="50.80176" lon="2.49008">
        <ele>97.80899810791</ele>
        <time>2011-04-17T08:23:06Z</time>
      </trkpt>
      <trkpt lat="50.8017" lon="2.4899">
        <ele>100.94300079346</ele>
        <time>2011-04-17T08:23:16Z</time>
      </trkpt>
      <trkpt lat="50.80165" lon="2.48975">
        <ele>103.15799713135</ele>
        <time>2011-04-17T08:23:24Z</time>
      </trkpt>
      <trkpt lat="50.8016" lon="2.48958">
        <ele>105.61699676514</ele>
        <time>2011-04-17T08:23:33Z</time>
      </trkpt>
      <trkpt lat="50.80153" lon="2.48937">
        <ele>108.40299987793</ele>
        <time>2011-04-17T08:23:44Z</time>
      </trkpt>
      <trkpt lat="50.80147" lon="2.4892">
        <ele>111.36399841309</ele>
        <time>2011-04-17T08:23:53Z</time>
      </trkpt>
      <trkpt lat="50.80141" lon="2.48906">
        <ele>114.35399627685</ele>
        <time>2011-04-17T08:24:01Z</time>
      </trkpt>
      <trkpt lat="50.80134" lon="2.48891">
        <ele>117.56700134277</ele>
        <time>2011-04-17T08:24:10Z</time>
      </trkpt>
      <trkpt lat="50.80132" lon="2.4888">
        <ele>119.89499664307</ele>
        <time>2011-04-17T08:24:16Z</time>
      </trkpt>
      <trkpt lat="50.80134" lon="2.48862">
        <ele>123.53500366211</ele>
        <time>2011-04-17T08:24:25Z</time>
      </trkpt>
      <trkpt lat="50.80135" lon="2.48845">
        <ele>126.80899810791</ele>
        <time>2011-04-17T08:24:34Z</time>
      </trkpt>
      <trkpt lat="50.80135" lon="2.48839">
        <ele>128.04600524902</ele>
        <time>2011-04-17T08:24:37Z</time>
      </trkpt>
      <trkpt lat="50.80138" lon="2.48833">
        <ele>129.11199951172</ele>
        <time>2011-04-17T08:24:41Z</time>
      </trkpt>
      <trkpt lat="50.80148" lon="2.48819">
        <ele>130.30400085449</ele>
        <time>2011-04-17T08:24:50Z</time>
      </trkpt>
      <trkpt lat="50.80162" lon="2.48813">
        <ele>130.00399780273</ele>
        <time>2011-04-17T08:24:56Z</time>
      </trkpt>
      <trkpt lat="50.80189" lon="2.48807">
        <ele>129.02499389648</ele>
        <time>2011-04-17T08:25:03Z</time>
      </trkpt>
      <trkpt lat="50.80217" lon="2.4881">
        <ele>128.10499572754</ele>
        <time>2011-04-17T08:25:09Z</time>
      </trkpt>
      <trkpt lat="50.80238" lon="2.48801">
        <ele>127.01100158691</ele>
        <time>2011-04-17T08:25:14Z</time>
      </trkpt>
      <trkpt lat="50.80235" lon="2.48783">
        <ele>127.03700256348</ele>
        <time>2011-04-17T08:25:17Z</time>
      </trkpt>
      <trkpt lat="50.80223" lon="2.48765">
        <ele>128.66499328613</ele>
        <time>2011-04-17T08:25:22Z</time>
      </trkpt>
      <trkpt lat="50.8021" lon="2.48759">
        <ele>130.63200378418</ele>
        <time>2011-04-17T08:25:28Z</time>
      </trkpt>
      <trkpt lat="50.802" lon="2.48737">
        <ele>133.12399291992</ele>
        <time>2011-04-17T08:25:37Z</time>
      </trkpt>
      <trkpt lat="50.80192" lon="2.48715">
        <ele>135.15899658203</ele>
        <time>2011-04-17T08:25:45Z</time>
      </trkpt>
      <trkpt lat="50.80185" lon="2.48695">
        <ele>137.49600219727</ele>
        <time>2011-04-17T08:25:53Z</time>
      </trkpt>
      <trkpt lat="50.80178" lon="2.48681">
        <ele>139.30599975586</ele>
        <time>2011-04-17T08:25:59Z</time>
      </trkpt>
      <trkpt lat="50.80168" lon="2.48664">
        <ele>141.27000427246</ele>
        <time>2011-04-17T08:26:07Z</time>
      </trkpt>
      <trkpt lat="50.80159" lon="2.48653">
        <ele>142.2799987793</ele>
        <time>2011-04-17T08:26:14Z</time>
      </trkpt>
      <trkpt lat="50.80149" lon="2.48635">
        <ele>144.50799560547</ele>
        <time>2011-04-17T08:26:21Z</time>
      </trkpt>
      <trkpt lat="50.80141" lon="2.48621">
        <ele>146.4109954834</ele>
        <time>2011-04-17T08:26:28Z</time>
      </trkpt>
      <trkpt lat="50.80128" lon="2.48606">
        <ele>148.88299560547</ele>
        <time>2011-04-17T08:26:37Z</time>
      </trkpt>
      <trkpt lat="50.8012" lon="2.48598">
        <ele>150.17500305176</ele>
        <time>2011-04-17T08:26:42Z</time>
      </trkpt>
      <trkpt lat="50.80123" lon="2.48588">
        <ele>151.95199584961</ele>
        <time>2011-04-17T08:26:47Z</time>
      </trkpt>
      <trkpt lat="50.80127" lon="2.48588">
        <ele>152.73300170898</ele>
        <time>2011-04-17T08:26:49Z</time>
      </trkpt>
      <trkpt lat="50.80139" lon="2.4859">
        <ele>155.90699768066</ele>
        <time>2011-04-17T08:26:58Z</time>
      </trkpt>
      <trkpt lat="50.8014" lon="2.48582">
        <ele>157.39399719238</ele>
        <time>2011-04-17T08:27:03Z</time>
      </trkpt>
      <trkpt lat="50.80131" lon="2.4857">
        <ele>158.72900390625</ele>
        <time>2011-04-17T08:27:10Z</time>
      </trkpt>
      <trkpt lat="50.80119" lon="2.48559">
        <ele>160.05599975586</ele>
        <time>2011-04-17T08:27:18Z</time>
      </trkpt>
      <trkpt lat="50.80112" lon="2.48545">
        <ele>160.79100036621</ele>
        <time>2011-04-17T08:27:24Z</time>
      </trkpt>
      <trkpt lat="50.80113" lon="2.48523">
        <ele>160.95700073242</ele>
        <time>2011-04-17T08:27:30Z</time>
      </trkpt>
      <trkpt lat="50.80119" lon="2.48501">
        <ele>161.04699707031</ele>
        <time>2011-04-17T08:27:37Z</time>
      </trkpt>
      <trkpt lat="50.80126" lon="2.48482">
        <ele>161.15299987793</ele>
        <time>2011-04-17T08:27:43Z</time>
      </trkpt>
      <trkpt lat="50.80133" lon="2.48461">
        <ele>160.66600036621</ele>
        <time>2011-04-17T08:27:50Z</time>
      </trkpt>
      <trkpt lat="50.80134" lon="2.4844">
        <ele>159.98399353027</ele>
        <time>2011-04-17T08:27:57Z</time>
      </trkpt>
      <trkpt lat="50.80134" lon="2.4844">
        <ele>159.80299377441</ele>
        <time>2011-04-17T08:28:00Z</time>
      </trkpt>
      <trkpt lat="50.80133" lon="2.48437">
        <ele>159.91999816894</ele>
        <time>2011-04-17T08:28:10Z</time>
      </trkpt>
      <trkpt lat="50.80133" lon="2.48438">
        <ele>159.66000366211</ele>
        <time>2011-04-17T08:28:12Z</time>
      </trkpt>
      <trkpt lat="50.80136" lon="2.4843">
        <ele>161.87199401856</ele>
        <time>2011-04-17T08:33:32Z</time>
      </trkpt>
      <trkpt lat="50.80136" lon="2.48429">
        <ele>161.83200073242</ele>
        <time>2011-04-17T08:33:33Z</time>
      </trkpt>
      <trkpt lat="50.8014" lon="2.48428">
        <ele>161.625</ele>
        <time>2011-04-17T08:33:39Z</time>
      </trkpt>
      <trkpt lat="50.80141" lon="2.48428">
        <ele>161.74699401856</ele>
        <time>2011-04-17T08:33:40Z</time>
      </trkpt>
      <trkpt lat="50.80145" lon="2.48431">
        <ele>161.7559967041</ele>
        <time>2011-04-17T08:33:44Z</time>
      </trkpt>
      <trkpt lat="50.80154" lon="2.4843">
        <ele>162.00199890137</ele>
        <time>2011-04-17T08:33:50Z</time>
      </trkpt>
      <trkpt lat="50.80172" lon="2.48427">
        <ele>162.02200317383</ele>
        <time>2011-04-17T08:33:57Z</time>
      </trkpt>
      <trkpt lat="50.80185" lon="2.48418">
        <ele>160.26100158691</ele>
        <time>2011-04-17T08:34:02Z</time>
      </trkpt>
      <trkpt lat="50.8019" lon="2.48409">
        <ele>159.38200378418</ele>
        <time>2011-04-17T08:34:04Z</time>
      </trkpt>
      <trkpt lat="50.80198" lon="2.48391">
        <ele>157.42199707031</ele>
        <time>2011-04-17T08:34:07Z</time>
      </trkpt>
      <trkpt lat="50.80204" lon="2.48379">
        <ele>156.56300354004</ele>
        <time>2011-04-17T08:34:09Z</time>
      </trkpt>
      <trkpt lat="50.80213" lon="2.4836">
        <ele>154.60499572754</ele>
        <time>2011-04-17T08:34:13Z</time>
      </trkpt>
      <trkpt lat="50.80216" lon="2.48356">
        <ele>154.02299499512</ele>
        <time>2011-04-17T08:34:15Z</time>
      </trkpt>
      <trkpt lat="50.8022" lon="2.48354">
        <ele>152.89300537109</ele>
        <time>2011-04-17T08:34:18Z</time>
      </trkpt>
      <trkpt lat="50.80228" lon="2.48356">
        <ele>149.4109954834</ele>
        <time>2011-04-17T08:34:23Z</time>
      </trkpt>
      <trkpt lat="50.80232" lon="2.4835">
        <ele>147.83399963379</ele>
        <time>2011-04-17T08:34:26Z</time>
      </trkpt>
      <trkpt lat="50.80241" lon="2.48341">
        <ele>147.64999389648</ele>
        <time>2011-04-17T08:34:30Z</time>
      </trkpt>
      <trkpt lat="50.80245" lon="2.48342">
        <ele>147.42300415039</ele>
        <time>2011-04-17T08:34:31Z</time>
      </trkpt>
      <trkpt lat="50.8026" lon="2.48344">
        <ele>147.15899658203</ele>
        <time>2011-04-17T08:34:35Z</time>
      </trkpt>
      <trkpt lat="50.80271" lon="2.48353">
        <ele>146.35200500488</ele>
        <time>2011-04-17T08:34:38Z</time>
      </trkpt>
      <trkpt lat="50.80276" lon="2.48353">
        <ele>145.47799682617</ele>
        <time>2011-04-17T08:34:40Z</time>
      </trkpt>
      <trkpt lat="50.80279" lon="2.48343">
        <ele>144.86199951172</ele>
        <time>2011-04-17T08:34:42Z</time>
      </trkpt>
      <trkpt lat="50.8028" lon="2.48324">
        <ele>145.01499938965</ele>
        <time>2011-04-17T08:34:45Z</time>
      </trkpt>
      <trkpt lat="50.80285" lon="2.48292">
        <ele>145.36599731445</ele>
        <time>2011-04-17T08:34:50Z</time>
      </trkpt>
      <trkpt lat="50.80296" lon="2.48287">
        <ele>144.96299743652</ele>
        <time>2011-04-17T08:34:52Z</time>
      </trkpt>
      <trkpt lat="50.80317" lon="2.48288">
        <ele>143.13800048828</ele>
        <time>2011-04-17T08:34:55Z</time>
      </trkpt>
      <trkpt lat="50.80327" lon="2.48286">
        <ele>141.62800598144</ele>
        <time>2011-04-17T08:34:57Z</time>
      </trkpt>
      <trkpt lat="50.80364" lon="2.48288">
        <ele>136.86099243164</ele>
        <time>2011-04-17T08:35:02Z</time>
      </trkpt>
      <trkpt lat="50.80411" lon="2.48286">
        <ele>128.38600158691</ele>
        <time>2011-04-17T08:35:07Z</time>
      </trkpt>
      <trkpt lat="50.80458" lon="2.48285">
        <ele>117.79000091553</ele>
        <time>2011-04-17T08:35:12Z</time>
      </trkpt>
      <trkpt lat="50.80482" lon="2.48284">
        <ele>110.9940032959</ele>
        <time>2011-04-17T08:35:16Z</time>
      </trkpt>
      <trkpt lat="50.80486" lon="2.48283">
        <ele>109.54000091553</ele>
        <time>2011-04-17T08:35:17Z</time>
      </trkpt>
      <trkpt lat="50.80495" lon="2.48291">
        <ele>107.42199707031</ele>
        <time>2011-04-17T08:35:20Z</time>
      </trkpt>
      <trkpt lat="50.80497" lon="2.48302">
        <ele>107.51699829102</ele>
        <time>2011-04-17T08:35:22Z</time>
      </trkpt>
      <trkpt lat="50.80493" lon="2.4834">
        <ele>108.06199645996</ele>
        <time>2011-04-17T08:35:27Z</time>
      </trkpt>
      <trkpt lat="50.80485" lon="2.48365">
        <ele>108.84799957275</ele>
        <time>2011-04-17T08:35:31Z</time>
      </trkpt>
      <trkpt lat="50.80461" lon="2.48406">
        <ele>110.97200012207</ele>
        <time>2011-04-17T08:35:39Z</time>
      </trkpt>
      <trkpt lat="50.80449" lon="2.48439">
        <ele>111.62799835205</ele>
        <time>2011-04-17T08:35:45Z</time>
      </trkpt>
      <trkpt lat="50.80458" lon="2.4845">
        <ele>111.83999633789</ele>
        <time>2011-04-17T08:35:49Z</time>
      </trkpt>
      <trkpt lat="50.80473" lon="2.48458">
        <ele>109.74800109863</ele>
        <time>2011-04-17T08:35:54Z</time>
      </trkpt>
      <trkpt lat="50.80481" lon="2.48461">
        <ele>108.67700195312</ele>
        <time>2011-04-17T08:35:56Z</time>
      </trkpt>
      <trkpt lat="50.80492" lon="2.4846">
        <ele>106.87400054932</ele>
        <time>2011-04-17T08:36:00Z</time>
      </trkpt>
      <trkpt lat="50.80495" lon="2.48456">
        <ele>106.64900207519</ele>
        <time>2011-04-17T08:36:04Z</time>
      </trkpt>
      <trkpt lat="50.80497" lon="2.48442">
        <ele>109.1309967041</ele>
        <time>2011-04-17T08:36:10Z</time>
      </trkpt>
      <trkpt lat="50.80499" lon="2.48437">
        <ele>109.34899902344</ele>
        <time>2011-04-17T08:36:13Z</time>
      </trkpt>
      <trkpt lat="50.80497" lon="2.48422">
        <ele>109.56500244141</ele>
        <time>2011-04-17T08:36:18Z</time>
      </trkpt>
      <trkpt lat="50.80487" lon="2.48399">
        <ele>109.86799621582</ele>
        <time>2011-04-17T08:36:24Z</time>
      </trkpt>
      <trkpt lat="50.80486" lon="2.48396">
        <ele>109.74299621582</ele>
        <time>2011-04-17T08:36:25Z</time>
      </trkpt>
      <trkpt lat="50.80487" lon="2.48384">
        <ele>108.40399932861</ele>
        <time>2011-04-17T08:36:30Z</time>
      </trkpt>
      <trkpt lat="50.80497" lon="2.48375">
        <ele>104.22499847412</ele>
        <time>2011-04-17T08:36:35Z</time>
      </trkpt>
      <trkpt lat="50.805" lon="2.48374">
        <ele>103.66500091553</ele>
        <time>2011-04-17T08:36:36Z</time>
      </trkpt>
      <trkpt lat="50.80508" lon="2.48357">
        <ele>100.66300201416</ele>
        <time>2011-04-17T08:36:40Z</time>
      </trkpt>
      <trkpt lat="50.8051" lon="2.48321">
        <ele>101.48600006103</ele>
        <time>2011-04-17T08:36:46Z</time>
      </trkpt>
      <trkpt lat="50.80504" lon="2.48295">
        <ele>103.5059967041</ele>
        <time>2011-04-17T08:36:51Z</time>
      </trkpt>
      <trkpt lat="50.80503" lon="2.4829">
        <ele>103.77799987793</ele>
        <time>2011-04-17T08:36:52Z</time>
      </trkpt>
      <trkpt lat="50.80493" lon="2.48271">
        <ele>105.75</ele>
        <time>2011-04-17T08:36:57Z</time>
      </trkpt>
      <trkpt lat="50.80489" lon="2.48262">
        <ele>106.10500335693</ele>
        <time>2011-04-17T08:36:59Z</time>
      </trkpt>
      <trkpt lat="50.80481" lon="2.48226">
        <ele>105.42400360107</ele>
        <time>2011-04-17T08:37:04Z</time>
      </trkpt>
      <trkpt lat="50.80485" lon="2.48189">
        <ele>104.86399841309</ele>
        <time>2011-04-17T08:37:08Z</time>
      </trkpt>
      <trkpt lat="50.80487" lon="2.48178">
        <ele>104.66799926758</ele>
        <time>2011-04-17T08:37:09Z</time>
      </trkpt>
      <trkpt lat="50.80509" lon="2.48117">
        <ele>103.05000305176</ele>
        <time>2011-04-17T08:37:15Z</time>
      </trkpt>
      <trkpt lat="50.80532" lon="2.48081">
        <ele>102.1370010376</ele>
        <time>2011-04-17T08:37:19Z</time>
      </trkpt>
      <trkpt lat="50.80563" lon="2.48064">
        <ele>100.37899780273</ele>
        <time>2011-04-17T08:37:23Z</time>
      </trkpt>
      <trkpt lat="50.80587" lon="2.48082">
        <ele>99.138000488281</ele>
        <time>2011-04-17T08:37:26Z</time>
      </trkpt>
      <trkpt lat="50.80648" lon="2.48151">
        <ele>95.361000061035</ele>
        <time>2011-04-17T08:37:34Z</time>
      </trkpt>
      <trkpt lat="50.80653" lon="2.48158">
        <ele>94.846000671387</ele>
        <time>2011-04-17T08:37:35Z</time>
      </trkpt>
      <trkpt lat="50.80668" lon="2.48155">
        <ele>93.613998413086</ele>
        <time>2011-04-17T08:37:38Z</time>
      </trkpt>
      <trkpt lat="50.80673" lon="2.48146">
        <ele>92.960998535156</ele>
        <time>2011-04-17T08:37:39Z</time>
      </trkpt>
      <trkpt lat="50.80685" lon="2.48127">
        <ele>91.444999694824</ele>
        <time>2011-04-17T08:37:41Z</time>
      </trkpt>
      <trkpt lat="50.8074" lon="2.4808">
        <ele>88.622001647949</ele>
        <time>2011-04-17T08:37:47Z</time>
      </trkpt>
      <trkpt lat="50.80791" lon="2.48042">
        <ele>84.237998962402</ele>
        <time>2011-04-17T08:37:52Z</time>
      </trkpt>
      <trkpt lat="50.80827" lon="2.48041">
        <ele>80.206001281738</ele>
        <time>2011-04-17T08:37:56Z</time>
      </trkpt>
      <trkpt lat="50.80833" lon="2.48048">
        <ele>79.707000732422</ele>
        <time>2011-04-17T08:37:57Z</time>
      </trkpt>
      <trkpt lat="50.80873" lon="2.48108">
        <ele>76.593002319336</ele>
        <time>2011-04-17T08:38:03Z</time>
      </trkpt>
      <trkpt lat="50.80919" lon="2.48178">
        <ele>72.115997314453</ele>
        <time>2011-04-17T08:38:09Z</time>
      </trkpt>
      <trkpt lat="50.80933" lon="2.48197">
        <ele>71.525001525879</ele>
        <time>2011-04-17T08:38:11Z</time>
      </trkpt>
      <trkpt lat="50.80949" lon="2.4821">
        <ele>70.553001403809</ele>
        <time>2011-04-17T08:38:14Z</time>
      </trkpt>
      <trkpt lat="50.80958" lon="2.48205">
        <ele>68.958000183105</ele>
        <time>2011-04-17T08:38:16Z</time>
      </trkpt>
      <trkpt lat="50.80992" lon="2.48163">
        <ele>60.340000152588</ele>
        <time>2011-04-17T08:38:24Z</time>
      </trkpt>
      <trkpt lat="50.80994" lon="2.48159">
        <ele>59.102001190186</ele>
        <time>2011-04-17T08:38:25Z</time>
      </trkpt>
      <trkpt lat="50.81011" lon="2.48132">
        <ele>55.252998352051</ele>
        <time>2011-04-17T08:38:31Z</time>
      </trkpt>
      <trkpt lat="50.81013" lon="2.48126">
        <ele>54.95299911499</ele>
        <time>2011-04-17T08:38:32Z</time>
      </trkpt>
      <trkpt lat="50.81029" lon="2.4809">
        <ele>54.005001068115</ele>
        <time>2011-04-17T08:38:37Z</time>
      </trkpt>
      <trkpt lat="50.81044" lon="2.4808">
        <ele>51.785999298096</ele>
        <time>2011-04-17T08:38:41Z</time>
      </trkpt>
      <trkpt lat="50.8105" lon="2.48085">
        <ele>50.98099899292</ele>
        <time>2011-04-17T08:38:43Z</time>
      </trkpt>
      <trkpt lat="50.8106" lon="2.48087">
        <ele>50.65299987793</ele>
        <time>2011-04-17T08:38:47Z</time>
      </trkpt>
      <trkpt lat="50.81065" lon="2.48081">
        <ele>50.597999572754</ele>
        <time>2011-04-17T08:38:49Z</time>
      </trkpt>
      <trkpt lat="50.81098" lon="2.48051">
        <ele>50.027000427246</ele>
        <time>2011-04-17T08:38:57Z</time>
      </trkpt>
      <trkpt lat="50.81126" lon="2.48039">
        <ele>48.125999450684</ele>
        <time>2011-04-17T08:39:03Z</time>
      </trkpt>
      <trkpt lat="50.81138" lon="2.48035">
        <ele>47.504001617432</ele>
        <time>2011-04-17T08:39:06Z</time>
      </trkpt>
      <trkpt lat="50.81158" lon="2.48019">
        <ele>46.254001617432</ele>
        <time>2011-04-17T08:39:11Z</time>
      </trkpt>
      <trkpt lat="50.81196" lon="2.47992">
        <ele>45.276000976562</ele>
        <time>2011-04-17T08:39:19Z</time>
      </trkpt>
      <trkpt lat="50.81223" lon="2.47948">
        <ele>42.611999511719</ele>
        <time>2011-04-17T08:39:26Z</time>
      </trkpt>
      <trkpt lat="50.81227" lon="2.47941">
        <ele>41.867000579834</ele>
        <time>2011-04-17T08:39:27Z</time>
      </trkpt>
      <trkpt lat="50.81244" lon="2.4792">
        <ele>38.465000152588</ele>
        <time>2011-04-17T08:39:32Z</time>
      </trkpt>
      <trkpt lat="50.81255" lon="2.47906">
        <ele>36.900001525879</ele>
        <time>2011-04-17T08:39:38Z</time>
      </trkpt>
      <trkpt lat="50.81258" lon="2.47904">
        <ele>36.119998931885</ele>
        <time>2011-04-17T08:39:42Z</time>
      </trkpt>
      <trkpt lat="50.81258" lon="2.47904">
        <ele>35.803001403809</ele>
        <time>2011-04-17T08:39:43Z</time>
      </trkpt>
      <trkpt lat="50.81268" lon="2.47902">
        <ele>36.157001495361</ele>
        <time>2011-04-17T08:39:51Z</time>
      </trkpt>
      <trkpt lat="50.8128" lon="2.47898">
        <ele>36.188999176025</ele>
        <time>2011-04-17T08:39:59Z</time>
      </trkpt>
      <trkpt lat="50.81284" lon="2.47898">
        <ele>36.421001434326</ele>
        <time>2011-04-17T08:40:03Z</time>
      </trkpt>
      <trkpt lat="50.81293" lon="2.47898">
        <ele>36.712001800537</ele>
        <time>2011-04-17T08:40:10Z</time>
      </trkpt>
      <trkpt lat="50.81311" lon="2.47895">
        <ele>36.93399810791</ele>
        <time>2011-04-17T08:40:16Z</time>
      </trkpt>
      <trkpt lat="50.81338" lon="2.47895">
        <ele>36.936000823975</ele>
        <time>2011-04-17T08:40:23Z</time>
      </trkpt>
      <trkpt lat="50.81354" lon="2.47891">
        <ele>37.317001342773</ele>
        <time>2011-04-17T08:40:28Z</time>
      </trkpt>
      <trkpt lat="50.81363" lon="2.47887">
        <ele>37.265998840332</ele>
        <time>2011-04-17T08:40:31Z</time>
      </trkpt>
      <trkpt lat="50.81366" lon="2.47869">
        <ele>36.604000091553</ele>
        <time>2011-04-17T08:40:35Z</time>
      </trkpt>
      <trkpt lat="50.81367" lon="2.47833">
        <ele>34.220001220703</ele>
        <time>2011-04-17T08:40:40Z</time>
      </trkpt>
      <trkpt lat="50.81357" lon="2.47818">
        <ele>33.513000488281</ele>
        <time>2011-04-17T08:40:44Z</time>
      </trkpt>
      <trkpt lat="50.81328" lon="2.47814">
        <ele>33.983001708984</ele>
        <time>2011-04-17T08:40:51Z</time>
      </trkpt>
      <trkpt lat="50.81319" lon="2.47811">
        <ele>34.259998321533</ele>
        <time>2011-04-17T08:40:53Z</time>
      </trkpt>
      <trkpt lat="50.81282" lon="2.47789">
        <ele>36.089000701904</ele>
        <time>2011-04-17T08:41:02Z</time>
      </trkpt>
      <trkpt lat="50.81194" lon="2.47736">
        <ele>38.615001678467</ele>
        <time>2011-04-17T08:41:22Z</time>
      </trkpt>
      <trkpt lat="50.81158" lon="2.47716">
        <ele>39.748001098633</ele>
        <time>2011-04-17T08:41:31Z</time>
      </trkpt>
      <trkpt lat="50.81136" lon="2.47701">
        <ele>40.84400177002</ele>
        <time>2011-04-17T08:41:37Z</time>
      </trkpt>
      <trkpt lat="50.81097" lon="2.47674">
        <ele>42.333000183105</ele>
        <time>2011-04-17T08:41:47Z</time>
      </trkpt>
      <trkpt lat="50.81063" lon="2.47656">
        <ele>43.958999633789</ele>
        <time>2011-04-17T08:41:56Z</time>
      </trkpt>
      <trkpt lat="50.81056" lon="2.47654">
        <ele>44.423999786377</ele>
        <time>2011-04-17T08:41:58Z</time>
      </trkpt>
      <trkpt lat="50.81055" lon="2.47636">
        <ele>44.93399810791</ele>
        <time>2011-04-17T08:42:02Z</time>
      </trkpt>
      <trkpt lat="50.81063" lon="2.47604">
        <ele>46.20299911499</ele>
        <time>2011-04-17T08:42:08Z</time>
      </trkpt>
      <trkpt lat="50.81078" lon="2.47558">
        <ele>48.138000488281</ele>
        <time>2011-04-17T08:42:17Z</time>
      </trkpt>
      <trkpt lat="50.81079" lon="2.47552">
        <ele>48.323001861572</ele>
        <time>2011-04-17T08:42:18Z</time>
      </trkpt>
      <trkpt lat="50.81097" lon="2.47502">
        <ele>49.345001220703</ele>
        <time>2011-04-17T08:42:26Z</time>
      </trkpt>
      <trkpt lat="50.81113" lon="2.47452">
        <ele>49.833999633789</ele>
        <time>2011-04-17T08:42:33Z</time>
      </trkpt>
      <trkpt lat="50.81135" lon="2.47388">
        <ele>49.944999694824</ele>
        <time>2011-04-17T08:42:41Z</time>
      </trkpt>
      <trkpt lat="50.81161" lon="2.47311">
        <ele>49.222999572754</ele>
        <time>2011-04-17T08:42:50Z</time>
      </trkpt>
      <trkpt lat="50.81186" lon="2.47237">
        <ele>48.887001037598</ele>
        <time>2011-04-17T08:42:58Z</time>
      </trkpt>
      <trkpt lat="50.8121" lon="2.47162">
        <ele>47.893001556396</ele>
        <time>2011-04-17T08:43:05Z</time>
      </trkpt>
      <trkpt lat="50.81218" lon="2.47101">
        <ele>46.500999450684</ele>
        <time>2011-04-17T08:43:10Z</time>
      </trkpt>
      <trkpt lat="50.81222" lon="2.47051">
        <ele>44.930000305176</ele>
        <time>2011-04-17T08:43:14Z</time>
      </trkpt>
      <trkpt lat="50.81232" lon="2.47006">
        <ele>44.347999572754</ele>
        <time>2011-04-17T08:43:18Z</time>
      </trkpt>
      <trkpt lat="50.81239" lon="2.46987">
        <ele>44.42200088501</ele>
        <time>2011-04-17T08:43:20Z</time>
      </trkpt>
      <trkpt lat="50.81256" lon="2.46966">
        <ele>45.194999694824</ele>
        <time>2011-04-17T08:43:24Z</time>
      </trkpt>
      <trkpt lat="50.81261" lon="2.46962">
        <ele>45.381000518799</ele>
        <time>2011-04-17T08:43:25Z</time>
      </trkpt>
      <trkpt lat="50.81288" lon="2.46927">
        <ele>45.694000244141</ele>
        <time>2011-04-17T08:43:31Z</time>
      </trkpt>
      <trkpt lat="50.81297" lon="2.46917">
        <ele>45.609001159668</ele>
        <time>2011-04-17T08:43:33Z</time>
      </trkpt>
      <trkpt lat="50.81302" lon="2.46897">
        <ele>45.409999847412</ele>
        <time>2011-04-17T08:43:36Z</time>
      </trkpt>
      <trkpt lat="50.81299" lon="2.46891">
        <ele>45.381999969482</ele>
        <time>2011-04-17T08:43:37Z</time>
      </trkpt>
      <trkpt lat="50.81269" lon="2.46842">
        <ele>46.682998657227</ele>
        <time>2011-04-17T08:43:45Z</time>
      </trkpt>
      <trkpt lat="50.81233" lon="2.46788">
        <ele>48.626998901367</ele>
        <time>2011-04-17T08:43:54Z</time>
      </trkpt>
      <trkpt lat="50.81229" lon="2.46783">
        <ele>48.74100112915</ele>
        <time>2011-04-17T08:43:55Z</time>
      </trkpt>
      <trkpt lat="50.81218" lon="2.46762">
        <ele>49.63399887085</ele>
        <time>2011-04-17T08:44:00Z</time>
      </trkpt>
      <trkpt lat="50.81223" lon="2.46754">
        <ele>49.756999969482</ele>
        <time>2011-04-17T08:44:02Z</time>
      </trkpt>
      <trkpt lat="50.81247" lon="2.46712">
        <ele>50.006999969482</ele>
        <time>2011-04-17T08:44:09Z</time>
      </trkpt>
      <trkpt lat="50.81275" lon="2.46663">
        <ele>49.493000030518</ele>
        <time>2011-04-17T08:44:16Z</time>
      </trkpt>
      <trkpt lat="50.81289" lon="2.46646">
        <ele>48.757999420166</ele>
        <time>2011-04-17T08:44:19Z</time>
      </trkpt>
      <trkpt lat="50.81319" lon="2.46621">
        <ele>47.141998291016</ele>
        <time>2011-04-17T08:44:25Z</time>
      </trkpt>
      <trkpt lat="50.81329" lon="2.46612">
        <ele>46.762001037598</ele>
        <time>2011-04-17T08:44:27Z</time>
      </trkpt>
      <trkpt lat="50.81353" lon="2.46588">
        <ele>45.130001068115</ele>
        <time>2011-04-17T08:44:33Z</time>
      </trkpt>
      <trkpt lat="50.81368" lon="2.46573">
        <ele>44.285999298096</ele>
        <time>2011-04-17T08:44:38Z</time>
      </trkpt>
      <trkpt lat="50.814" lon="2.46539">
        <ele>43.456001281738</ele>
        <time>2011-04-17T08:44:47Z</time>
      </trkpt>
      <trkpt lat="50.81415" lon="2.46524">
        <ele>42.800998687744</ele>
        <time>2011-04-17T08:44:52Z</time>
      </trkpt>
      <trkpt lat="50.81426" lon="2.46513">
        <ele>42.710998535156</ele>
        <time>2011-04-17T08:44:56Z</time>
      </trkpt>
      <trkpt lat="50.81436" lon="2.465">
        <ele>42.701000213623</ele>
        <time>2011-04-17T08:44:59Z</time>
      </trkpt>
      <trkpt lat="50.81457" lon="2.4647">
        <ele>42.96900177002</ele>
        <time>2011-04-17T08:45:05Z</time>
      </trkpt>
      <trkpt lat="50.81467" lon="2.46454">
        <ele>43.320999145508</ele>
        <time>2011-04-17T08:45:08Z</time>
      </trkpt>
      <trkpt lat="50.81482" lon="2.46444">
        <ele>44.148998260498</ele>
        <time>2011-04-17T08:45:12Z</time>
      </trkpt>
      <trkpt lat="50.81503" lon="2.46457">
        <ele>44.810001373291</ele>
        <time>2011-04-17T08:45:18Z</time>
      </trkpt>
      <trkpt lat="50.81509" lon="2.46465">
        <ele>45.11600112915</ele>
        <time>2011-04-17T08:45:20Z</time>
      </trkpt>
      <trkpt lat="50.81525" lon="2.46469">
        <ele>45.229000091553</ele>
        <time>2011-04-17T08:45:24Z</time>
      </trkpt>
      <trkpt lat="50.81528" lon="2.46466">
        <ele>45.261001586914</ele>
        <time>2011-04-17T08:45:25Z</time>
      </trkpt>
      <trkpt lat="50.81556" lon="2.46427">
        <ele>45.907001495361</ele>
        <time>2011-04-17T08:45:33Z</time>
      </trkpt>
      <trkpt lat="50.81583" lon="2.46392">
        <ele>46.549999237061</ele>
        <time>2011-04-17T08:45:40Z</time>
      </trkpt>
      <trkpt lat="50.81609" lon="2.46359">
        <ele>46.262001037598</ele>
        <time>2011-04-17T08:45:46Z</time>
      </trkpt>
      <trkpt lat="50.81638" lon="2.46318">
        <ele>45.051998138428</ele>
        <time>2011-04-17T08:45:52Z</time>
      </trkpt>
      <trkpt lat="50.81651" lon="2.46293">
        <ele>43.380001068115</ele>
        <time>2011-04-17T08:45:56Z</time>
      </trkpt>
      <trkpt lat="50.8165" lon="2.46284">
        <ele>43.083999633789</ele>
        <time>2011-04-17T08:45:57Z</time>
      </trkpt>
      <trkpt lat="50.81639" lon="2.46242">
        <ele>42.397998809814</ele>
        <time>2011-04-17T08:46:01Z</time>
      </trkpt>
      <trkpt lat="50.81636" lon="2.46231">
        <ele>42.275001525879</ele>
        <time>2011-04-17T08:46:02Z</time>
      </trkpt>
      <trkpt lat="50.81607" lon="2.46142">
        <ele>41.652000427246</ele>
        <time>2011-04-17T08:46:09Z</time>
      </trkpt>
      <trkpt lat="50.81574" lon="2.46036">
        <ele>41.078998565674</ele>
        <time>2011-04-17T08:46:17Z</time>
      </trkpt>
      <trkpt lat="50.81542" lon="2.4594">
        <ele>41.363998413086</ele>
        <time>2011-04-17T08:46:25Z</time>
      </trkpt>
      <trkpt lat="50.81509" lon="2.4583">
        <ele>40.664001464844</ele>
        <time>2011-04-17T08:46:34Z</time>
      </trkpt>
      <trkpt lat="50.8149" lon="2.45741">
        <ele>40.291000366211</ele>
        <time>2011-04-17T08:46:41Z</time>
      </trkpt>
      <trkpt lat="50.81488" lon="2.45715">
        <ele>40.305000305176</ele>
        <time>2011-04-17T08:46:43Z</time>
      </trkpt>
      <trkpt lat="50.81493" lon="2.45667">
        <ele>40.403999328613</ele>
        <time>2011-04-17T08:46:47Z</time>
      </trkpt>
      <trkpt lat="50.81494" lon="2.45644">
        <ele>40.513000488281</ele>
        <time>2011-04-17T08:46:49Z</time>
      </trkpt>
      <trkpt lat="50.81495" lon="2.45592">
        <ele>41.151000976562</ele>
        <time>2011-04-17T08:46:53Z</time>
      </trkpt>
      <trkpt lat="50.81503" lon="2.45556">
        <ele>41.397998809814</ele>
        <time>2011-04-17T08:46:56Z</time>
      </trkpt>
      <trkpt lat="50.81518" lon="2.45541">
        <ele>41.210998535156</ele>
        <time>2011-04-17T08:46:58Z</time>
      </trkpt>
      <trkpt lat="50.8161" lon="2.45476">
        <ele>39.712001800537</ele>
        <time>2011-04-17T08:47:09Z</time>
      </trkpt>
      <trkpt lat="50.81656" lon="2.45446">
        <ele>37.687000274658</ele>
        <time>2011-04-17T08:47:15Z</time>
      </trkpt>
      <trkpt lat="50.81677" lon="2.45454">
        <ele>36.026000976562</ele>
        <time>2011-04-17T08:47:18Z</time>
      </trkpt>
      <trkpt lat="50.81682" lon="2.45462">
        <ele>35.839000701904</ele>
        <time>2011-04-17T08:47:19Z</time>
      </trkpt>
      <trkpt lat="50.81686" lon="2.4547">
        <ele>35.819000244141</ele>
        <time>2011-04-17T08:47:20Z</time>
      </trkpt>
      <trkpt lat="50.81731" lon="2.45533">
        <ele>35.59700012207</ele>
        <time>2011-04-17T08:47:28Z</time>
      </trkpt>
      <trkpt lat="50.81764" lon="2.45583">
        <ele>34.916999816895</ele>
        <time>2011-04-17T08:47:34Z</time>
      </trkpt>
      <trkpt lat="50.81798" lon="2.45655">
        <ele>33.208999633789</ele>
        <time>2011-04-17T08:47:41Z</time>
      </trkpt>
      <trkpt lat="50.81849" lon="2.45765">
        <ele>31.122999191284</ele>
        <time>2011-04-17T08:47:51Z</time>
      </trkpt>
      <trkpt lat="50.8189" lon="2.45851">
        <ele>28.864999771118</ele>
        <time>2011-04-17T08:47:59Z</time>
      </trkpt>
      <trkpt lat="50.81908" lon="2.45887">
        <ele>28.326999664307</ele>
        <time>2011-04-17T08:48:03Z</time>
      </trkpt>
      <trkpt lat="50.8195" lon="2.45939">
        <ele>27.596000671387</ele>
        <time>2011-04-17T08:48:11Z</time>
      </trkpt>
      <trkpt lat="50.81987" lon="2.45984">
        <ele>26.968000411987</ele>
        <time>2011-04-17T08:48:18Z</time>
      </trkpt>
      <trkpt lat="50.82023" lon="2.46029">
        <ele>26.895000457764</ele>
        <time>2011-04-17T08:48:26Z</time>
      </trkpt>
      <trkpt lat="50.82062" lon="2.46077">
        <ele>26.486000061035</ele>
        <time>2011-04-17T08:48:35Z</time>
      </trkpt>
      <trkpt lat="50.82093" lon="2.4612">
        <ele>27.021999359131</ele>
        <time>2011-04-17T08:48:43Z</time>
      </trkpt>
      <trkpt lat="50.82119" lon="2.46144">
        <ele>27.520999908447</ele>
        <time>2011-04-17T08:48:49Z</time>
      </trkpt>
      <trkpt lat="50.82124" lon="2.46164">
        <ele>28.115999221802</ele>
        <time>2011-04-17T08:48:53Z</time>
      </trkpt>
      <trkpt lat="50.82121" lon="2.4617">
        <ele>28.15299987793</ele>
        <time>2011-04-17T08:48:54Z</time>
      </trkpt>
      <trkpt lat="50.82092" lon="2.46225">
        <ele>29.100999832153</ele>
        <time>2011-04-17T08:49:03Z</time>
      </trkpt>
      <trkpt lat="50.82061" lon="2.46288">
        <ele>30.218000411987</ele>
        <time>2011-04-17T08:49:12Z</time>
      </trkpt>
      <trkpt lat="50.82025" lon="2.46362">
        <ele>31.246000289917</ele>
        <time>2011-04-17T08:49:22Z</time>
      </trkpt>
      <trkpt lat="50.82013" lon="2.46392">
        <ele>31.695999145508</ele>
        <time>2011-04-17T08:49:26Z</time>
      </trkpt>
      <trkpt lat="50.82007" lon="2.46424">
        <ele>32.74100112915</ele>
        <time>2011-04-17T08:49:30Z</time>
      </trkpt>
      <trkpt lat="50.82002" lon="2.46527">
        <ele>34.771999359131</ele>
        <time>2011-04-17T08:49:43Z</time>
      </trkpt>
      <trkpt lat="50.81999" lon="2.4655">
        <ele>35.270999908447</ele>
        <time>2011-04-17T08:49:46Z</time>
      </trkpt>
      <trkpt lat="50.8199" lon="2.46577">
        <ele>35.825000762939</ele>
        <time>2011-04-17T08:49:50Z</time>
      </trkpt>
      <trkpt lat="50.81958" lon="2.46646">
        <ele>37.888999938965</ele>
        <time>2011-04-17T08:50:02Z</time>
      </trkpt>
      <trkpt lat="50.81935" lon="2.46693">
        <ele>39.779998779297</ele>
        <time>2011-04-17T08:50:11Z</time>
      </trkpt>
      <trkpt lat="50.81918" lon="2.46732">
        <ele>41.917999267578</ele>
        <time>2011-04-17T08:50:19Z</time>
      </trkpt>
      <trkpt lat="50.8191" lon="2.46749">
        <ele>43.062999725342</ele>
        <time>2011-04-17T08:50:23Z</time>
      </trkpt>
      <trkpt lat="50.81915" lon="2.46764">
        <ele>44.625999450684</ele>
        <time>2011-04-17T08:50:27Z</time>
      </trkpt>
      <trkpt lat="50.81918" lon="2.46767">
        <ele>44.681999206543</ele>
        <time>2011-04-17T08:50:28Z</time>
      </trkpt>
      <trkpt lat="50.81945" lon="2.46792">
        <ele>45.387001037598</ele>
        <time>2011-04-17T08:50:35Z</time>
      </trkpt>
      <trkpt lat="50.81976" lon="2.46821">
        <ele>44.851001739502</ele>
        <time>2011-04-17T08:50:41Z</time>
      </trkpt>
      <trkpt lat="50.82016" lon="2.46856">
        <ele>46.078998565674</ele>
        <time>2011-04-17T08:50:48Z</time>
      </trkpt>
      <trkpt lat="50.82063" lon="2.46892">
        <ele>45.390998840332</ele>
        <time>2011-04-17T08:50:56Z</time>
      </trkpt>
      <trkpt lat="50.82103" lon="2.46936">
        <ele>45.229000091553</ele>
        <time>2011-04-17T08:51:03Z</time>
      </trkpt>
      <trkpt lat="50.82146" lon="2.46987">
        <ele>44.421001434326</ele>
        <time>2011-04-17T08:51:10Z</time>
      </trkpt>
      <trkpt lat="50.8218" lon="2.47038">
        <ele>43.500999450684</ele>
        <time>2011-04-17T08:51:16Z</time>
      </trkpt>
      <trkpt lat="50.82221" lon="2.47098">
        <ele>42.956001281738</ele>
        <time>2011-04-17T08:51:23Z</time>
      </trkpt>
      <trkpt lat="50.82227" lon="2.47107">
        <ele>42.935001373291</ele>
        <time>2011-04-17T08:51:24Z</time>
      </trkpt>
      <trkpt lat="50.82245" lon="2.47119">
        <ele>41.694999694824</ele>
        <time>2011-04-17T08:51:27Z</time>
      </trkpt>
      <trkpt lat="50.82251" lon="2.47115">
        <ele>41.435001373291</ele>
        <time>2011-04-17T08:51:28Z</time>
      </trkpt>
      <trkpt lat="50.82256" lon="2.47109">
        <ele>41.301998138428</ele>
        <time>2011-04-17T08:51:29Z</time>
      </trkpt>
      <trkpt lat="50.82294" lon="2.4705">
        <ele>40.778999328613</ele>
        <time>2011-04-17T08:51:36Z</time>
      </trkpt>
      <trkpt lat="50.82342" lon="2.46986">
        <ele>39.84700012207</ele>
        <time>2011-04-17T08:51:44Z</time>
      </trkpt>
      <trkpt lat="50.82384" lon="2.4693">
        <ele>38.24100112915</ele>
        <time>2011-04-17T08:51:51Z</time>
      </trkpt>
      <trkpt lat="50.82415" lon="2.46878">
        <ele>36.589000701904</ele>
        <time>2011-04-17T08:51:57Z</time>
      </trkpt>
      <trkpt lat="50.82429" lon="2.46866">
        <ele>35.129001617432</ele>
        <time>2011-04-17T08:52:00Z</time>
      </trkpt>
      <trkpt lat="50.82436" lon="2.46876">
        <ele>34.762001037598</ele>
        <time>2011-04-17T08:52:02Z</time>
      </trkpt>
      <trkpt lat="50.8247" lon="2.46928">
        <ele>35.240001678467</ele>
        <time>2011-04-17T08:52:10Z</time>
      </trkpt>
      <trkpt lat="50.82505" lon="2.46978">
        <ele>35.180999755859</ele>
        <time>2011-04-17T08:52:18Z</time>
      </trkpt>
      <trkpt lat="50.82539" lon="2.47028">
        <ele>34.974998474121</ele>
        <time>2011-04-17T08:52:26Z</time>
      </trkpt>
      <trkpt lat="50.82584" lon="2.47093">
        <ele>34.687999725342</ele>
        <time>2011-04-17T08:52:36Z</time>
      </trkpt>
      <trkpt lat="50.82618" lon="2.47143">
        <ele>34.056999206543</ele>
        <time>2011-04-17T08:52:44Z</time>
      </trkpt>
      <trkpt lat="50.82652" lon="2.47191">
        <ele>33.701000213623</ele>
        <time>2011-04-17T08:52:52Z</time>
      </trkpt>
      <trkpt lat="50.82693" lon="2.47251">
        <ele>32.345001220703</ele>
        <time>2011-04-17T08:53:01Z</time>
      </trkpt>
      <trkpt lat="50.82732" lon="2.47303">
        <ele>31.736000061035</ele>
        <time>2011-04-17T08:53:09Z</time>
      </trkpt>
      <trkpt lat="50.82767" lon="2.47356">
        <ele>29.549999237061</ele>
        <time>2011-04-17T08:53:17Z</time>
      </trkpt>
      <trkpt lat="50.82771" lon="2.47363">
        <ele>29.413000106811</ele>
        <time>2011-04-17T08:53:18Z</time>
      </trkpt>
      <trkpt lat="50.8279" lon="2.47375">
        <ele>28.89999961853</ele>
        <time>2011-04-17T08:53:22Z</time>
      </trkpt>
      <trkpt lat="50.82797" lon="2.47363">
        <ele>28.211999893189</ele>
        <time>2011-04-17T08:53:24Z</time>
      </trkpt>
      <trkpt lat="50.82824" lon="2.47312">
        <ele>28.719999313354</ele>
        <time>2011-04-17T08:53:30Z</time>
      </trkpt>
      <trkpt lat="50.82864" lon="2.47237">
        <ele>28.426000595093</ele>
        <time>2011-04-17T08:53:38Z</time>
      </trkpt>
      <trkpt lat="50.82906" lon="2.47177">
        <ele>26.884000778198</ele>
        <time>2011-04-17T08:53:45Z</time>
      </trkpt>
      <trkpt lat="50.82941" lon="2.47123">
        <ele>25.576000213623</ele>
        <time>2011-04-17T08:53:51Z</time>
      </trkpt>
      <trkpt lat="50.82958" lon="2.47113">
        <ele>24.770999908447</ele>
        <time>2011-04-17T08:53:54Z</time>
      </trkpt>
      <trkpt lat="50.82967" lon="2.47126">
        <ele>24.374000549316</ele>
        <time>2011-04-17T08:53:56Z</time>
      </trkpt>
      <trkpt lat="50.82996" lon="2.47174">
        <ele>23.940000534058</ele>
        <time>2011-04-17T08:54:02Z</time>
      </trkpt>
      <trkpt lat="50.83042" lon="2.47256">
        <ele>24.555000305176</ele>
        <time>2011-04-17T08:54:12Z</time>
      </trkpt>
      <trkpt lat="50.8307" lon="2.47317">
        <ele>24.788999557495</ele>
        <time>2011-04-17T08:54:19Z</time>
      </trkpt>
      <trkpt lat="50.83085" lon="2.47359">
        <ele>25.020999908447</ele>
        <time>2011-04-17T08:54:24Z</time>
      </trkpt>
      <trkpt lat="50.83114" lon="2.47419">
        <ele>24.540000915527</ele>
        <time>2011-04-17T08:54:32Z</time>
      </trkpt>
      <trkpt lat="50.8315" lon="2.47479">
        <ele>24.423000335693</ele>
        <time>2011-04-17T08:54:41Z</time>
      </trkpt>
      <trkpt lat="50.83187" lon="2.47537">
        <ele>24.145000457764</ele>
        <time>2011-04-17T08:54:50Z</time>
      </trkpt>
      <trkpt lat="50.8322" lon="2.476">
        <ele>23.219999313354</ele>
        <time>2011-04-17T08:54:59Z</time>
      </trkpt>
      <trkpt lat="50.8323" lon="2.47608">
        <ele>22.813999176025</ele>
        <time>2011-04-17T08:55:02Z</time>
      </trkpt>
      <trkpt lat="50.83237" lon="2.47603">
        <ele>22.680000305176</ele>
        <time>2011-04-17T08:55:04Z</time>
      </trkpt>
      <trkpt lat="50.83274" lon="2.47574">
        <ele>22.851999282837</ele>
        <time>2011-04-17T08:55:12Z</time>
      </trkpt>
      <trkpt lat="50.83322" lon="2.47542">
        <ele>21.951999664307</ele>
        <time>2011-04-17T08:55:20Z</time>
      </trkpt>
      <trkpt lat="50.83367" lon="2.47511">
        <ele>20.915000915527</ele>
        <time>2011-04-17T08:55:27Z</time>
      </trkpt>
      <trkpt lat="50.83437" lon="2.47465">
        <ele>18.91900062561</ele>
        <time>2011-04-17T08:55:37Z</time>
      </trkpt>
      <trkpt lat="50.83514" lon="2.47412">
        <ele>17.128000259399</ele>
        <time>2011-04-17T08:55:48Z</time>
      </trkpt>
      <trkpt lat="50.83532" lon="2.47411">
        <ele>16.558000564575</ele>
        <time>2011-04-17T08:55:51Z</time>
      </trkpt>
      <trkpt lat="50.83534" lon="2.47423">
        <ele>16.268999099731</ele>
        <time>2011-04-17T08:55:53Z</time>
      </trkpt>
      <trkpt lat="50.83536" lon="2.47437">
        <ele>16.231000900269</ele>
        <time>2011-04-17T08:55:55Z</time>
      </trkpt>
      <trkpt lat="50.8355" lon="2.475">
        <ele>16.715999603271</ele>
        <time>2011-04-17T08:56:03Z</time>
      </trkpt>
      <trkpt lat="50.83566" lon="2.47576">
        <ele>17.148000717163</ele>
        <time>2011-04-17T08:56:12Z</time>
      </trkpt>
      <trkpt lat="50.83578" lon="2.47631">
        <ele>17.270000457764</ele>
        <time>2011-04-17T08:56:18Z</time>
      </trkpt>
      <trkpt lat="50.83591" lon="2.47666">
        <ele>17.451999664307</ele>
        <time>2011-04-17T08:56:22Z</time>
      </trkpt>
      <trkpt lat="50.83593" lon="2.47704">
        <ele>17.625</ele>
        <time>2011-04-17T08:56:26Z</time>
      </trkpt>
      <trkpt lat="50.83591" lon="2.47713">
        <ele>17.70299911499</ele>
        <time>2011-04-17T08:56:27Z</time>
      </trkpt>
      <trkpt lat="50.83584" lon="2.47746">
        <ele>18.162000656128</ele>
        <time>2011-04-17T08:56:31Z</time>
      </trkpt>
      <trkpt lat="50.83581" lon="2.47776">
        <ele>19.507999420166</ele>
        <time>2011-04-17T08:56:35Z</time>
      </trkpt>
      <trkpt lat="50.83577" lon="2.47835">
        <ele>19.17200088501</ele>
        <time>2011-04-17T08:56:41Z</time>
      </trkpt>
      <trkpt lat="50.83576" lon="2.47855">
        <ele>19.103000640869</ele>
        <time>2011-04-17T08:56:43Z</time>
      </trkpt>
      <trkpt lat="50.83586" lon="2.47906">
        <ele>18.972999572754</ele>
        <time>2011-04-17T08:56:48Z</time>
      </trkpt>
      <trkpt lat="50.8361" lon="2.47972">
        <ele>18.801000595093</ele>
        <time>2011-04-17T08:56:55Z</time>
      </trkpt>
      <trkpt lat="50.83621" lon="2.48011">
        <ele>18.701000213623</ele>
        <time>2011-04-17T08:56:59Z</time>
      </trkpt>
      <trkpt lat="50.83625" lon="2.48074">
        <ele>18.434999465942</ele>
        <time>2011-04-17T08:57:05Z</time>
      </trkpt>
      <trkpt lat="50.83625" lon="2.48168">
        <ele>18.323999404907</ele>
        <time>2011-04-17T08:57:14Z</time>
      </trkpt>
      <trkpt lat="50.83632" lon="2.48256">
        <ele>17.997999191284</ele>
        <time>2011-04-17T08:57:22Z</time>
      </trkpt>
      <trkpt lat="50.83646" lon="2.48332">
        <ele>17.346000671387</ele>
        <time>2011-04-17T08:57:29Z</time>
      </trkpt>
      <trkpt lat="50.83655" lon="2.48363">
        <ele>17.42200088501</ele>
        <time>2011-04-17T08:57:32Z</time>
      </trkpt>
      <trkpt lat="50.83661" lon="2.48419">
        <ele>16.837999343872</ele>
        <time>2011-04-17T08:57:37Z</time>
      </trkpt>
      <trkpt lat="50.83659" lon="2.48487">
        <ele>16.448999404907</ele>
        <time>2011-04-17T08:57:43Z</time>
      </trkpt>
      <trkpt lat="50.8367" lon="2.48526">
        <ele>16.444000244141</ele>
        <time>2011-04-17T08:57:47Z</time>
      </trkpt>
      <trkpt lat="50.83689" lon="2.4857">
        <ele>15.824999809265</ele>
        <time>2011-04-17T08:57:52Z</time>
      </trkpt>
      <trkpt lat="50.83706" lon="2.48666">
        <ele>15.234999656677</ele>
        <time>2011-04-17T08:58:01Z</time>
      </trkpt>
      <trkpt lat="50.83723" lon="2.48764">
        <ele>14.923000335693</ele>
        <time>2011-04-17T08:58:10Z</time>
      </trkpt>
      <trkpt lat="50.83727" lon="2.48785">
        <ele>14.647000312805</ele>
        <time>2011-04-17T08:58:12Z</time>
      </trkpt>
      <trkpt lat="50.83744" lon="2.48811">
        <ele>14.685000419617</ele>
        <time>2011-04-17T08:58:16Z</time>
      </trkpt>
      <trkpt lat="50.83795" lon="2.48815">
        <ele>14.798000335693</ele>
        <time>2011-04-17T08:58:23Z</time>
      </trkpt>
      <trkpt lat="50.83808" lon="2.48834">
        <ele>14.062000274658</ele>
        <time>2011-04-17T08:58:26Z</time>
      </trkpt>
      <trkpt lat="50.83812" lon="2.48878">
        <ele>13.581999778748</ele>
        <time>2011-04-17T08:58:30Z</time>
      </trkpt>
      <trkpt lat="50.83823" lon="2.48961">
        <ele>13.352000236511</ele>
        <time>2011-04-17T08:58:37Z</time>
      </trkpt>
      <trkpt lat="50.83835" lon="2.4907">
        <ele>12.482999801636</ele>
        <time>2011-04-17T08:58:46Z</time>
      </trkpt>
      <trkpt lat="50.83831" lon="2.4918">
        <ele>12.083999633789</ele>
        <time>2011-04-17T08:58:55Z</time>
      </trkpt>
      <trkpt lat="50.83821" lon="2.49263">
        <ele>12.102999687195</ele>
        <time>2011-04-17T08:59:02Z</time>
      </trkpt>
      <trkpt lat="50.83806" lon="2.49359">
        <ele>12.906000137329</ele>
        <time>2011-04-17T08:59:11Z</time>
      </trkpt>
      <trkpt lat="50.83789" lon="2.4949">
        <ele>13.395000457764</ele>
        <time>2011-04-17T08:59:24Z</time>
      </trkpt>
      <trkpt lat="50.83781" lon="2.49546">
        <ele>13.739000320435</ele>
        <time>2011-04-17T08:59:30Z</time>
      </trkpt>
      <trkpt lat="50.83791" lon="2.49593">
        <ele>13.484999656677</ele>
        <time>2011-04-17T08:59:35Z</time>
      </trkpt>
      <trkpt lat="50.83794" lon="2.49602">
        <ele>13.371000289917</ele>
        <time>2011-04-17T08:59:36Z</time>
      </trkpt>
      <trkpt lat="50.83838" lon="2.49675">
        <ele>13.666000366211</ele>
        <time>2011-04-17T08:59:46Z</time>
      </trkpt>
      <trkpt lat="50.83862" lon="2.49732">
        <ele>13.979999542236</ele>
        <time>2011-04-17T08:59:53Z</time>
      </trkpt>
      <trkpt lat="50.83874" lon="2.49802">
        <ele>14.395000457764</ele>
        <time>2011-04-17T09:00:00Z</time>
      </trkpt>
      <trkpt lat="50.8388" lon="2.49878">
        <ele>14.376000404358</ele>
        <time>2011-04-17T09:00:07Z</time>
      </trkpt>
      <trkpt lat="50.83875" lon="2.49942">
        <ele>14.364000320435</ele>
        <time>2011-04-17T09:00:13Z</time>
      </trkpt>
      <trkpt lat="50.83873" lon="2.49962">
        <ele>14.583999633789</ele>
        <time>2011-04-17T09:00:15Z</time>
      </trkpt>
      <trkpt lat="50.83881" lon="2.50015">
        <ele>14.755000114441</ele>
        <time>2011-04-17T09:00:20Z</time>
      </trkpt>
      <trkpt lat="50.839" lon="2.50068">
        <ele>13.876000404358</ele>
        <time>2011-04-17T09:00:26Z</time>
      </trkpt>
      <trkpt lat="50.83914" lon="2.5008">
        <ele>14.012999534607</ele>
        <time>2011-04-17T09:00:29Z</time>
      </trkpt>
      <trkpt lat="50.8392" lon="2.50079">
        <ele>13.949000358582</ele>
        <time>2011-04-17T09:00:30Z</time>
      </trkpt>
      <trkpt lat="50.83947" lon="2.50085">
        <ele>13.567000389099</ele>
        <time>2011-04-17T09:00:34Z</time>
      </trkpt>
      <trkpt lat="50.83976" lon="2.5008">
        <ele>13.331000328064</ele>
        <time>2011-04-17T09:00:38Z</time>
      </trkpt>
      <trkpt lat="50.84032" lon="2.50056">
        <ele>13.057999610901</ele>
        <time>2011-04-17T09:00:46Z</time>
      </trkpt>
      <trkpt lat="50.84055" lon="2.50047">
        <ele>12.331000328064</ele>
        <time>2011-04-17T09:00:49Z</time>
      </trkpt>
      <trkpt lat="50.84082" lon="2.50054">
        <ele>11.734000205994</ele>
        <time>2011-04-17T09:00:53Z</time>
      </trkpt>
      <trkpt lat="50.84088" lon="2.5006">
        <ele>11.642000198364</ele>
        <time>2011-04-17T09:00:54Z</time>
      </trkpt>
      <trkpt lat="50.8413" lon="2.5011">
        <ele>11.864000320435</ele>
        <time>2011-04-17T09:01:02Z</time>
      </trkpt>
      <trkpt lat="50.84177" lon="2.50162">
        <ele>11.769000053406</ele>
        <time>2011-04-17T09:01:11Z</time>
      </trkpt>
      <trkpt lat="50.84205" lon="2.50196">
        <ele>11.899000167847</ele>
        <time>2011-04-17T09:01:17Z</time>
      </trkpt>
      <trkpt lat="50.84209" lon="2.50215">
        <ele>11.717000007629</ele>
        <time>2011-04-17T09:01:20Z</time>
      </trkpt>
      <trkpt lat="50.84206" lon="2.50221">
        <ele>11.654999732971</ele>
        <time>2011-04-17T09:01:21Z</time>
      </trkpt>
      <trkpt lat="50.84171" lon="2.50267">
        <ele>11.477999687195</ele>
        <time>2011-04-17T09:01:29Z</time>
      </trkpt>
      <trkpt lat="50.84129" lon="2.50329">
        <ele>11.243000030518</ele>
        <time>2011-04-17T09:01:38Z</time>
      </trkpt>
      <trkpt lat="50.84086" lon="2.504">
        <ele>11.331000328064</ele>
        <time>2011-04-17T09:01:47Z</time>
      </trkpt>
      <trkpt lat="50.84058" lon="2.50466">
        <ele>11.352999687195</ele>
        <time>2011-04-17T09:01:54Z</time>
      </trkpt>
      <trkpt lat="50.84032" lon="2.50547">
        <ele>11.093000411987</ele>
        <time>2011-04-17T09:02:02Z</time>
      </trkpt>
      <trkpt lat="50.83996" lon="2.50633">
        <ele>10.996000289917</ele>
        <time>2011-04-17T09:02:11Z</time>
      </trkpt>
      <trkpt lat="50.83962" lon="2.50702">
        <ele>11.175000190735</ele>
        <time>2011-04-17T09:02:19Z</time>
      </trkpt>
      <trkpt lat="50.83942" lon="2.50768">
        <ele>11.142999649048</ele>
        <time>2011-04-17T09:02:26Z</time>
      </trkpt>
      <trkpt lat="50.8394" lon="2.50779">
        <ele>11.079000473023</ele>
        <time>2011-04-17T09:02:27Z</time>
      </trkpt>
      <trkpt lat="50.83939" lon="2.50843">
        <ele>11.053999900818</ele>
        <time>2011-04-17T09:02:33Z</time>
      </trkpt>
      <trkpt lat="50.83937" lon="2.50883">
        <ele>10.993000030518</ele>
        <time>2011-04-17T09:02:37Z</time>
      </trkpt>
      <trkpt lat="50.83925" lon="2.50904">
        <ele>11.28600025177</ele>
        <time>2011-04-17T09:02:40Z</time>
      </trkpt>
      <trkpt lat="50.83919" lon="2.50907">
        <ele>11.312000274658</ele>
        <time>2011-04-17T09:02:41Z</time>
      </trkpt>
      <trkpt lat="50.83884" lon="2.50933">
        <ele>11.585000038147</ele>
        <time>2011-04-17T09:02:47Z</time>
      </trkpt>
      <trkpt lat="50.83838" lon="2.50977">
        <ele>12.375</ele>
        <time>2011-04-17T09:02:55Z</time>
      </trkpt>
      <trkpt lat="50.83817" lon="2.51001">
        <ele>12.170999526977</ele>
        <time>2011-04-17T09:02:59Z</time>
      </trkpt>
      <trkpt lat="50.83812" lon="2.51038">
        <ele>12.243000030518</ele>
        <time>2011-04-17T09:03:03Z</time>
      </trkpt>
      <trkpt lat="50.83824" lon="2.5106">
        <ele>12.479000091553</ele>
        <time>2011-04-17T09:03:06Z</time>
      </trkpt>
      <trkpt lat="50.8383" lon="2.51079">
        <ele>12.295999526977</ele>
        <time>2011-04-17T09:03:09Z</time>
      </trkpt>
      <trkpt lat="50.83824" lon="2.51103">
        <ele>12.845999717712</ele>
        <time>2011-04-17T09:03:12Z</time>
      </trkpt>
      <trkpt lat="50.8382" lon="2.51111">
        <ele>12.942000389099</ele>
        <time>2011-04-17T09:03:13Z</time>
      </trkpt>
      <trkpt lat="50.83782" lon="2.51201">
        <ele>12.755999565124</ele>
        <time>2011-04-17T09:03:24Z</time>
      </trkpt>
      <trkpt lat="50.83756" lon="2.51261">
        <ele>13.593000411987</ele>
        <time>2011-04-17T09:03:32Z</time>
      </trkpt>
      <trkpt lat="50.83733" lon="2.51303">
        <ele>13.920999526977</ele>
        <time>2011-04-17T09:03:38Z</time>
      </trkpt>
      <trkpt lat="50.83715" lon="2.51355">
        <ele>15.187999725342</ele>
        <time>2011-04-17T09:03:45Z</time>
      </trkpt>
      <trkpt lat="50.83713" lon="2.51363">
        <ele>15.480999946594</ele>
        <time>2011-04-17T09:03:46Z</time>
      </trkpt>
      <trkpt lat="50.83702" lon="2.51432">
        <ele>15.78600025177</ele>
        <time>2011-04-17T09:03:54Z</time>
      </trkpt>
      <trkpt lat="50.83701" lon="2.51441">
        <ele>15.732000350952</ele>
        <time>2011-04-17T09:03:55Z</time>
      </trkpt>
      <trkpt lat="50.83681" lon="2.51497">
        <ele>15.980999946594</ele>
        <time>2011-04-17T09:04:02Z</time>
      </trkpt>
      <trkpt lat="50.83664" lon="2.51509">
        <ele>16.045999526977</ele>
        <time>2011-04-17T09:04:06Z</time>
      </trkpt>
      <trkpt lat="50.83654" lon="2.515">
        <ele>16.031000137329</ele>
        <time>2011-04-17T09:04:08Z</time>
      </trkpt>
      <trkpt lat="50.83619" lon="2.51456">
        <ele>15.836000442505</ele>
        <time>2011-04-17T09:04:15Z</time>
      </trkpt>
      <trkpt lat="50.83574" lon="2.51405">
        <ele>14.902000427246</ele>
        <time>2011-04-17T09:04:23Z</time>
      </trkpt>
      <trkpt lat="50.83519" lon="2.51342">
        <ele>14.168999671936</ele>
        <time>2011-04-17T09:04:33Z</time>
      </trkpt>
      <trkpt lat="50.83492" lon="2.51307">
        <ele>14.204000473023</ele>
        <time>2011-04-17T09:04:38Z</time>
      </trkpt>
      <trkpt lat="50.83455" lon="2.51231">
        <ele>13.878000259399</ele>
        <time>2011-04-17T09:04:46Z</time>
      </trkpt>
      <trkpt lat="50.83425" lon="2.51173">
        <ele>14.498999595642</ele>
        <time>2011-04-17T09:04:53Z</time>
      </trkpt>
      <trkpt lat="50.83421" lon="2.51165">
        <ele>14.541000366211</ele>
        <time>2011-04-17T09:04:54Z</time>
      </trkpt>
      <trkpt lat="50.83408" lon="2.51158">
        <ele>13.963000297546</ele>
        <time>2011-04-17T09:04:57Z</time>
      </trkpt>
      <trkpt lat="50.83403" lon="2.51165">
        <ele>13.751999855042</ele>
        <time>2011-04-17T09:04:58Z</time>
      </trkpt>
      <trkpt lat="50.83367" lon="2.51222">
        <ele>14.196000099182</ele>
        <time>2011-04-17T09:05:05Z</time>
      </trkpt>
      <trkpt lat="50.83334" lon="2.51269">
        <ele>14.105999946594</ele>
        <time>2011-04-17T09:05:11Z</time>
      </trkpt>
      <trkpt lat="50.83307" lon="2.51286">
        <ele>14.807999610901</ele>
        <time>2011-04-17T09:05:15Z</time>
      </trkpt>
      <trkpt lat="50.83255" lon="2.51289">
        <ele>14.920000076294</ele>
        <time>2011-04-17T09:05:22Z</time>
      </trkpt>
      <trkpt lat="50.83204" lon="2.51307">
        <ele>15.267999649048</ele>
        <time>2011-04-17T09:05:29Z</time>
      </trkpt>
      <trkpt lat="50.83182" lon="2.51313">
        <ele>15.824000358582</ele>
        <time>2011-04-17T09:05:32Z</time>
      </trkpt>
      <trkpt lat="50.83156" lon="2.51335">
        <ele>16.263000488281</ele>
        <time>2011-04-17T09:05:36Z</time>
      </trkpt>
      <trkpt lat="50.83138" lon="2.51375">
        <ele>16.329000473023</ele>
        <time>2011-04-17T09:05:40Z</time>
      </trkpt>
      <trkpt lat="50.83113" lon="2.51457">
        <ele>16.846000671387</ele>
        <time>2011-04-17T09:05:48Z</time>
      </trkpt>
      <trkpt lat="50.8309" lon="2.51527">
        <ele>17.444999694824</ele>
        <time>2011-04-17T09:05:56Z</time>
      </trkpt>
      <trkpt lat="50.83075" lon="2.51565">
        <ele>17.833999633789</ele>
        <time>2011-04-17T09:06:01Z</time>
      </trkpt>
      <trkpt lat="50.83065" lon="2.51571">
        <ele>18.326000213623</ele>
        <time>2011-04-17T09:06:04Z</time>
      </trkpt>
      <trkpt lat="50.83042" lon="2.51549">
        <ele>18.825000762939</ele>
        <time>2011-04-17T09:06:10Z</time>
      </trkpt>
      <trkpt lat="50.83014" lon="2.51544">
        <ele>19.115999221802</ele>
        <time>2011-04-17T09:06:16Z</time>
      </trkpt>
      <trkpt lat="50.83004" lon="2.51558">
        <ele>19.638999938965</ele>
        <time>2011-04-17T09:06:19Z</time>
      </trkpt>
      <trkpt lat="50.82979" lon="2.5161">
        <ele>20.471000671387</ele>
        <time>2011-04-17T09:06:28Z</time>
      </trkpt>
      <trkpt lat="50.82954" lon="2.51654">
        <ele>21.427000045776</ele>
        <time>2011-04-17T09:06:36Z</time>
      </trkpt>
      <trkpt lat="50.8293" lon="2.51693">
        <ele>22.899000167847</ele>
        <time>2011-04-17T09:06:44Z</time>
      </trkpt>
      <trkpt lat="50.82898" lon="2.51739">
        <ele>24.570999145508</ele>
        <time>2011-04-17T09:06:54Z</time>
      </trkpt>
      <trkpt lat="50.82871" lon="2.5177">
        <ele>25.947999954224</ele>
        <time>2011-04-17T09:07:02Z</time>
      </trkpt>
      <trkpt lat="50.82835" lon="2.51802">
        <ele>27.642000198364</ele>
        <time>2011-04-17T09:07:12Z</time>
      </trkpt>
      <trkpt lat="50.82803" lon="2.5183">
        <ele>29.236999511719</ele>
        <time>2011-04-17T09:07:21Z</time>
      </trkpt>
      <trkpt lat="50.82773" lon="2.51856">
        <ele>30.95299911499</ele>
        <time>2011-04-17T09:07:30Z</time>
      </trkpt>
      <trkpt lat="50.82748" lon="2.51879">
        <ele>32.033000946045</ele>
        <time>2011-04-17T09:07:38Z</time>
      </trkpt>
      <trkpt lat="50.8272" lon="2.51907">
        <ele>33.54700088501</ele>
        <time>2011-04-17T09:07:47Z</time>
      </trkpt>
      <trkpt lat="50.82687" lon="2.51942">
        <ele>34.685001373291</ele>
        <time>2011-04-17T09:07:57Z</time>
      </trkpt>
      <trkpt lat="50.82669" lon="2.51963">
        <ele>35.279998779297</ele>
        <time>2011-04-17T09:08:02Z</time>
      </trkpt>
      <trkpt lat="50.82665" lon="2.51967">
        <ele>35.367000579834</ele>
        <time>2011-04-17T09:08:03Z</time>
      </trkpt>
      <trkpt lat="50.82648" lon="2.51975">
        <ele>35.386001586914</ele>
        <time>2011-04-17T09:08:07Z</time>
      </trkpt>
      <trkpt lat="50.82644" lon="2.51972">
        <ele>35.317001342773</ele>
        <time>2011-04-17T09:08:08Z</time>
      </trkpt>
      <trkpt lat="50.82608" lon="2.51945">
        <ele>35.756000518799</ele>
        <time>2011-04-17T09:08:15Z</time>
      </trkpt>
      <trkpt lat="50.82547" lon="2.51921">
        <ele>36.516998291016</ele>
        <time>2011-04-17T09:08:25Z</time>
      </trkpt>
      <trkpt lat="50.82516" lon="2.51908">
        <ele>36.985000610352</ele>
        <time>2011-04-17T09:08:30Z</time>
      </trkpt>
      <trkpt lat="50.82496" lon="2.51887">
        <ele>36.966999053955</ele>
        <time>2011-04-17T09:08:34Z</time>
      </trkpt>
      <trkpt lat="50.82487" lon="2.51851">
        <ele>36.770000457764</ele>
        <time>2011-04-17T09:08:38Z</time>
      </trkpt>
      <trkpt lat="50.82486" lon="2.51842">
        <ele>36.617000579834</ele>
        <time>2011-04-17T09:08:39Z</time>
      </trkpt>
      <trkpt lat="50.82483" lon="2.51815">
        <ele>36.597999572754</ele>
        <time>2011-04-17T09:08:42Z</time>
      </trkpt>
      <trkpt lat="50.82471" lon="2.51808">
        <ele>36.296001434326</ele>
        <time>2011-04-17T09:08:45Z</time>
      </trkpt>
      <trkpt lat="50.82467" lon="2.51812">
        <ele>36.414001464844</ele>
        <time>2011-04-17T09:08:46Z</time>
      </trkpt>
      <trkpt lat="50.82445" lon="2.51869">
        <ele>37.089000701904</ele>
        <time>2011-04-17T09:08:53Z</time>
      </trkpt>
      <trkpt lat="50.82414" lon="2.5192">
        <ele>37.064998626709</ele>
        <time>2011-04-17T09:09:00Z</time>
      </trkpt>
      <trkpt lat="50.82372" lon="2.51974">
        <ele>37.273998260498</ele>
        <time>2011-04-17T09:09:08Z</time>
      </trkpt>
      <trkpt lat="50.82318" lon="2.52044">
        <ele>37.658000946045</ele>
        <time>2011-04-17T09:09:18Z</time>
      </trkpt>
      <trkpt lat="50.82275" lon="2.52102">
        <ele>38.266998291016</ele>
        <time>2011-04-17T09:09:27Z</time>
      </trkpt>
      <trkpt lat="50.8224" lon="2.52152">
        <ele>38.236999511719</ele>
        <time>2011-04-17T09:09:35Z</time>
      </trkpt>
      <trkpt lat="50.82208" lon="2.5219">
        <ele>39.632999420166</ele>
        <time>2011-04-17T09:09:42Z</time>
      </trkpt>
      <trkpt lat="50.8218" lon="2.52226">
        <ele>40.474998474121</ele>
        <time>2011-04-17T09:09:49Z</time>
      </trkpt>
      <trkpt lat="50.82148" lon="2.52262">
        <ele>40.979999542236</ele>
        <time>2011-04-17T09:09:57Z</time>
      </trkpt>
      <trkpt lat="50.82137" lon="2.52275">
        <ele>41.431999206543</ele>
        <time>2011-04-17T09:10:00Z</time>
      </trkpt>
      <trkpt lat="50.82124" lon="2.52303">
        <ele>42.145000457764</ele>
        <time>2011-04-17T09:10:05Z</time>
      </trkpt>
      <trkpt lat="50.82124" lon="2.52308">
        <ele>42.25</ele>
        <time>2011-04-17T09:10:06Z</time>
      </trkpt>
      <trkpt lat="50.82119" lon="2.52354">
        <ele>43.189998626709</ele>
        <time>2011-04-17T09:10:13Z</time>
      </trkpt>
      <trkpt lat="50.82115" lon="2.52406">
        <ele>44.812000274658</ele>
        <time>2011-04-17T09:10:21Z</time>
      </trkpt>
      <trkpt lat="50.8211" lon="2.52464">
        <ele>46.88399887085</ele>
        <time>2011-04-17T09:10:31Z</time>
      </trkpt>
      <trkpt lat="50.82106" lon="2.52504">
        <ele>48.771999359131</ele>
        <time>2011-04-17T09:10:39Z</time>
      </trkpt>
      <trkpt lat="50.82105" lon="2.52536">
        <ele>51.063999176025</ele>
        <time>2011-04-17T09:10:46Z</time>
      </trkpt>
      <trkpt lat="50.82116" lon="2.52565">
        <ele>52.932998657227</ele>
        <time>2011-04-17T09:10:52Z</time>
      </trkpt>
      <trkpt lat="50.82139" lon="2.52617">
        <ele>54.187999725342</ele>
        <time>2011-04-17T09:11:03Z</time>
      </trkpt>
      <trkpt lat="50.8215" lon="2.52645">
        <ele>54.34700012207</ele>
        <time>2011-04-17T09:11:08Z</time>
      </trkpt>
      <trkpt lat="50.82151" lon="2.52679">
        <ele>54.55899810791</ele>
        <time>2011-04-17T09:11:13Z</time>
      </trkpt>
      <trkpt lat="50.82146" lon="2.52697">
        <ele>54.824001312256</ele>
        <time>2011-04-17T09:11:16Z</time>
      </trkpt>
      <trkpt lat="50.82145" lon="2.5271">
        <ele>55.020000457764</ele>
        <time>2011-04-17T09:11:18Z</time>
      </trkpt>
      <trkpt lat="50.8215" lon="2.52745">
        <ele>55.173000335693</ele>
        <time>2011-04-17T09:11:23Z</time>
      </trkpt>
      <trkpt lat="50.82158" lon="2.52765">
        <ele>54.993999481201</ele>
        <time>2011-04-17T09:11:26Z</time>
      </trkpt>
      <trkpt lat="50.82156" lon="2.52786">
        <ele>55.162998199463</ele>
        <time>2011-04-17T09:11:29Z</time>
      </trkpt>
      <trkpt lat="50.82146" lon="2.52799">
        <ele>55.134998321533</ele>
        <time>2011-04-17T09:11:32Z</time>
      </trkpt>
      <trkpt lat="50.82136" lon="2.52796">
        <ele>54.805999755859</ele>
        <time>2011-04-17T09:11:35Z</time>
      </trkpt>
      <trkpt lat="50.82127" lon="2.52791">
        <ele>54.856998443604</ele>
        <time>2011-04-17T09:11:37Z</time>
      </trkpt>
      <trkpt lat="50.82095" lon="2.52754">
        <ele>55.47200012207</ele>
        <time>2011-04-17T09:11:45Z</time>
      </trkpt>
      <trkpt lat="50.82064" lon="2.52706">
        <ele>56.518001556396</ele>
        <time>2011-04-17T09:11:53Z</time>
      </trkpt>
      <trkpt lat="50.82029" lon="2.52654">
        <ele>57.723999023438</ele>
        <time>2011-04-17T09:12:02Z</time>
      </trkpt>
      <trkpt lat="50.81996" lon="2.52621">
        <ele>58.57799911499</ele>
        <time>2011-04-17T09:12:09Z</time>
      </trkpt>
      <trkpt lat="50.81956" lon="2.52593">
        <ele>57.998001098633</ele>
        <time>2011-04-17T09:12:16Z</time>
      </trkpt>
      <trkpt lat="50.81895" lon="2.52548">
        <ele>56.986999511719</ele>
        <time>2011-04-17T09:12:26Z</time>
      </trkpt>
      <trkpt lat="50.81849" lon="2.52515">
        <ele>56.451000213623</ele>
        <time>2011-04-17T09:12:34Z</time>
      </trkpt>
      <trkpt lat="50.81841" lon="2.52495">
        <ele>55.96900177002</ele>
        <time>2011-04-17T09:12:38Z</time>
      </trkpt>
      <trkpt lat="50.81841" lon="2.52489">
        <ele>55.451000213623</ele>
        <time>2011-04-17T09:12:39Z</time>
      </trkpt>
      <trkpt lat="50.81841" lon="2.52482">
        <ele>54.609001159668</ele>
        <time>2011-04-17T09:12:43Z</time>
      </trkpt>
      <trkpt lat="50.81851" lon="2.52471">
        <ele>54.382999420166</ele>
        <time>2011-04-17T09:14:33Z</time>
      </trkpt>
      <trkpt lat="50.81852" lon="2.52465">
        <ele>54.153999328613</ele>
        <time>2011-04-17T09:14:34Z</time>
      </trkpt>
      <trkpt lat="50.81846" lon="2.52422">
        <ele>53.341999053955</ele>
        <time>2011-04-17T09:14:39Z</time>
      </trkpt>
      <trkpt lat="50.81823" lon="2.52361">
        <ele>52.317001342773</ele>
        <time>2011-04-17T09:14:45Z</time>
      </trkpt>
      <trkpt lat="50.81791" lon="2.52295">
        <ele>50.977001190186</ele>
        <time>2011-04-17T09:14:51Z</time>
      </trkpt>
      <trkpt lat="50.81754" lon="2.52239">
        <ele>50.416000366211</ele>
        <time>2011-04-17T09:14:57Z</time>
      </trkpt>
      <trkpt lat="50.81705" lon="2.52184">
        <ele>48.498001098633</ele>
        <time>2011-04-17T09:15:04Z</time>
      </trkpt>
      <trkpt lat="50.81662" lon="2.52133">
        <ele>46.581001281738</ele>
        <time>2011-04-17T09:15:11Z</time>
      </trkpt>
      <trkpt lat="50.8164" lon="2.52108">
        <ele>45.411998748779</ele>
        <time>2011-04-17T09:15:15Z</time>
      </trkpt>
      <trkpt lat="50.81629" lon="2.52095">
        <ele>44.326999664307</ele>
        <time>2011-04-17T09:15:18Z</time>
      </trkpt>
      <trkpt lat="50.8161" lon="2.52071">
        <ele>43.428001403809</ele>
        <time>2011-04-17T09:15:23Z</time>
      </trkpt>
      <trkpt lat="50.81599" lon="2.52054">
        <ele>42.807998657227</ele>
        <time>2011-04-17T09:15:27Z</time>
      </trkpt>
      <trkpt lat="50.81593" lon="2.52048">
        <ele>42.543998718262</ele>
        <time>2011-04-17T09:15:29Z</time>
      </trkpt>
      <trkpt lat="50.8158" lon="2.52028">
        <ele>41.768001556396</ele>
        <time>2011-04-17T09:15:34Z</time>
      </trkpt>
      <trkpt lat="50.81566" lon="2.52006">
        <ele>41.55899810791</ele>
        <time>2011-04-17T09:15:39Z</time>
      </trkpt>
      <trkpt lat="50.81546" lon="2.51974">
        <ele>40.912998199463</ele>
        <time>2011-04-17T09:15:44Z</time>
      </trkpt>
      <trkpt lat="50.81538" lon="2.51961">
        <ele>40.569999694824</ele>
        <time>2011-04-17T09:15:46Z</time>
      </trkpt>
      <trkpt lat="50.81531" lon="2.5195">
        <ele>40.359001159668</ele>
        <time>2011-04-17T09:15:48Z</time>
      </trkpt>
      <trkpt lat="50.81506" lon="2.51905">
        <ele>39.891998291016</ele>
        <time>2011-04-17T09:15:55Z</time>
      </trkpt>
      <trkpt lat="50.81482" lon="2.51867">
        <ele>39.553001403809</ele>
        <time>2011-04-17T09:16:01Z</time>
      </trkpt>
      <trkpt lat="50.81461" lon="2.51831">
        <ele>39.016998291016</ele>
        <time>2011-04-17T09:16:06Z</time>
      </trkpt>
      <trkpt lat="50.81432" lon="2.51771">
        <ele>39.334999084473</ele>
        <time>2011-04-17T09:16:14Z</time>
      </trkpt>
      <trkpt lat="50.81407" lon="2.51736">
        <ele>39.580001831055</ele>
        <time>2011-04-17T09:16:20Z</time>
      </trkpt>
      <trkpt lat="50.81381" lon="2.51711">
        <ele>40.136001586914</ele>
        <time>2011-04-17T09:16:26Z</time>
      </trkpt>
      <trkpt lat="50.81344" lon="2.51688">
        <ele>41.134998321533</ele>
        <time>2011-04-17T09:16:33Z</time>
      </trkpt>
      <trkpt lat="50.81324" lon="2.51674">
        <ele>41.597999572754</ele>
        <time>2011-04-17T09:16:37Z</time>
      </trkpt>
      <trkpt lat="50.81292" lon="2.51633">
        <ele>42.400001525879</ele>
        <time>2011-04-17T09:16:45Z</time>
      </trkpt>
      <trkpt lat="50.81263" lon="2.51591">
        <ele>43.430000305176</ele>
        <time>2011-04-17T09:16:53Z</time>
      </trkpt>
      <trkpt lat="50.81233" lon="2.51552">
        <ele>44.834999084473</ele>
        <time>2011-04-17T09:17:01Z</time>
      </trkpt>
      <trkpt lat="50.81208" lon="2.51514">
        <ele>46.290000915527</ele>
        <time>2011-04-17T09:17:09Z</time>
      </trkpt>
      <trkpt lat="50.81184" lon="2.51469">
        <ele>48.242000579834</ele>
        <time>2011-04-17T09:17:18Z</time>
      </trkpt>
      <trkpt lat="50.81164" lon="2.51422">
        <ele>49.907001495361</ele>
        <time>2011-04-17T09:17:27Z</time>
      </trkpt>
      <trkpt lat="50.81157" lon="2.51407">
        <ele>50.289001464844</ele>
        <time>2011-04-17T09:17:30Z</time>
      </trkpt>
      <trkpt lat="50.81143" lon="2.51377">
        <ele>51.407001495361</ele>
        <time>2011-04-17T09:17:36Z</time>
      </trkpt>
      <trkpt lat="50.81127" lon="2.51377">
        <ele>52.707000732422</ele>
        <time>2011-04-17T09:17:41Z</time>
      </trkpt>
      <trkpt lat="50.81124" lon="2.5138">
        <ele>53.027000427246</ele>
        <time>2011-04-17T09:17:42Z</time>
      </trkpt>
      <trkpt lat="50.81089" lon="2.51405">
        <ele>54.14400100708</ele>
        <time>2011-04-17T09:17:51Z</time>
      </trkpt>
      <trkpt lat="50.81054" lon="2.51432">
        <ele>54.796001434326</ele>
        <time>2011-04-17T09:17:59Z</time>
      </trkpt>
      <trkpt lat="50.81008" lon="2.51468">
        <ele>55.136001586914</ele>
        <time>2011-04-17T09:18:09Z</time>
      </trkpt>
      <trkpt lat="50.81004" lon="2.51471">
        <ele>55.138999938965</ele>
        <time>2011-04-17T09:18:10Z</time>
      </trkpt>
      <trkpt lat="50.80987" lon="2.51469">
        <ele>54.790000915527</ele>
        <time>2011-04-17T09:18:14Z</time>
      </trkpt>
      <trkpt lat="50.80979" lon="2.5145">
        <ele>54.909000396729</ele>
        <time>2011-04-17T09:18:17Z</time>
      </trkpt>
      <trkpt lat="50.80956" lon="2.51396">
        <ele>55.939998626709</ele>
        <time>2011-04-17T09:18:25Z</time>
      </trkpt>
      <trkpt lat="50.80935" lon="2.51341">
        <ele>56.680000305176</ele>
        <time>2011-04-17T09:18:33Z</time>
      </trkpt>
      <trkpt lat="50.8091" lon="2.51282">
        <ele>57.978000640869</ele>
        <time>2011-04-17T09:18:42Z</time>
      </trkpt>
      <trkpt lat="50.80883" lon="2.51225">
        <ele>59.181999206543</ele>
        <time>2011-04-17T09:18:51Z</time>
      </trkpt>
      <trkpt lat="50.80856" lon="2.51164">
        <ele>61.013000488281</ele>
        <time>2011-04-17T09:19:01Z</time>
      </trkpt>
      <trkpt lat="50.80836" lon="2.51109">
        <ele>63.75</ele>
        <time>2011-04-17T09:19:11Z</time>
      </trkpt>
      <trkpt lat="50.80822" lon="2.51072">
        <ele>65.978996276855</ele>
        <time>2011-04-17T09:19:18Z</time>
      </trkpt>
      <trkpt lat="50.8081" lon="2.51042">
        <ele>67.675003051758</ele>
        <time>2011-04-17T09:19:25Z</time>
      </trkpt>
      <trkpt lat="50.80811" lon="2.51034">
        <ele>68.203002929688</ele>
        <time>2011-04-17T09:19:27Z</time>
      </trkpt>
      <trkpt lat="50.80831" lon="2.51019">
        <ele>68.872001647949</ele>
        <time>2011-04-17T09:19:33Z</time>
      </trkpt>
      <trkpt lat="50.80862" lon="2.50996">
        <ele>68.265998840332</ele>
        <time>2011-04-17T09:19:39Z</time>
      </trkpt>
      <trkpt lat="50.8091" lon="2.5095">
        <ele>67.107002258301</ele>
        <time>2011-04-17T09:19:48Z</time>
      </trkpt>
      <trkpt lat="50.80929" lon="2.50924">
        <ele>66.722999572754</ele>
        <time>2011-04-17T09:19:52Z</time>
      </trkpt>
      <trkpt lat="50.8089" lon="2.50851">
        <ele>64.13200378418</ele>
        <time>2011-04-17T09:20:04Z</time>
      </trkpt>
      <trkpt lat="50.80854" lon="2.50807">
        <ele>63.026000976562</ele>
        <time>2011-04-17T09:20:10Z</time>
      </trkpt>
      <trkpt lat="50.8082" lon="2.5077">
        <ele>62.388999938965</ele>
        <time>2011-04-17T09:20:16Z</time>
      </trkpt>
      <trkpt lat="50.80774" lon="2.50733">
        <ele>61.783000946045</ele>
        <time>2011-04-17T09:20:23Z</time>
      </trkpt>
      <trkpt lat="50.80732" lon="2.50713">
        <ele>61.208999633789</ele>
        <time>2011-04-17T09:20:29Z</time>
      </trkpt>
      <trkpt lat="50.80701" lon="2.50708">
        <ele>61.154998779297</ele>
        <time>2011-04-17T09:20:34Z</time>
      </trkpt>
      <trkpt lat="50.8068" lon="2.50705">
        <ele>62.185001373291</ele>
        <time>2011-04-17T09:20:39Z</time>
      </trkpt>
      <trkpt lat="50.80666" lon="2.50699">
        <ele>63.312000274658</ele>
        <time>2011-04-17T09:20:45Z</time>
      </trkpt>
      <trkpt lat="50.80666" lon="2.50699">
        <ele>63.255001068115</ele>
        <time>2011-04-17T09:20:48Z</time>
      </trkpt>
      <trkpt lat="50.80664" lon="2.50695">
        <ele>63.056999206543</ele>
        <time>2011-04-17T09:28:48Z</time>
      </trkpt>
      <trkpt lat="50.80651" lon="2.50684">
        <ele>63.126998901367</ele>
        <time>2011-04-17T09:28:54Z</time>
      </trkpt>
      <trkpt lat="50.8064" lon="2.50673">
        <ele>63.209999084473</ele>
        <time>2011-04-17T09:28:58Z</time>
      </trkpt>
      <trkpt lat="50.80617" lon="2.5065">
        <ele>63.500999450684</ele>
        <time>2011-04-17T09:29:03Z</time>
      </trkpt>
      <trkpt lat="50.80562" lon="2.50597">
        <ele>63.837001800537</ele>
        <time>2011-04-17T09:29:13Z</time>
      </trkpt>
      <trkpt lat="50.80508" lon="2.50549">
        <ele>62.763999938965</ele>
        <time>2011-04-17T09:29:22Z</time>
      </trkpt>
      <trkpt lat="50.80485" lon="2.50528">
        <ele>62.65599822998</ele>
        <time>2011-04-17T09:29:26Z</time>
      </trkpt>
      <trkpt lat="50.80465" lon="2.50498">
        <ele>62.40599822998</ele>
        <time>2011-04-17T09:29:30Z</time>
      </trkpt>
      <trkpt lat="50.80439" lon="2.5044">
        <ele>62.370998382568</ele>
        <time>2011-04-17T09:29:37Z</time>
      </trkpt>
      <trkpt lat="50.8043" lon="2.50418">
        <ele>62.668998718262</ele>
        <time>2011-04-17T09:29:40Z</time>
      </trkpt>
      <trkpt lat="50.80429" lon="2.50381">
        <ele>63.544998168945</ele>
        <time>2011-04-17T09:29:45Z</time>
      </trkpt>
      <trkpt lat="50.80443" lon="2.50304">
        <ele>63.660999298096</ele>
        <time>2011-04-17T09:29:54Z</time>
      </trkpt>
      <trkpt lat="50.80449" lon="2.50239">
        <ele>64.023002624512</ele>
        <time>2011-04-17T09:30:02Z</time>
      </trkpt>
      <trkpt lat="50.80454" lon="2.50177">
        <ele>64.237998962402</ele>
        <time>2011-04-17T09:30:10Z</time>
      </trkpt>
      <trkpt lat="50.80456" lon="2.50161">
        <ele>64.133003234863</ele>
        <time>2011-04-17T09:30:12Z</time>
      </trkpt>
      <trkpt lat="50.80452" lon="2.50116">
        <ele>63.423999786377</ele>
        <time>2011-04-17T09:30:17Z</time>
      </trkpt>
      <trkpt lat="50.8045" lon="2.50106">
        <ele>63.108001708984</ele>
        <time>2011-04-17T09:30:18Z</time>
      </trkpt>
      <trkpt lat="50.80418" lon="2.50031">
        <ele>62.506999969482</ele>
        <time>2011-04-17T09:30:26Z</time>
      </trkpt>
      <trkpt lat="50.80396" lon="2.4999">
        <ele>62.785999298096</ele>
        <time>2011-04-17T09:30:31Z</time>
      </trkpt>
      <trkpt lat="50.80373" lon="2.49931">
        <ele>63.431999206543</ele>
        <time>2011-04-17T09:30:38Z</time>
      </trkpt>
      <trkpt lat="50.80349" lon="2.49882">
        <ele>64.165000915527</ele>
        <time>2011-04-17T09:30:45Z</time>
      </trkpt>
      <trkpt lat="50.80333" lon="2.4985">
        <ele>65.220001220703</ele>
        <time>2011-04-17T09:30:51Z</time>
      </trkpt>
      <trkpt lat="50.80333" lon="2.49829">
        <ele>66.481002807617</ele>
        <time>2011-04-17T09:30:55Z</time>
      </trkpt>
      <trkpt lat="50.80343" lon="2.49807">
        <ele>67.792999267578</ele>
        <time>2011-04-17T09:31:00Z</time>
      </trkpt>
      <trkpt lat="50.80359" lon="2.49774">
        <ele>69.399002075195</ele>
        <time>2011-04-17T09:31:07Z</time>
      </trkpt>
      <trkpt lat="50.80367" lon="2.49744">
        <ele>70.975997924805</ele>
        <time>2011-04-17T09:31:13Z</time>
      </trkpt>
      <trkpt lat="50.8037" lon="2.49734">
        <ele>71.253997802734</ele>
        <time>2011-04-17T09:31:15Z</time>
      </trkpt>
      <trkpt lat="50.80391" lon="2.49698">
        <ele>70.736000061035</ele>
        <time>2011-04-17T09:31:21Z</time>
      </trkpt>
      <trkpt lat="50.80418" lon="2.49649">
        <ele>69.444000244141</ele>
        <time>2011-04-17T09:31:27Z</time>
      </trkpt>
      <trkpt lat="50.80429" lon="2.49608">
        <ele>68.083999633789</ele>
        <time>2011-04-17T09:31:31Z</time>
      </trkpt>
      <trkpt lat="50.80433" lon="2.4959">
        <ele>67.503997802734</ele>
        <time>2011-04-17T09:31:33Z</time>
      </trkpt>
      <trkpt lat="50.80443" lon="2.49572">
        <ele>67.533996582031</ele>
        <time>2011-04-17T09:31:36Z</time>
      </trkpt>
      <trkpt lat="50.80452" lon="2.49545">
        <ele>69.194000244141</ele>
        <time>2011-04-17T09:31:40Z</time>
      </trkpt>
      <trkpt lat="50.80452" lon="2.49544">
        <ele>69.383003234863</ele>
        <time>2011-04-17T09:31:41Z</time>
      </trkpt>
      <trkpt lat="50.80444" lon="2.49542">
        <ele>69.305999755859</ele>
        <time>2011-04-17T09:31:46Z</time>
      </trkpt>
      <trkpt lat="50.80442" lon="2.4953">
        <ele>69.450996398926</ele>
        <time>2011-04-17T09:31:50Z</time>
      </trkpt>
      <trkpt lat="50.80454" lon="2.49504">
        <ele>68.596000671387</ele>
        <time>2011-04-17T09:31:55Z</time>
      </trkpt>
      <trkpt lat="50.80481" lon="2.49455">
        <ele>65.954002380371</ele>
        <time>2011-04-17T09:32:02Z</time>
      </trkpt>
      <trkpt lat="50.8051" lon="2.49401">
        <ele>63.747001647949</ele>
        <time>2011-04-17T09:32:09Z</time>
      </trkpt>
      <trkpt lat="50.80535" lon="2.49357">
        <ele>61.955001831055</ele>
        <time>2011-04-17T09:32:15Z</time>
      </trkpt>
      <trkpt lat="50.80545" lon="2.49334">
        <ele>61.645000457764</ele>
        <time>2011-04-17T09:32:19Z</time>
      </trkpt>
      <trkpt lat="50.80566" lon="2.49295">
        <ele>61.692001342773</ele>
        <time>2011-04-17T09:32:25Z</time>
      </trkpt>
      <trkpt lat="50.80585" lon="2.49254">
        <ele>62.273998260498</ele>
        <time>2011-04-17T09:32:32Z</time>
      </trkpt>
      <trkpt lat="50.80579" lon="2.49237">
        <ele>62.651000976562</ele>
        <time>2011-04-17T09:32:36Z</time>
      </trkpt>
      <trkpt lat="50.80564" lon="2.49213">
        <ele>63.551998138428</ele>
        <time>2011-04-17T09:32:42Z</time>
      </trkpt>
      <trkpt lat="50.80547" lon="2.49182">
        <ele>65.142997741699</ele>
        <time>2011-04-17T09:32:50Z</time>
      </trkpt>
      <trkpt lat="50.80535" lon="2.49162">
        <ele>66.144996643066</ele>
        <time>2011-04-17T09:32:56Z</time>
      </trkpt>
      <trkpt lat="50.80523" lon="2.49144">
        <ele>67.641998291016</ele>
        <time>2011-04-17T09:33:02Z</time>
      </trkpt>
      <trkpt lat="50.80502" lon="2.49114">
        <ele>70.175003051758</ele>
        <time>2011-04-17T09:33:13Z</time>
      </trkpt>
      <trkpt lat="50.80489" lon="2.49092">
        <ele>72.717002868652</ele>
        <time>2011-04-17T09:33:21Z</time>
      </trkpt>
      <trkpt lat="50.80482" lon="2.49071">
        <ele>74.927001953125</ele>
        <time>2011-04-17T09:33:28Z</time>
      </trkpt>
      <trkpt lat="50.80479" lon="2.49066">
        <ele>75.564002990723</ele>
        <time>2011-04-17T09:33:30Z</time>
      </trkpt>
      <trkpt lat="50.80479" lon="2.49047">
        <ele>77.411003112793</ele>
        <time>2011-04-17T09:33:36Z</time>
      </trkpt>
      <trkpt lat="50.8049" lon="2.49014">
        <ele>77.791000366211</ele>
        <time>2011-04-17T09:33:44Z</time>
      </trkpt>
      <trkpt lat="50.80499" lon="2.48984">
        <ele>76.63200378418</ele>
        <time>2011-04-17T09:33:49Z</time>
      </trkpt>
      <trkpt lat="50.80496" lon="2.48966">
        <ele>75.318000793457</ele>
        <time>2011-04-17T09:33:53Z</time>
      </trkpt>
      <trkpt lat="50.80493" lon="2.48964">
        <ele>75.470001220703</ele>
        <time>2011-04-17T09:33:55Z</time>
      </trkpt>
      <trkpt lat="50.80481" lon="2.48954">
        <ele>76.523002624512</ele>
        <time>2011-04-17T09:34:02Z</time>
      </trkpt>
      <trkpt lat="50.80472" lon="2.48939">
        <ele>77.894996643066</ele>
        <time>2011-04-17T09:34:09Z</time>
      </trkpt>
      <trkpt lat="50.80474" lon="2.48926">
        <ele>79.269996643066</ele>
        <time>2011-04-17T09:34:14Z</time>
      </trkpt>
      <trkpt lat="50.80484" lon="2.48911">
        <ele>80.247001647949</ele>
        <time>2011-04-17T09:34:21Z</time>
      </trkpt>
      <trkpt lat="50.80499" lon="2.48887">
        <ele>81.732002258301</ele>
        <time>2011-04-17T09:34:31Z</time>
      </trkpt>
      <trkpt lat="50.80512" lon="2.48867">
        <ele>82.717002868652</ele>
        <time>2011-04-17T09:34:39Z</time>
      </trkpt>
      <trkpt lat="50.80523" lon="2.48851">
        <ele>83.047996520996</ele>
        <time>2011-04-17T09:34:46Z</time>
      </trkpt>
      <trkpt lat="50.80521" lon="2.48837">
        <ele>83.164001464844</ele>
        <time>2011-04-17T09:34:51Z</time>
      </trkpt>
      <trkpt lat="50.80519" lon="2.48836">
        <ele>83.487998962402</ele>
        <time>2011-04-17T09:34:52Z</time>
      </trkpt>
      <trkpt lat="50.80495" lon="2.48832">
        <ele>85.456001281738</ele>
        <time>2011-04-17T09:35:02Z</time>
      </trkpt>
      <trkpt lat="50.80474" lon="2.48828">
        <ele>87.459999084473</ele>
        <time>2011-04-17T09:35:11Z</time>
      </trkpt>
      <trkpt lat="50.80463" lon="2.48821">
        <ele>88.791999816895</ele>
        <time>2011-04-17T09:35:18Z</time>
      </trkpt>
      <trkpt lat="50.80457" lon="2.48817">
        <ele>89.603996276855</ele>
        <time>2011-04-17T09:35:23Z</time>
      </trkpt>
      <trkpt lat="50.80447" lon="2.4881">
        <ele>92.016998291016</ele>
        <time>2011-04-17T09:35:31Z</time>
      </trkpt>
      <trkpt lat="50.80439" lon="2.48805">
        <ele>94.137001037598</ele>
        <time>2011-04-17T09:35:37Z</time>
      </trkpt>
      <trkpt lat="50.80428" lon="2.48799">
        <ele>97.127998352051</ele>
        <time>2011-04-17T09:35:46Z</time>
      </trkpt>
      <trkpt lat="50.8042" lon="2.48803">
        <ele>98.649002075195</ele>
        <time>2011-04-17T09:35:51Z</time>
      </trkpt>
      <trkpt lat="50.80412" lon="2.48809">
        <ele>99.416000366211</ele>
        <time>2011-04-17T09:35:56Z</time>
      </trkpt>
      <trkpt lat="50.80397" lon="2.48812">
        <ele>99.736000061035</ele>
        <time>2011-04-17T09:36:03Z</time>
      </trkpt>
      <trkpt lat="50.80379" lon="2.48817">
        <ele>100.23100280762</ele>
        <time>2011-04-17T09:36:10Z</time>
      </trkpt>
      <trkpt lat="50.80363" lon="2.48819">
        <ele>101.22499847412</ele>
        <time>2011-04-17T09:36:17Z</time>
      </trkpt>
      <trkpt lat="50.80349" lon="2.48826">
        <ele>102.3690032959</ele>
        <time>2011-04-17T09:36:24Z</time>
      </trkpt>
      <trkpt lat="50.80338" lon="2.48829">
        <ele>104.40799713135</ele>
        <time>2011-04-17T09:36:30Z</time>
      </trkpt>
      <trkpt lat="50.80328" lon="2.48829">
        <ele>106.16100311279</ele>
        <time>2011-04-17T09:36:36Z</time>
      </trkpt>
      <trkpt lat="50.80316" lon="2.48833">
        <ele>108.02700042725</ele>
        <time>2011-04-17T09:36:43Z</time>
      </trkpt>
      <trkpt lat="50.80306" lon="2.48841">
        <ele>109.99299621582</ele>
        <time>2011-04-17T09:36:50Z</time>
      </trkpt>
      <trkpt lat="50.80299" lon="2.48852">
        <ele>112.03800201416</ele>
        <time>2011-04-17T09:36:56Z</time>
      </trkpt>
      <trkpt lat="50.80294" lon="2.48849">
        <ele>113.56199645996</ele>
        <time>2011-04-17T09:37:00Z</time>
      </trkpt>
      <trkpt lat="50.80291" lon="2.48843">
        <ele>114.88400268555</ele>
        <time>2011-04-17T09:37:03Z</time>
      </trkpt>
      <trkpt lat="50.80291" lon="2.48834">
        <ele>116.37699890137</ele>
        <time>2011-04-17T09:37:08Z</time>
      </trkpt>
      <trkpt lat="50.80294" lon="2.48821">
        <ele>118.7620010376</ele>
        <time>2011-04-17T09:37:16Z</time>
      </trkpt>
      <trkpt lat="50.80296" lon="2.48817">
        <ele>119.30500030518</ele>
        <time>2011-04-17T09:37:18Z</time>
      </trkpt>
      <trkpt lat="50.80301" lon="2.48809">
        <ele>120.26000213623</ele>
        <time>2011-04-17T09:37:23Z</time>
      </trkpt>
      <trkpt lat="50.80308" lon="2.48793">
        <ele>121.34700012207</ele>
        <time>2011-04-17T09:37:30Z</time>
      </trkpt>
      <trkpt lat="50.80315" lon="2.48771">
        <ele>122.58699798584</ele>
        <time>2011-04-17T09:37:39Z</time>
      </trkpt>
      <trkpt lat="50.80319" lon="2.48747">
        <ele>124.73000335693</ele>
        <time>2011-04-17T09:37:48Z</time>
      </trkpt>
      <trkpt lat="50.80322" lon="2.48733">
        <ele>125.62799835205</ele>
        <time>2011-04-17T09:37:53Z</time>
      </trkpt>
      <trkpt lat="50.80319" lon="2.48722">
        <ele>126.05799865723</ele>
        <time>2011-04-17T09:37:58Z</time>
      </trkpt>
      <trkpt lat="50.8031" lon="2.48727">
        <ele>126.41799926758</ele>
        <time>2011-04-17T09:38:02Z</time>
      </trkpt>
      <trkpt lat="50.8029" lon="2.48745">
        <ele>127.40699768066</ele>
        <time>2011-04-17T09:38:09Z</time>
      </trkpt>
      <trkpt lat="50.80278" lon="2.48771">
        <ele>128.45300292969</ele>
        <time>2011-04-17T09:38:15Z</time>
      </trkpt>
      <trkpt lat="50.80268" lon="2.48798">
        <ele>129.41700744629</ele>
        <time>2011-04-17T09:38:21Z</time>
      </trkpt>
      <trkpt lat="50.80252" lon="2.48817">
        <ele>130.16999816894</ele>
        <time>2011-04-17T09:38:27Z</time>
      </trkpt>
      <trkpt lat="50.80242" lon="2.488">
        <ele>130.90299987793</ele>
        <time>2011-04-17T09:38:32Z</time>
      </trkpt>
      <trkpt lat="50.80231" lon="2.48772">
        <ele>132.39399719238</ele>
        <time>2011-04-17T09:38:39Z</time>
      </trkpt>
      <trkpt lat="50.80219" lon="2.48767">
        <ele>134.22900390625</ele>
        <time>2011-04-17T09:38:45Z</time>
      </trkpt>
      <trkpt lat="50.80209" lon="2.48752">
        <ele>136.51499938965</ele>
        <time>2011-04-17T09:38:52Z</time>
      </trkpt>
      <trkpt lat="50.80202" lon="2.48733">
        <ele>138.46200561523</ele>
        <time>2011-04-17T09:38:59Z</time>
      </trkpt>
      <trkpt lat="50.80195" lon="2.48704">
        <ele>141.22399902344</ele>
        <time>2011-04-17T09:39:09Z</time>
      </trkpt>
      <trkpt lat="50.80187" lon="2.48691">
        <ele>143.24899291992</ele>
        <time>2011-04-17T09:39:15Z</time>
      </trkpt>
      <trkpt lat="50.80178" lon="2.48668">
        <ele>146.02400207519</ele>
        <time>2011-04-17T09:39:25Z</time>
      </trkpt>
      <trkpt lat="50.80169" lon="2.48657">
        <ele>146.66600036621</ele>
        <time>2011-04-17T09:39:32Z</time>
      </trkpt>
      <trkpt lat="50.80161" lon="2.48643">
        <ele>148.62899780273</ele>
        <time>2011-04-17T09:39:39Z</time>
      </trkpt>
      <trkpt lat="50.80151" lon="2.48628">
        <ele>150.60299682617</ele>
        <time>2011-04-17T09:39:47Z</time>
      </trkpt>
      <trkpt lat="50.80145" lon="2.48622">
        <ele>152.28500366211</ele>
        <time>2011-04-17T09:39:51Z</time>
      </trkpt>
      <trkpt lat="50.80135" lon="2.48611">
        <ele>153.98100280762</ele>
        <time>2011-04-17T09:39:58Z</time>
      </trkpt>
      <trkpt lat="50.8013" lon="2.48605">
        <ele>155.03500366211</ele>
        <time>2011-04-17T09:40:02Z</time>
      </trkpt>
      <trkpt lat="50.80131" lon="2.48596">
        <ele>156.21299743652</ele>
        <time>2011-04-17T09:40:07Z</time>
      </trkpt>
      <trkpt lat="50.80134" lon="2.48594">
        <ele>156.9049987793</ele>
        <time>2011-04-17T09:40:09Z</time>
      </trkpt>
      <trkpt lat="50.80144" lon="2.48596">
        <ele>159.65199279785</ele>
        <time>2011-04-17T09:40:17Z</time>
      </trkpt>
      <trkpt lat="50.80145" lon="2.48596">
        <ele>159.86099243164</ele>
        <time>2011-04-17T09:40:18Z</time>
      </trkpt>
      <trkpt lat="50.80145" lon="2.48584">
        <ele>162.30099487305</ele>
        <time>2011-04-17T09:40:25Z</time>
      </trkpt>
      <trkpt lat="50.80136" lon="2.48575">
        <ele>163.70599365234</ele>
        <time>2011-04-17T09:40:32Z</time>
      </trkpt>
      <trkpt lat="50.80124" lon="2.48566">
        <ele>164.72599792481</ele>
        <time>2011-04-17T09:40:40Z</time>
      </trkpt>
      <trkpt lat="50.80118" lon="2.48546">
        <ele>165.39700317383</ele>
        <time>2011-04-17T09:40:46Z</time>
      </trkpt>
      <trkpt lat="50.80121" lon="2.4852">
        <ele>165.80999755859</ele>
        <time>2011-04-17T09:40:52Z</time>
      </trkpt>
      <trkpt lat="50.80127" lon="2.48499">
        <ele>165.78900146484</ele>
        <time>2011-04-17T09:40:57Z</time>
      </trkpt>
      <trkpt lat="50.80136" lon="2.48469">
        <ele>165.65800476074</ele>
        <time>2011-04-17T09:41:04Z</time>
      </trkpt>
      <trkpt lat="50.8014" lon="2.48436">
        <ele>165.42799377441</ele>
        <time>2011-04-17T09:41:11Z</time>
      </trkpt>
      <trkpt lat="50.80135" lon="2.48403">
        <ele>165.22099304199</ele>
        <time>2011-04-17T09:41:16Z</time>
      </trkpt>
      <trkpt lat="50.80131" lon="2.48378">
        <ele>165.40100097656</ele>
        <time>2011-04-17T09:41:19Z</time>
      </trkpt>
      <trkpt lat="50.8013" lon="2.4834">
        <ele>164.10499572754</ele>
        <time>2011-04-17T09:41:24Z</time>
      </trkpt>
      <trkpt lat="50.8014" lon="2.48295">
        <ele>161.13999938965</ele>
        <time>2011-04-17T09:41:29Z</time>
      </trkpt>
      <trkpt lat="50.8015" lon="2.48289">
        <ele>159.84399414062</ele>
        <time>2011-04-17T09:41:31Z</time>
      </trkpt>
      <trkpt lat="50.80156" lon="2.48291">
        <ele>159.35299682617</ele>
        <time>2011-04-17T09:41:32Z</time>
      </trkpt>
      <trkpt lat="50.8019" lon="2.48304">
        <ele>157.93099975586</ele>
        <time>2011-04-17T09:41:37Z</time>
      </trkpt>
      <trkpt lat="50.80224" lon="2.48303">
        <ele>156.09599304199</ele>
        <time>2011-04-17T09:41:42Z</time>
      </trkpt>
      <trkpt lat="50.80238" lon="2.48288">
        <ele>154.33500671387</ele>
        <time>2011-04-17T09:41:45Z</time>
      </trkpt>
      <trkpt lat="50.8024" lon="2.48259">
        <ele>153.25900268555</ele>
        <time>2011-04-17T09:41:48Z</time>
      </trkpt>
      <trkpt lat="50.80242" lon="2.48239">
        <ele>152.97799682617</ele>
        <time>2011-04-17T09:41:50Z</time>
      </trkpt>
      <trkpt lat="50.80231" lon="2.4821">
        <ele>152.9640045166</ele>
        <time>2011-04-17T09:41:54Z</time>
      </trkpt>
      <trkpt lat="50.80219" lon="2.48204">
        <ele>153.06199645996</ele>
        <time>2011-04-17T09:41:56Z</time>
      </trkpt>
      <trkpt lat="50.80207" lon="2.48199">
        <ele>153.39799499512</ele>
        <time>2011-04-17T09:41:58Z</time>
      </trkpt>
      <trkpt lat="50.80194" lon="2.48177">
        <ele>154.58700561523</ele>
        <time>2011-04-17T09:42:02Z</time>
      </trkpt>
      <trkpt lat="50.80195" lon="2.48168">
        <ele>154.8690032959</ele>
        <time>2011-04-17T09:42:03Z</time>
      </trkpt>
      <trkpt lat="50.80207" lon="2.48074">
        <ele>155.57099914551</ele>
        <time>2011-04-17T09:42:13Z</time>
      </trkpt>
      <trkpt lat="50.80215" lon="2.47992">
        <ele>154.86799621582</ele>
        <time>2011-04-17T09:42:21Z</time>
      </trkpt>
      <trkpt lat="50.8022" lon="2.479">
        <ele>153.26899719238</ele>
        <time>2011-04-17T09:42:29Z</time>
      </trkpt>
      <trkpt lat="50.80224" lon="2.47838">
        <ele>151.95399475098</ele>
        <time>2011-04-17T09:42:34Z</time>
      </trkpt>
      <trkpt lat="50.80217" lon="2.47789">
        <ele>150.43400573731</ele>
        <time>2011-04-17T09:42:38Z</time>
      </trkpt>
      <trkpt lat="50.80186" lon="2.47699">
        <ele>147.66799926758</ele>
        <time>2011-04-17T09:42:45Z</time>
      </trkpt>
      <trkpt lat="50.80157" lon="2.47649">
        <ele>145.74099731445</ele>
        <time>2011-04-17T09:42:49Z</time>
      </trkpt>
      <trkpt lat="50.8015" lon="2.47636">
        <ele>145.44000244141</ele>
        <time>2011-04-17T09:42:50Z</time>
      </trkpt>
      <trkpt lat="50.80143" lon="2.47622">
        <ele>144.83099365234</ele>
        <time>2011-04-17T09:42:51Z</time>
      </trkpt>
      <trkpt lat="50.80114" lon="2.47541">
        <ele>141.83500671387</ele>
        <time>2011-04-17T09:42:56Z</time>
      </trkpt>
      <trkpt lat="50.80107" lon="2.47525">
        <ele>140.91799926758</ele>
        <time>2011-04-17T09:42:57Z</time>
      </trkpt>
      <trkpt lat="50.80095" lon="2.47471">
        <ele>139.53799438477</ele>
        <time>2011-04-17T09:43:00Z</time>
      </trkpt>
      <trkpt lat="50.80095" lon="2.47452">
        <ele>139.17399597168</ele>
        <time>2011-04-17T09:43:01Z</time>
      </trkpt>
      <trkpt lat="50.80096" lon="2.47415">
        <ele>137.54699707031</ele>
        <time>2011-04-17T09:43:03Z</time>
      </trkpt>
      <trkpt lat="50.80087" lon="2.47372">
        <ele>135.1190032959</ele>
        <time>2011-04-17T09:43:06Z</time>
      </trkpt>
      <trkpt lat="50.80061" lon="2.47346">
        <ele>131.6609954834</ele>
        <time>2011-04-17T09:43:09Z</time>
      </trkpt>
      <trkpt lat="50.80043" lon="2.47313">
        <ele>129.63900756836</ele>
        <time>2011-04-17T09:43:12Z</time>
      </trkpt>
      <trkpt lat="50.80044" lon="2.47283">
        <ele>128.46600341797</ele>
        <time>2011-04-17T09:43:14Z</time>
      </trkpt>
      <trkpt lat="50.80061" lon="2.47259">
        <ele>127.26999664307</ele>
        <time>2011-04-17T09:43:16Z</time>
      </trkpt>
      <trkpt lat="50.80088" lon="2.47241">
        <ele>124.83499908447</ele>
        <time>2011-04-17T09:43:19Z</time>
      </trkpt>
      <trkpt lat="50.80096" lon="2.47233">
        <ele>124.43199920654</ele>
        <time>2011-04-17T09:43:20Z</time>
      </trkpt>
      <trkpt lat="50.80112" lon="2.47193">
        <ele>121.22699737549</ele>
        <time>2011-04-17T09:43:25Z</time>
      </trkpt>
      <trkpt lat="50.80109" lon="2.47183">
        <ele>120.66000366211</ele>
        <time>2011-04-17T09:43:26Z</time>
      </trkpt>
      <trkpt lat="50.80103" lon="2.47143">
        <ele>117.48600006103</ele>
        <time>2011-04-17T09:43:32Z</time>
      </trkpt>
      <trkpt lat="50.80094" lon="2.47127">
        <ele>114.98899841309</ele>
        <time>2011-04-17T09:43:36Z</time>
      </trkpt>
      <trkpt lat="50.80097" lon="2.47116">
        <ele>113.42600250244</ele>
        <time>2011-04-17T09:43:38Z</time>
      </trkpt>
      <trkpt lat="50.80101" lon="2.47106">
        <ele>111.98600006103</ele>
        <time>2011-04-17T09:43:40Z</time>
      </trkpt>
      <trkpt lat="50.80104" lon="2.47078">
        <ele>108.55999755859</ele>
        <time>2011-04-17T09:43:44Z</time>
      </trkpt>
      <trkpt lat="50.80111" lon="2.47045">
        <ele>106.08399963379</ele>
        <time>2011-04-17T09:43:50Z</time>
      </trkpt>
      <trkpt lat="50.80117" lon="2.47027">
        <ele>104.45899963379</ele>
        <time>2011-04-17T09:43:53Z</time>
      </trkpt>
      <trkpt lat="50.80127" lon="2.46998">
        <ele>101.25199890137</ele>
        <time>2011-04-17T09:43:58Z</time>
      </trkpt>
      <trkpt lat="50.80129" lon="2.46984">
        <ele>99.838996887207</ele>
        <time>2011-04-17T09:44:00Z</time>
      </trkpt>
      <trkpt lat="50.80142" lon="2.46975">
        <ele>97.041000366211</ele>
        <time>2011-04-17T09:44:04Z</time>
      </trkpt>
      <trkpt lat="50.80162" lon="2.4698">
        <ele>92.892997741699</ele>
        <time>2011-04-17T09:44:08Z</time>
      </trkpt>
      <trkpt lat="50.80167" lon="2.4698">
        <ele>91.689002990723</ele>
        <time>2011-04-17T09:44:09Z</time>
      </trkpt>
      <trkpt lat="50.80199" lon="2.46986">
        <ele>86.300003051758</ele>
        <time>2011-04-17T09:44:14Z</time>
      </trkpt>
      <trkpt lat="50.80205" lon="2.46986">
        <ele>85.105003356934</ele>
        <time>2011-04-17T09:44:15Z</time>
      </trkpt>
      <trkpt lat="50.80211" lon="2.46977">
        <ele>82.406997680664</ele>
        <time>2011-04-17T09:44:19Z</time>
      </trkpt>
      <trkpt lat="50.80212" lon="2.46957">
        <ele>83.054000854492</ele>
        <time>2011-04-17T09:44:23Z</time>
      </trkpt>
      <trkpt lat="50.80215" lon="2.46942">
        <ele>83.873001098633</ele>
        <time>2011-04-17T09:44:26Z</time>
      </trkpt>
      <trkpt lat="50.80205" lon="2.4692">
        <ele>85.057998657227</ele>
        <time>2011-04-17T09:44:31Z</time>
      </trkpt>
      <trkpt lat="50.80204" lon="2.46889">
        <ele>86.61499786377</ele>
        <time>2011-04-17T09:44:36Z</time>
      </trkpt>
      <trkpt lat="50.80206" lon="2.46875">
        <ele>87.640998840332</ele>
        <time>2011-04-17T09:44:39Z</time>
      </trkpt>
      <trkpt lat="50.80197" lon="2.46855">
        <ele>87.806999206543</ele>
        <time>2011-04-17T09:44:44Z</time>
      </trkpt>
      <trkpt lat="50.80195" lon="2.46851">
        <ele>87.759002685547</ele>
        <time>2011-04-17T09:44:45Z</time>
      </trkpt>
      <trkpt lat="50.80192" lon="2.46812">
        <ele>87.71900177002</ele>
        <time>2011-04-17T09:44:52Z</time>
      </trkpt>
      <trkpt lat="50.80191" lon="2.46785">
        <ele>87.995002746582</ele>
        <time>2011-04-17T09:44:57Z</time>
      </trkpt>
      <trkpt lat="50.80193" lon="2.46764">
        <ele>87.99299621582</ele>
        <time>2011-04-17T09:45:01Z</time>
      </trkpt>
      <trkpt lat="50.80201" lon="2.46738">
        <ele>88.598999023438</ele>
        <time>2011-04-17T09:45:07Z</time>
      </trkpt>
      <trkpt lat="50.80208" lon="2.46712">
        <ele>89.404998779297</ele>
        <time>2011-04-17T09:45:12Z</time>
      </trkpt>
      <trkpt lat="50.80215" lon="2.46694">
        <ele>90.149002075195</ele>
        <time>2011-04-17T09:45:16Z</time>
      </trkpt>
      <trkpt lat="50.80219" lon="2.46685">
        <ele>90.417999267578</ele>
        <time>2011-04-17T09:45:21Z</time>
      </trkpt>
      <trkpt lat="50.80229" lon="2.46679">
        <ele>88.258003234863</ele>
        <time>2011-04-17T09:45:24Z</time>
      </trkpt>
      <trkpt lat="50.80251" lon="2.46665">
        <ele>83.565002441406</ele>
        <time>2011-04-17T09:45:29Z</time>
      </trkpt>
      <trkpt lat="50.80265" lon="2.4668">
        <ele>81.357002258301</ele>
        <time>2011-04-17T09:45:33Z</time>
      </trkpt>
      <trkpt lat="50.80286" lon="2.46688">
        <ele>75.643997192383</ele>
        <time>2011-04-17T09:45:39Z</time>
      </trkpt>
      <trkpt lat="50.80298" lon="2.46697">
        <ele>73.676002502441</ele>
        <time>2011-04-17T09:45:42Z</time>
      </trkpt>
      <trkpt lat="50.80307" lon="2.46692">
        <ele>72.47200012207</ele>
        <time>2011-04-17T09:45:45Z</time>
      </trkpt>
      <trkpt lat="50.80317" lon="2.46691">
        <ele>70.714996337891</ele>
        <time>2011-04-17T09:45:48Z</time>
      </trkpt>
      <trkpt lat="50.80331" lon="2.46689">
        <ele>67.633003234863</ele>
        <time>2011-04-17T09:45:52Z</time>
      </trkpt>
      <trkpt lat="50.80341" lon="2.46693">
        <ele>65.052001953125</ele>
        <time>2011-04-17T09:45:55Z</time>
      </trkpt>
      <trkpt lat="50.80349" lon="2.46689">
        <ele>64.38200378418</ele>
        <time>2011-04-17T09:45:59Z</time>
      </trkpt>
      <trkpt lat="50.80357" lon="2.46684">
        <ele>64.15299987793</ele>
        <time>2011-04-17T09:46:04Z</time>
      </trkpt>
      <trkpt lat="50.80362" lon="2.46692">
        <ele>64.61799621582</ele>
        <time>2011-04-17T09:46:08Z</time>
      </trkpt>
      <trkpt lat="50.80366" lon="2.4669">
        <ele>65.100997924805</ele>
        <time>2011-04-17T09:46:12Z</time>
      </trkpt>
      <trkpt lat="50.80367" lon="2.46689">
        <ele>65.037002563477</ele>
        <time>2011-04-17T09:46:13Z</time>
      </trkpt>
      <trkpt lat="50.80369" lon="2.46691">
        <ele>65.247001647949</ele>
        <time>2011-04-17T09:46:17Z</time>
      </trkpt>
      <trkpt lat="50.80373" lon="2.46696">
        <ele>65.928001403809</ele>
        <time>2011-04-17T09:46:24Z</time>
      </trkpt>
      <trkpt lat="50.80377" lon="2.46702">
        <ele>67.265998840332</ele>
        <time>2011-04-17T09:46:30Z</time>
      </trkpt>
      <trkpt lat="50.80379" lon="2.46708">
        <ele>68.501998901367</ele>
        <time>2011-04-17T09:46:34Z</time>
      </trkpt>
      <trkpt lat="50.80382" lon="2.46716">
        <ele>68.999000549316</ele>
        <time>2011-04-17T09:46:40Z</time>
      </trkpt>
      <trkpt lat="50.80384" lon="2.46727">
        <ele>70.402000427246</ele>
        <time>2011-04-17T09:46:47Z</time>
      </trkpt>
      <trkpt lat="50.80386" lon="2.46732">
        <ele>71.408996582031</ele>
        <time>2011-04-17T09:46:51Z</time>
      </trkpt>
      <trkpt lat="50.80391" lon="2.46739">
        <ele>72.888999938965</ele>
        <time>2011-04-17T09:46:58Z</time>
      </trkpt>
      <trkpt lat="50.80391" lon="2.4674">
        <ele>73.167999267578</ele>
        <time>2011-04-17T09:46:59Z</time>
      </trkpt>
      <trkpt lat="50.80396" lon="2.46748">
        <ele>75.208999633789</ele>
        <time>2011-04-17T09:47:06Z</time>
      </trkpt>
      <trkpt lat="50.80402" lon="2.46754">
        <ele>77.046997070312</ele>
        <time>2011-04-17T09:47:13Z</time>
      </trkpt>
      <trkpt lat="50.80403" lon="2.46756">
        <ele>77.285003662109</ele>
        <time>2011-04-17T09:47:14Z</time>
      </trkpt>
      <trkpt lat="50.80405" lon="2.46764">
        <ele>78.078002929688</ele>
        <time>2011-04-17T09:47:18Z</time>
      </trkpt>
      <trkpt lat="50.80412" lon="2.46773">
        <ele>78.704002380371</ele>
        <time>2011-04-17T09:47:25Z</time>
      </trkpt>
      <trkpt lat="50.80413" lon="2.46775">
        <ele>78.830001831055</ele>
        <time>2011-04-17T09:47:26Z</time>
      </trkpt>
      <trkpt lat="50.80429" lon="2.46796">
        <ele>79.852996826172</ele>
        <time>2011-04-17T09:47:36Z</time>
      </trkpt>
      <trkpt lat="50.80437" lon="2.46807">
        <ele>80.74299621582</ele>
        <time>2011-04-17T09:47:43Z</time>
      </trkpt>
      <trkpt lat="50.80445" lon="2.46817">
        <ele>81.731002807617</ele>
        <time>2011-04-17T09:47:52Z</time>
      </trkpt>
      <trkpt lat="50.80456" lon="2.46835">
        <ele>83.947998046875</ele>
        <time>2011-04-17T09:48:01Z</time>
      </trkpt>
      <trkpt lat="50.80468" lon="2.46855">
        <ele>86.657997131348</ele>
        <time>2011-04-17T09:48:11Z</time>
      </trkpt>
      <trkpt lat="50.8048" lon="2.46873">
        <ele>88.486000061035</ele>
        <time>2011-04-17T09:48:21Z</time>
      </trkpt>
      <trkpt lat="50.8049" lon="2.46886">
        <ele>90.063003540039</ele>
        <time>2011-04-17T09:48:29Z</time>
      </trkpt>
      <trkpt lat="50.805" lon="2.46902">
        <ele>92.234001159668</ele>
        <time>2011-04-17T09:48:38Z</time>
      </trkpt>
      <trkpt lat="50.80503" lon="2.46905">
        <ele>92.783996582031</ele>
        <time>2011-04-17T09:48:40Z</time>
      </trkpt>
      <trkpt lat="50.80509" lon="2.46901">
        <ele>94.603996276855</ele>
        <time>2011-04-17T09:48:44Z</time>
      </trkpt>
      <trkpt lat="50.80511" lon="2.46897">
        <ele>94.690002441406</ele>
        <time>2011-04-17T09:48:45Z</time>
      </trkpt>
      <trkpt lat="50.80524" lon="2.46857">
        <ele>94.966003417969</ele>
        <time>2011-04-17T09:48:50Z</time>
      </trkpt>
      <trkpt lat="50.80539" lon="2.46791">
        <ele>94.871002197266</ele>
        <time>2011-04-17T09:48:56Z</time>
      </trkpt>
      <trkpt lat="50.80558" lon="2.46677">
        <ele>93.245002746582</ele>
        <time>2011-04-17T09:49:06Z</time>
      </trkpt>
      <trkpt lat="50.80575" lon="2.46549">
        <ele>90.894996643066</ele>
        <time>2011-04-17T09:49:17Z</time>
      </trkpt>
      <trkpt lat="50.80587" lon="2.46435">
        <ele>89.46199798584</ele>
        <time>2011-04-17T09:49:26Z</time>
      </trkpt>
      <trkpt lat="50.80587" lon="2.46377">
        <ele>87.681999206543</ele>
        <time>2011-04-17T09:49:30Z</time>
      </trkpt>
      <trkpt lat="50.80585" lon="2.46299">
        <ele>85.109001159668</ele>
        <time>2011-04-17T09:49:35Z</time>
      </trkpt>
      <trkpt lat="50.8058" lon="2.46201">
        <ele>81.271003723145</ele>
        <time>2011-04-17T09:49:41Z</time>
      </trkpt>
      <trkpt lat="50.80592" lon="2.46139">
        <ele>78.563003540039</ele>
        <time>2011-04-17T09:49:45Z</time>
      </trkpt>
      <trkpt lat="50.80599" lon="2.46127">
        <ele>78.263000488281</ele>
        <time>2011-04-17T09:49:46Z</time>
      </trkpt>
      <trkpt lat="50.80608" lon="2.46116">
        <ele>77.693000793457</ele>
        <time>2011-04-17T09:49:47Z</time>
      </trkpt>
      <trkpt lat="50.80645" lon="2.46078">
        <ele>75.61499786377</ele>
        <time>2011-04-17T09:49:51Z</time>
      </trkpt>
      <trkpt lat="50.80662" lon="2.46057">
        <ele>74.390998840332</ele>
        <time>2011-04-17T09:49:53Z</time>
      </trkpt>
      <trkpt lat="50.80688" lon="2.46001">
        <ele>71.624000549316</ele>
        <time>2011-04-17T09:49:57Z</time>
      </trkpt>
      <trkpt lat="50.80692" lon="2.45969">
        <ele>69.681999206543</ele>
        <time>2011-04-17T09:49:59Z</time>
      </trkpt>
      <trkpt lat="50.80684" lon="2.45938">
        <ele>68.027000427246</ele>
        <time>2011-04-17T09:50:01Z</time>
      </trkpt>
      <trkpt lat="50.80676" lon="2.45923">
        <ele>67.115997314453</ele>
        <time>2011-04-17T09:50:02Z</time>
      </trkpt>
      <trkpt lat="50.80661" lon="2.45863">
        <ele>63.943000793457</ele>
        <time>2011-04-17T09:50:06Z</time>
      </trkpt>
      <trkpt lat="50.80673" lon="2.45837">
        <ele>62.040000915527</ele>
        <time>2011-04-17T09:50:08Z</time>
      </trkpt>
      <trkpt lat="50.80688" lon="2.45797">
        <ele>59.85599899292</ele>
        <time>2011-04-17T09:50:11Z</time>
      </trkpt>
      <trkpt lat="50.80682" lon="2.4577">
        <ele>57.754001617432</ele>
        <time>2011-04-17T09:50:13Z</time>
      </trkpt>
      <trkpt lat="50.80658" lon="2.4574">
        <ele>55.551998138428</ele>
        <time>2011-04-17T09:50:16Z</time>
      </trkpt>
      <trkpt lat="50.80642" lon="2.45708">
        <ele>52.976001739502</ele>
        <time>2011-04-17T09:50:19Z</time>
      </trkpt>
      <trkpt lat="50.8063" lon="2.45696">
        <ele>51.486000061035</ele>
        <time>2011-04-17T09:50:21Z</time>
      </trkpt>
      <trkpt lat="50.80621" lon="2.45694">
        <ele>50.609001159668</ele>
        <time>2011-04-17T09:50:22Z</time>
      </trkpt>
      <trkpt lat="50.80553" lon="2.45673">
        <ele>45.421001434326</ele>
        <time>2011-04-17T09:50:28Z</time>
      </trkpt>
      <trkpt lat="50.80482" lon="2.4564">
        <ele>41.415000915527</ele>
        <time>2011-04-17T09:50:34Z</time>
      </trkpt>
      <trkpt lat="50.80471" lon="2.45636">
        <ele>41.200000762939</ele>
        <time>2011-04-17T09:50:35Z</time>
      </trkpt>
      <trkpt lat="50.80413" lon="2.45628">
        <ele>39.658000946045</ele>
        <time>2011-04-17T09:50:40Z</time>
      </trkpt>
      <trkpt lat="50.80351" lon="2.45617">
        <ele>37.799999237061</ele>
        <time>2011-04-17T09:50:46Z</time>
      </trkpt>
      <trkpt lat="50.80331" lon="2.45615">
        <ele>37.305999755859</ele>
        <time>2011-04-17T09:50:48Z</time>
      </trkpt>
      <trkpt lat="50.80305" lon="2.45597">
        <ele>36.465000152588</ele>
        <time>2011-04-17T09:50:51Z</time>
      </trkpt>
      <trkpt lat="50.80257" lon="2.45549">
        <ele>35.310001373291</ele>
        <time>2011-04-17T09:50:57Z</time>
      </trkpt>
      <trkpt lat="50.80249" lon="2.45543">
        <ele>35.325000762939</ele>
        <time>2011-04-17T09:50:58Z</time>
      </trkpt>
      <trkpt lat="50.80199" lon="2.45531">
        <ele>36.601001739502</ele>
        <time>2011-04-17T09:51:04Z</time>
      </trkpt>
      <trkpt lat="50.80143" lon="2.45536">
        <ele>37.73099899292</ele>
        <time>2011-04-17T09:51:11Z</time>
      </trkpt>
      <trkpt lat="50.80093" lon="2.45547">
        <ele>39.076999664307</ele>
        <time>2011-04-17T09:51:18Z</time>
      </trkpt>
      <trkpt lat="50.80063" lon="2.45558">
        <ele>40.542999267578</ele>
        <time>2011-04-17T09:51:23Z</time>
      </trkpt>
      <trkpt lat="50.80027" lon="2.4557">
        <ele>41.867000579834</ele>
        <time>2011-04-17T09:51:29Z</time>
      </trkpt>
      <trkpt lat="50.79989" lon="2.45579">
        <ele>43.081001281738</ele>
        <time>2011-04-17T09:51:36Z</time>
      </trkpt>
      <trkpt lat="50.79974" lon="2.45582">
        <ele>43.592998504639</ele>
        <time>2011-04-17T09:51:39Z</time>
      </trkpt>
      <trkpt lat="50.7996" lon="2.45569">
        <ele>44.127998352051</ele>
        <time>2011-04-17T09:51:43Z</time>
      </trkpt>
      <trkpt lat="50.79955" lon="2.4551">
        <ele>44.388999938965</ele>
        <time>2011-04-17T09:51:50Z</time>
      </trkpt>
      <trkpt lat="50.79948" lon="2.45443">
        <ele>44.146999359131</ele>
        <time>2011-04-17T09:51:57Z</time>
      </trkpt>
      <trkpt lat="50.79929" lon="2.45387">
        <ele>43.687999725342</ele>
        <time>2011-04-17T09:52:03Z</time>
      </trkpt>
      <trkpt lat="50.79915" lon="2.45364">
        <ele>43.75</ele>
        <time>2011-04-17T09:52:06Z</time>
      </trkpt>
      <trkpt lat="50.79865" lon="2.45306">
        <ele>43.904998779297</ele>
        <time>2011-04-17T09:52:15Z</time>
      </trkpt>
      <trkpt lat="50.79849" lon="2.45285">
        <ele>44.152000427246</ele>
        <time>2011-04-17T09:52:18Z</time>
      </trkpt>
      <trkpt lat="50.79837" lon="2.4526">
        <ele>44.064998626709</ele>
        <time>2011-04-17T09:52:21Z</time>
      </trkpt>
      <trkpt lat="50.79815" lon="2.45181">
        <ele>44.353000640869</ele>
        <time>2011-04-17T09:52:29Z</time>
      </trkpt>
      <trkpt lat="50.79801" lon="2.45121">
        <ele>45.56600189209</ele>
        <time>2011-04-17T09:52:35Z</time>
      </trkpt>
      <trkpt lat="50.79781" lon="2.45025">
        <ele>46.275001525879</ele>
        <time>2011-04-17T09:52:44Z</time>
      </trkpt>
      <trkpt lat="50.79768" lon="2.44936">
        <ele>46.304000854492</ele>
        <time>2011-04-17T09:52:52Z</time>
      </trkpt>
      <trkpt lat="50.7976" lon="2.4484">
        <ele>46.176998138428</ele>
        <time>2011-04-17T09:53:01Z</time>
      </trkpt>
      <trkpt lat="50.79742" lon="2.44817">
        <ele>46.158000946045</ele>
        <time>2011-04-17T09:53:05Z</time>
      </trkpt>
      <trkpt lat="50.79731" lon="2.44827">
        <ele>46.638000488281</ele>
        <time>2011-04-17T09:53:07Z</time>
      </trkpt>
      <trkpt lat="50.79707" lon="2.4486">
        <ele>47.30899810791</ele>
        <time>2011-04-17T09:53:12Z</time>
      </trkpt>
      <trkpt lat="50.79683" lon="2.4487">
        <ele>47.055999755859</ele>
        <time>2011-04-17T09:53:16Z</time>
      </trkpt>
      <trkpt lat="50.79663" lon="2.44861">
        <ele>46.695999145508</ele>
        <time>2011-04-17T09:53:19Z</time>
      </trkpt>
      <trkpt lat="50.79594" lon="2.44808">
        <ele>44.409999847412</ele>
        <time>2011-04-17T09:53:29Z</time>
      </trkpt>
      <trkpt lat="50.79528" lon="2.44767">
        <ele>43.335998535156</ele>
        <time>2011-04-17T09:53:38Z</time>
      </trkpt>
      <trkpt lat="50.7944" lon="2.44708">
        <ele>41.444999694824</ele>
        <time>2011-04-17T09:53:50Z</time>
      </trkpt>
      <trkpt lat="50.79425" lon="2.44696">
        <ele>41.182998657227</ele>
        <time>2011-04-17T09:53:52Z</time>
      </trkpt>
      <trkpt lat="50.79387" lon="2.44639">
        <ele>39.004001617432</ele>
        <time>2011-04-17T09:53:58Z</time>
      </trkpt>
      <trkpt lat="50.79374" lon="2.44618">
        <ele>38.307998657227</ele>
        <time>2011-04-17T09:54:00Z</time>
      </trkpt>
      <trkpt lat="50.79343" lon="2.44583">
        <ele>36.984001159668</ele>
        <time>2011-04-17T09:54:04Z</time>
      </trkpt>
      <trkpt lat="50.79287" lon="2.44536">
        <ele>35.631000518799</ele>
        <time>2011-04-17T09:54:11Z</time>
      </trkpt>
      <trkpt lat="50.7928" lon="2.44531">
        <ele>35.532001495361</ele>
        <time>2011-04-17T09:54:12Z</time>
      </trkpt>
      <trkpt lat="50.79265" lon="2.44543">
        <ele>35.584999084473</ele>
        <time>2011-04-17T09:54:15Z</time>
      </trkpt>
      <trkpt lat="50.79259" lon="2.44563">
        <ele>35.763999938965</ele>
        <time>2011-04-17T09:54:17Z</time>
      </trkpt>
      <trkpt lat="50.79233" lon="2.44641">
        <ele>35.786998748779</ele>
        <time>2011-04-17T09:54:24Z</time>
      </trkpt>
      <trkpt lat="50.79219" lon="2.44685">
        <ele>35.926998138428</ele>
        <time>2011-04-17T09:54:28Z</time>
      </trkpt>
      <trkpt lat="50.79207" lon="2.44715">
        <ele>35.860000610352</ele>
        <time>2011-04-17T09:54:31Z</time>
      </trkpt>
      <trkpt lat="50.79181" lon="2.44788">
        <ele>35.464000701904</ele>
        <time>2011-04-17T09:54:38Z</time>
      </trkpt>
      <trkpt lat="50.79161" lon="2.44846">
        <ele>35.24100112915</ele>
        <time>2011-04-17T09:54:44Z</time>
      </trkpt>
      <trkpt lat="50.7914" lon="2.44904">
        <ele>35.082000732422</ele>
        <time>2011-04-17T09:54:50Z</time>
      </trkpt>
      <trkpt lat="50.79107" lon="2.44996">
        <ele>34.275001525879</ele>
        <time>2011-04-17T09:55:00Z</time>
      </trkpt>
      <trkpt lat="50.79075" lon="2.45083">
        <ele>33.484001159668</ele>
        <time>2011-04-17T09:55:09Z</time>
      </trkpt>
      <trkpt lat="50.79053" lon="2.45151">
        <ele>32.757999420166</ele>
        <time>2011-04-17T09:55:16Z</time>
      </trkpt>
      <trkpt lat="50.79022" lon="2.45255">
        <ele>30.978000640869</ele>
        <time>2011-04-17T09:55:26Z</time>
      </trkpt>
      <trkpt lat="50.78994" lon="2.4535">
        <ele>29.32799911499</ele>
        <time>2011-04-17T09:55:35Z</time>
      </trkpt>
      <trkpt lat="50.78973" lon="2.45423">
        <ele>28.239999771118</ele>
        <time>2011-04-17T09:55:42Z</time>
      </trkpt>
      <trkpt lat="50.78945" lon="2.45503">
        <ele>27.995000839233</ele>
        <time>2011-04-17T09:55:51Z</time>
      </trkpt>
      <trkpt lat="50.78926" lon="2.45557">
        <ele>28.941999435425</ele>
        <time>2011-04-17T09:55:58Z</time>
      </trkpt>
      <trkpt lat="50.78914" lon="2.45592">
        <ele>29.732000350952</ele>
        <time>2011-04-17T09:56:03Z</time>
      </trkpt>
      <trkpt lat="50.78911" lon="2.45613">
        <ele>30.479999542236</ele>
        <time>2011-04-17T09:56:07Z</time>
      </trkpt>
      <trkpt lat="50.78906" lon="2.45619">
        <ele>30.615999221802</ele>
        <time>2011-04-17T09:56:11Z</time>
      </trkpt>
      <trkpt lat="50.78901" lon="2.45624">
        <ele>30.82200050354</ele>
        <time>2011-04-17T09:56:14Z</time>
      </trkpt>
      <trkpt lat="50.78899" lon="2.45629">
        <ele>30.83099937439</ele>
        <time>2011-04-17T09:56:15Z</time>
      </trkpt>
      <trkpt lat="50.78888" lon="2.45674">
        <ele>31.27799987793</ele>
        <time>2011-04-17T09:56:22Z</time>
      </trkpt>
      <trkpt lat="50.78877" lon="2.45726">
        <ele>31.482000350952</ele>
        <time>2011-04-17T09:56:29Z</time>
      </trkpt>
      <trkpt lat="50.78863" lon="2.45782">
        <ele>31.715000152588</ele>
        <time>2011-04-17T09:56:36Z</time>
      </trkpt>
      <trkpt lat="50.78849" lon="2.4583">
        <ele>31.878000259399</ele>
        <time>2011-04-17T09:56:42Z</time>
      </trkpt>
      <trkpt lat="50.78819" lon="2.45921">
        <ele>32.494998931885</ele>
        <time>2011-04-17T09:56:53Z</time>
      </trkpt>
      <trkpt lat="50.78794" lon="2.45986">
        <ele>32.22200012207</ele>
        <time>2011-04-17T09:57:01Z</time>
      </trkpt>
      <trkpt lat="50.78767" lon="2.46053">
        <ele>32.272998809814</ele>
        <time>2011-04-17T09:57:10Z</time>
      </trkpt>
      <trkpt lat="50.78757" lon="2.46082">
        <ele>32.476001739502</ele>
        <time>2011-04-17T09:57:14Z</time>
      </trkpt>
      <trkpt lat="50.78754" lon="2.46109">
        <ele>32.033000946045</ele>
        <time>2011-04-17T09:57:18Z</time>
      </trkpt>
      <trkpt lat="50.78766" lon="2.46136">
        <ele>32.334999084473</ele>
        <time>2011-04-17T09:57:22Z</time>
      </trkpt>
      <trkpt lat="50.78798" lon="2.46189">
        <ele>33.891998291016</ele>
        <time>2011-04-17T09:57:30Z</time>
      </trkpt>
      <trkpt lat="50.78835" lon="2.46245">
        <ele>34.494998931885</ele>
        <time>2011-04-17T09:57:39Z</time>
      </trkpt>
      <trkpt lat="50.78867" lon="2.4627">
        <ele>34.775001525879</ele>
        <time>2011-04-17T09:57:45Z</time>
      </trkpt>
      <trkpt lat="50.78883" lon="2.46281">
        <ele>35.310001373291</ele>
        <time>2011-04-17T09:57:48Z</time>
      </trkpt>
      <trkpt lat="50.78893" lon="2.46285">
        <ele>35.348999023438</ele>
        <time>2011-04-17T09:57:50Z</time>
      </trkpt>
      <trkpt lat="50.78908" lon="2.46303">
        <ele>34.915000915527</ele>
        <time>2011-04-17T09:57:54Z</time>
      </trkpt>
      <trkpt lat="50.78912" lon="2.46319">
        <ele>35.013000488281</ele>
        <time>2011-04-17T09:57:56Z</time>
      </trkpt>
      <trkpt lat="50.7892" lon="2.46403">
        <ele>34.448001861572</ele>
        <time>2011-04-17T09:58:04Z</time>
      </trkpt>
      <trkpt lat="50.78929" lon="2.46511">
        <ele>32.748001098633</ele>
        <time>2011-04-17T09:58:13Z</time>
      </trkpt>
      <trkpt lat="50.78938" lon="2.46593">
        <ele>31.760999679565</ele>
        <time>2011-04-17T09:58:20Z</time>
      </trkpt>
      <trkpt lat="50.78947" lon="2.46625">
        <ele>31.22200012207</ele>
        <time>2011-04-17T09:58:24Z</time>
      </trkpt>
      <trkpt lat="50.7895" lon="2.46644">
        <ele>30.840000152588</ele>
        <time>2011-04-17T09:58:29Z</time>
      </trkpt>
      <trkpt lat="50.7895" lon="2.46647">
        <ele>30.812000274658</ele>
        <time>2011-04-17T09:58:30Z</time>
      </trkpt>
      <trkpt lat="50.78963" lon="2.46655">
        <ele>31.218000411987</ele>
        <time>2011-04-17T09:58:34Z</time>
      </trkpt>
      <trkpt lat="50.78977" lon="2.46664">
        <ele>32.127998352051</ele>
        <time>2011-04-17T09:58:37Z</time>
      </trkpt>
      <trkpt lat="50.7901" lon="2.46701">
        <ele>34.431999206543</ele>
        <time>2011-04-17T09:58:45Z</time>
      </trkpt>
      <trkpt lat="50.79033" lon="2.46731">
        <ele>35.791999816895</ele>
        <time>2011-04-17T09:58:52Z</time>
      </trkpt>
      <trkpt lat="50.79049" lon="2.46754">
        <ele>37.17200088501</ele>
        <time>2011-04-17T09:58:58Z</time>
      </trkpt>
      <trkpt lat="50.79066" lon="2.46782">
        <ele>39.006000518799</ele>
        <time>2011-04-17T09:59:05Z</time>
      </trkpt>
      <trkpt lat="50.79082" lon="2.46807">
        <ele>40.964000701904</ele>
        <time>2011-04-17T09:59:12Z</time>
      </trkpt>
      <trkpt lat="50.79101" lon="2.46836">
        <ele>42.613998413086</ele>
        <time>2011-04-17T09:59:20Z</time>
      </trkpt>
      <trkpt lat="50.7912" lon="2.46871">
        <ele>45.27799987793</ele>
        <time>2011-04-17T09:59:30Z</time>
      </trkpt>
      <trkpt lat="50.79136" lon="2.46912">
        <ele>47.259998321533</ele>
        <time>2011-04-17T09:59:41Z</time>
      </trkpt>
      <trkpt lat="50.79145" lon="2.46944">
        <ele>48.821998596191</ele>
        <time>2011-04-17T09:59:49Z</time>
      </trkpt>
      <trkpt lat="50.7915" lon="2.4699">
        <ele>50.612998962402</ele>
        <time>2011-04-17T10:00:00Z</time>
      </trkpt>
      <trkpt lat="50.79154" lon="2.47031">
        <ele>52.43399810791</ele>
        <time>2011-04-17T10:00:09Z</time>
      </trkpt>
      <trkpt lat="50.79161" lon="2.47068">
        <ele>54.090999603271</ele>
        <time>2011-04-17T10:00:17Z</time>
      </trkpt>
      <trkpt lat="50.79174" lon="2.47126">
        <ele>56.254001617432</ele>
        <time>2011-04-17T10:00:29Z</time>
      </trkpt>
      <trkpt lat="50.79188" lon="2.47153">
        <ele>57.609001159668</ele>
        <time>2011-04-17T10:00:36Z</time>
      </trkpt>
      <trkpt lat="50.79202" lon="2.47186">
        <ele>59.249000549316</ele>
        <time>2011-04-17T10:00:44Z</time>
      </trkpt>
      <trkpt lat="50.79215" lon="2.47221">
        <ele>60.773998260498</ele>
        <time>2011-04-17T10:00:52Z</time>
      </trkpt>
      <trkpt lat="50.79227" lon="2.47249">
        <ele>61.882999420166</ele>
        <time>2011-04-17T10:00:58Z</time>
      </trkpt>
      <trkpt lat="50.79242" lon="2.47284">
        <ele>62.805999755859</ele>
        <time>2011-04-17T10:01:05Z</time>
      </trkpt>
      <trkpt lat="50.79266" lon="2.47331">
        <ele>63.828998565674</ele>
        <time>2011-04-17T10:01:14Z</time>
      </trkpt>
      <trkpt lat="50.79285" lon="2.47355">
        <ele>64.789001464844</ele>
        <time>2011-04-17T10:01:20Z</time>
      </trkpt>
      <trkpt lat="50.7931" lon="2.47377">
        <ele>65.612998962402</ele>
        <time>2011-04-17T10:01:27Z</time>
      </trkpt>
      <trkpt lat="50.79339" lon="2.47404">
        <ele>66.522003173828</ele>
        <time>2011-04-17T10:01:35Z</time>
      </trkpt>
      <trkpt lat="50.79365" lon="2.47423">
        <ele>67.782997131348</ele>
        <time>2011-04-17T10:01:42Z</time>
      </trkpt>
      <trkpt lat="50.7939" lon="2.47444">
        <ele>69.186996459961</ele>
        <time>2011-04-17T10:01:49Z</time>
      </trkpt>
      <trkpt lat="50.79421" lon="2.47476">
        <ele>70.157997131348</ele>
        <time>2011-04-17T10:01:58Z</time>
      </trkpt>
      <trkpt lat="50.79456" lon="2.47523">
        <ele>70.670997619629</ele>
        <time>2011-04-17T10:02:08Z</time>
      </trkpt>
      <trkpt lat="50.79491" lon="2.47577">
        <ele>71.15599822998</ele>
        <time>2011-04-17T10:02:18Z</time>
      </trkpt>
      <trkpt lat="50.79504" lon="2.47599">
        <ele>70.966003417969</ele>
        <time>2011-04-17T10:02:22Z</time>
      </trkpt>
      <trkpt lat="50.79535" lon="2.47649">
        <ele>70.531997680664</ele>
        <time>2011-04-17T10:02:30Z</time>
      </trkpt>
      <trkpt lat="50.79596" lon="2.47716">
        <ele>72.228996276855</ele>
        <time>2011-04-17T10:02:45Z</time>
      </trkpt>
      <trkpt lat="50.79605" lon="2.47723">
        <ele>72.459999084473</ele>
        <time>2011-04-17T10:02:47Z</time>
      </trkpt>
      <trkpt lat="50.79639" lon="2.47754">
        <ele>74.259002685547</ele>
        <time>2011-04-17T10:02:56Z</time>
      </trkpt>
      <trkpt lat="50.79651" lon="2.47767">
        <ele>75.333000183105</ele>
        <time>2011-04-17T10:03:01Z</time>
      </trkpt>
      <trkpt lat="50.79662" lon="2.47782">
        <ele>76.319000244141</ele>
        <time>2011-04-17T10:03:06Z</time>
      </trkpt>
      <trkpt lat="50.79679" lon="2.47806">
        <ele>78.694999694824</ele>
        <time>2011-04-17T10:03:14Z</time>
      </trkpt>
      <trkpt lat="50.79693" lon="2.4783">
        <ele>81.652000427246</ele>
        <time>2011-04-17T10:03:22Z</time>
      </trkpt>
      <trkpt lat="50.79707" lon="2.47853">
        <ele>84.307998657227</ele>
        <time>2011-04-17T10:03:30Z</time>
      </trkpt>
      <trkpt lat="50.79716" lon="2.47868">
        <ele>86.302001953125</ele>
        <time>2011-04-17T10:03:36Z</time>
      </trkpt>
      <trkpt lat="50.79727" lon="2.47883">
        <ele>87.744003295898</ele>
        <time>2011-04-17T10:03:43Z</time>
      </trkpt>
      <trkpt lat="50.7974" lon="2.47901">
        <ele>89.514999389648</ele>
        <time>2011-04-17T10:03:51Z</time>
      </trkpt>
      <trkpt lat="50.79752" lon="2.47916">
        <ele>90.996002197266</ele>
        <time>2011-04-17T10:03:58Z</time>
      </trkpt>
      <trkpt lat="50.79764" lon="2.47936">
        <ele>93.11499786377</ele>
        <time>2011-04-17T10:04:06Z</time>
      </trkpt>
      <trkpt lat="50.79779" lon="2.47962">
        <ele>95.682998657227</ele>
        <time>2011-04-17T10:04:16Z</time>
      </trkpt>
      <trkpt lat="50.79791" lon="2.47982">
        <ele>97.602996826172</ele>
        <time>2011-04-17T10:04:24Z</time>
      </trkpt>
      <trkpt lat="50.79799" lon="2.47991">
        <ele>98.519996643066</ele>
        <time>2011-04-17T10:04:29Z</time>
      </trkpt>
      <trkpt lat="50.79809" lon="2.48003">
        <ele>99.838996887207</ele>
        <time>2011-04-17T10:04:35Z</time>
      </trkpt>
      <trkpt lat="50.79827" lon="2.4802">
        <ele>102.46700286865</ele>
        <time>2011-04-17T10:04:45Z</time>
      </trkpt>
      <trkpt lat="50.79845" lon="2.48035">
        <ele>104.61199951172</ele>
        <time>2011-04-17T10:04:54Z</time>
      </trkpt>
      <trkpt lat="50.79856" lon="2.48047">
        <ele>105.76000213623</ele>
        <time>2011-04-17T10:05:00Z</time>
      </trkpt>
      <trkpt lat="50.79873" lon="2.48066">
        <ele>108.01999664307</ele>
        <time>2011-04-17T10:05:10Z</time>
      </trkpt>
      <trkpt lat="50.79884" lon="2.48076">
        <ele>109.83200073242</ele>
        <time>2011-04-17T10:05:16Z</time>
      </trkpt>
      <trkpt lat="50.79898" lon="2.48088">
        <ele>111.94499969482</ele>
        <time>2011-04-17T10:05:24Z</time>
      </trkpt>
      <trkpt lat="50.79916" lon="2.481">
        <ele>114.35099792481</ele>
        <time>2011-04-17T10:05:32Z</time>
      </trkpt>
      <trkpt lat="50.79931" lon="2.48115">
        <ele>116.81999969482</ele>
        <time>2011-04-17T10:05:40Z</time>
      </trkpt>
      <trkpt lat="50.79946" lon="2.48134">
        <ele>119.73400115967</ele>
        <time>2011-04-17T10:05:49Z</time>
      </trkpt>
      <trkpt lat="50.79952" lon="2.48145">
        <ele>120.59600067139</ele>
        <time>2011-04-17T10:05:55Z</time>
      </trkpt>
      <trkpt lat="50.79961" lon="2.48158">
        <ele>121.55699920654</ele>
        <time>2011-04-17T10:06:00Z</time>
      </trkpt>
      <trkpt lat="50.79974" lon="2.48183">
        <ele>123.66000366211</ele>
        <time>2011-04-17T10:06:09Z</time>
      </trkpt>
      <trkpt lat="50.79986" lon="2.48207">
        <ele>125.8450012207</ele>
        <time>2011-04-17T10:06:18Z</time>
      </trkpt>
      <trkpt lat="50.79995" lon="2.48237">
        <ele>128.75999450684</ele>
        <time>2011-04-17T10:06:27Z</time>
      </trkpt>
      <trkpt lat="50.79998" lon="2.48272">
        <ele>131.27699279785</ele>
        <time>2011-04-17T10:06:36Z</time>
      </trkpt>
      <trkpt lat="50.79995" lon="2.4829">
        <ele>131.82000732422</ele>
        <time>2011-04-17T10:06:40Z</time>
      </trkpt>
      <trkpt lat="50.79979" lon="2.48322">
        <ele>130.9880065918</ele>
        <time>2011-04-17T10:06:45Z</time>
      </trkpt>
      <trkpt lat="50.79963" lon="2.48358">
        <ele>130.07099914551</ele>
        <time>2011-04-17T10:06:50Z</time>
      </trkpt>
      <trkpt lat="50.79947" lon="2.48396">
        <ele>130.41200256348</ele>
        <time>2011-04-17T10:06:56Z</time>
      </trkpt>
      <trkpt lat="50.79927" lon="2.48452">
        <ele>131.55499267578</ele>
        <time>2011-04-17T10:07:05Z</time>
      </trkpt>
      <trkpt lat="50.79926" lon="2.48458">
        <ele>131.71699523926</ele>
        <time>2011-04-17T10:07:06Z</time>
      </trkpt>
      <trkpt lat="50.79921" lon="2.48497">
        <ele>132.09399414062</ele>
        <time>2011-04-17T10:07:13Z</time>
      </trkpt>
      <trkpt lat="50.79918" lon="2.4851">
        <ele>131.60600280762</ele>
        <time>2011-04-17T10:07:15Z</time>
      </trkpt>
      <trkpt lat="50.79899" lon="2.48541">
        <ele>129.3690032959</ele>
        <time>2011-04-17T10:07:19Z</time>
      </trkpt>
      <trkpt lat="50.79895" lon="2.48548">
        <ele>127.86399841309</ele>
        <time>2011-04-17T10:07:20Z</time>
      </trkpt>
      <trkpt lat="50.7988" lon="2.48548">
        <ele>123.54499816894</ele>
        <time>2011-04-17T10:07:24Z</time>
      </trkpt>
      <trkpt lat="50.79858" lon="2.48541">
        <ele>119.91799926758</ele>
        <time>2011-04-17T10:07:29Z</time>
      </trkpt>
      <trkpt lat="50.79854" lon="2.48544">
        <ele>118.93800354004</ele>
        <time>2011-04-17T10:07:30Z</time>
      </trkpt>
      <trkpt lat="50.79831" lon="2.48546">
        <ele>114.42600250244</ele>
        <time>2011-04-17T10:07:35Z</time>
      </trkpt>
      <trkpt lat="50.79818" lon="2.48519">
        <ele>111.76100158691</ele>
        <time>2011-04-17T10:07:38Z</time>
      </trkpt>
      <trkpt lat="50.79804" lon="2.48495">
        <ele>110.20500183106</ele>
        <time>2011-04-17T10:07:41Z</time>
      </trkpt>
      <trkpt lat="50.79795" lon="2.48494">
        <ele>108.80999755859</ele>
        <time>2011-04-17T10:07:43Z</time>
      </trkpt>
      <trkpt lat="50.79783" lon="2.48502">
        <ele>107.36799621582</ele>
        <time>2011-04-17T10:07:46Z</time>
      </trkpt>
      <trkpt lat="50.79767" lon="2.48495">
        <ele>106.26999664307</ele>
        <time>2011-04-17T10:07:49Z</time>
      </trkpt>
      <trkpt lat="50.79752" lon="2.48483">
        <ele>104.86799621582</ele>
        <time>2011-04-17T10:07:53Z</time>
      </trkpt>
      <trkpt lat="50.79751" lon="2.48487">
        <ele>104.54900360107</ele>
        <time>2011-04-17T10:07:56Z</time>
      </trkpt>
      <trkpt lat="50.79757" lon="2.48495">
        <ele>104.46499633789</ele>
        <time>2011-04-17T10:07:59Z</time>
      </trkpt>
      <trkpt lat="50.79776" lon="2.48515">
        <ele>105.44799804688</ele>
        <time>2011-04-17T10:08:05Z</time>
      </trkpt>
      <trkpt lat="50.79794" lon="2.48535">
        <ele>106.172996521</ele>
        <time>2011-04-17T10:08:10Z</time>
      </trkpt>
      <trkpt lat="50.79811" lon="2.48555">
        <ele>107.29599761963</ele>
        <time>2011-04-17T10:08:16Z</time>
      </trkpt>
      <trkpt lat="50.79826" lon="2.48572">
        <ele>109.07299804688</ele>
        <time>2011-04-17T10:08:22Z</time>
      </trkpt>
      <trkpt lat="50.79839" lon="2.48588">
        <ele>111.02799987793</ele>
        <time>2011-04-17T10:08:28Z</time>
      </trkpt>
      <trkpt lat="50.79843" lon="2.48595">
        <ele>112.01300048828</ele>
        <time>2011-04-17T10:08:30Z</time>
      </trkpt>
      <trkpt lat="50.79845" lon="2.48603">
        <ele>112.95700073242</ele>
        <time>2011-04-17T10:08:32Z</time>
      </trkpt>
      <trkpt lat="50.79841" lon="2.48608">
        <ele>114.46399688721</ele>
        <time>2011-04-17T10:08:35Z</time>
      </trkpt>
      <trkpt lat="50.79838" lon="2.4861">
        <ele>114.79100036621</ele>
        <time>2011-04-17T10:08:37Z</time>
      </trkpt>
      <trkpt lat="50.79834" lon="2.48621">
        <ele>116.00499725342</ele>
        <time>2011-04-17T10:08:42Z</time>
      </trkpt>
      <trkpt lat="50.79831" lon="2.48626">
        <ele>116.85800170898</ele>
        <time>2011-04-17T10:08:45Z</time>
      </trkpt>
      <trkpt lat="50.79827" lon="2.48642">
        <ele>117.50099945068</ele>
        <time>2011-04-17T10:08:51Z</time>
      </trkpt>
      <trkpt lat="50.79823" lon="2.48648">
        <ele>117.46800231934</ele>
        <time>2011-04-17T10:08:53Z</time>
      </trkpt>
      <trkpt lat="50.79814" lon="2.48673">
        <ele>117.7679977417</ele>
        <time>2011-04-17T10:08:59Z</time>
      </trkpt>
      <trkpt lat="50.79806" lon="2.48681">
        <ele>119.07399749756</ele>
        <time>2011-04-17T10:09:03Z</time>
      </trkpt>
      <trkpt lat="50.79801" lon="2.48664">
        <ele>117.53600311279</ele>
        <time>2011-04-17T10:09:06Z</time>
      </trkpt>
      <trkpt lat="50.79782" lon="2.48646">
        <ele>115.63899993897</ele>
        <time>2011-04-17T10:09:09Z</time>
      </trkpt>
      <trkpt lat="50.7977" lon="2.48635">
        <ele>114.91400146484</ele>
        <time>2011-04-17T10:09:11Z</time>
      </trkpt>
      <trkpt lat="50.79763" lon="2.48624">
        <ele>115.22499847412</ele>
        <time>2011-04-17T10:09:14Z</time>
      </trkpt>
      <trkpt lat="50.79775" lon="2.48614">
        <ele>116.45700073242</ele>
        <time>2011-04-17T10:09:19Z</time>
      </trkpt>
      <trkpt lat="50.79782" lon="2.48609">
        <ele>116.48100280762</ele>
        <time>2011-04-17T10:09:23Z</time>
      </trkpt>
      <trkpt lat="50.79786" lon="2.486">
        <ele>115.87300109863</ele>
        <time>2011-04-17T10:09:26Z</time>
      </trkpt>
      <trkpt lat="50.79794" lon="2.4858">
        <ele>113.72599792481</ele>
        <time>2011-04-17T10:09:31Z</time>
      </trkpt>
      <trkpt lat="50.79796" lon="2.48577">
        <ele>113.43299865723</ele>
        <time>2011-04-17T10:09:32Z</time>
      </trkpt>
      <trkpt lat="50.79801" lon="2.48568">
        <ele>112.19599914551</ele>
        <time>2011-04-17T10:09:34Z</time>
      </trkpt>
      <trkpt lat="50.79794" lon="2.48559">
        <ele>108.68499755859</ele>
        <time>2011-04-17T10:09:38Z</time>
      </trkpt>
      <trkpt lat="50.7978" lon="2.48571">
        <ele>107.66600036621</ele>
        <time>2011-04-17T10:09:42Z</time>
      </trkpt>
      <trkpt lat="50.79777" lon="2.48573">
        <ele>107.76399993897</ele>
        <time>2011-04-17T10:09:43Z</time>
      </trkpt>
      <trkpt lat="50.79768" lon="2.48582">
        <ele>107.82099914551</ele>
        <time>2011-04-17T10:09:45Z</time>
      </trkpt>
      <trkpt lat="50.79747" lon="2.48588">
        <ele>107.08699798584</ele>
        <time>2011-04-17T10:09:49Z</time>
      </trkpt>
      <trkpt lat="50.79743" lon="2.48582">
        <ele>106.81300354004</ele>
        <time>2011-04-17T10:09:50Z</time>
      </trkpt>
      <trkpt lat="50.79724" lon="2.48575">
        <ele>104.45300292969</ele>
        <time>2011-04-17T10:09:55Z</time>
      </trkpt>
      <trkpt lat="50.79723" lon="2.48595">
        <ele>102.47699737549</ele>
        <time>2011-04-17T10:09:58Z</time>
      </trkpt>
      <trkpt lat="50.79725" lon="2.486">
        <ele>102.13600158691</ele>
        <time>2011-04-17T10:09:59Z</time>
      </trkpt>
      <trkpt lat="50.79735" lon="2.48624">
        <ele>102.702003479</ele>
        <time>2011-04-17T10:10:04Z</time>
      </trkpt>
      <trkpt lat="50.79732" lon="2.48633">
        <ele>103.07399749756</ele>
        <time>2011-04-17T10:10:08Z</time>
      </trkpt>
      <trkpt lat="50.79726" lon="2.48637">
        <ele>101.85199737549</ele>
        <time>2011-04-17T10:10:10Z</time>
      </trkpt>
      <trkpt lat="50.79704" lon="2.48632">
        <ele>94.375</ele>
        <time>2011-04-17T10:10:15Z</time>
      </trkpt>
      <trkpt lat="50.79698" lon="2.48636">
        <ele>90.824996948242</ele>
        <time>2011-04-17T10:10:17Z</time>
      </trkpt>
      <trkpt lat="50.79699" lon="2.48647">
        <ele>89.52799987793</ele>
        <time>2011-04-17T10:10:20Z</time>
      </trkpt>
      <trkpt lat="50.79712" lon="2.4867">
        <ele>91.087997436523</ele>
        <time>2011-04-17T10:10:27Z</time>
      </trkpt>
      <trkpt lat="50.79716" lon="2.48679">
        <ele>90.973999023438</ele>
        <time>2011-04-17T10:10:29Z</time>
      </trkpt>
      <trkpt lat="50.79723" lon="2.48701">
        <ele>91.572998046875</ele>
        <time>2011-04-17T10:10:34Z</time>
      </trkpt>
      <trkpt lat="50.79723" lon="2.48719">
        <ele>93.09700012207</ele>
        <time>2011-04-17T10:10:39Z</time>
      </trkpt>
      <trkpt lat="50.79712" lon="2.48737">
        <ele>89.791999816895</ele>
        <time>2011-04-17T10:10:44Z</time>
      </trkpt>
      <trkpt lat="50.79697" lon="2.48738">
        <ele>86.320999145508</ele>
        <time>2011-04-17T10:10:48Z</time>
      </trkpt>
      <trkpt lat="50.79688" lon="2.48739">
        <ele>84.198997497559</ele>
        <time>2011-04-17T10:10:53Z</time>
      </trkpt>
      <trkpt lat="50.79681" lon="2.48741">
        <ele>83.231002807617</ele>
        <time>2011-04-17T10:10:58Z</time>
      </trkpt>
      <trkpt lat="50.7968" lon="2.48742">
        <ele>82.997001647949</ele>
        <time>2011-04-17T10:10:59Z</time>
      </trkpt>
      <trkpt lat="50.79671" lon="2.48747">
        <ele>82.68399810791</ele>
        <time>2011-04-17T10:11:06Z</time>
      </trkpt>
      <trkpt lat="50.79663" lon="2.48758">
        <ele>83.680999755859</ele>
        <time>2011-04-17T10:11:14Z</time>
      </trkpt>
      <trkpt lat="50.79656" lon="2.48762">
        <ele>83.712997436523</ele>
        <time>2011-04-17T10:11:19Z</time>
      </trkpt>
      <trkpt lat="50.79649" lon="2.48769">
        <ele>83.86499786377</ele>
        <time>2011-04-17T10:11:23Z</time>
      </trkpt>
      <trkpt lat="50.7963" lon="2.48773">
        <ele>83.958999633789</ele>
        <time>2011-04-17T10:11:30Z</time>
      </trkpt>
      <trkpt lat="50.79617" lon="2.4878">
        <ele>84.101997375488</ele>
        <time>2011-04-17T10:11:36Z</time>
      </trkpt>
      <trkpt lat="50.79608" lon="2.48797">
        <ele>86.991996765137</ele>
        <time>2011-04-17T10:11:42Z</time>
      </trkpt>
      <trkpt lat="50.79603" lon="2.48788">
        <ele>87.938003540039</ele>
        <time>2011-04-17T10:11:46Z</time>
      </trkpt>
      <trkpt lat="50.796" lon="2.48774">
        <ele>85.831001281738</ele>
        <time>2011-04-17T10:11:50Z</time>
      </trkpt>
      <trkpt lat="50.79601" lon="2.48758">
        <ele>83.254997253418</ele>
        <time>2011-04-17T10:11:54Z</time>
      </trkpt>
      <trkpt lat="50.79608" lon="2.48753">
        <ele>81.638000488281</ele>
        <time>2011-04-17T10:11:58Z</time>
      </trkpt>
      <trkpt lat="50.79614" lon="2.48745">
        <ele>81.582000732422</ele>
        <time>2011-04-17T10:12:02Z</time>
      </trkpt>
      <trkpt lat="50.79614" lon="2.4874">
        <ele>81.305999755859</ele>
        <time>2011-04-17T10:12:03Z</time>
      </trkpt>
      <trkpt lat="50.7961" lon="2.48706">
        <ele>78.889999389648</ele>
        <time>2011-04-17T10:12:09Z</time>
      </trkpt>
      <trkpt lat="50.79616" lon="2.48687">
        <ele>77.747001647949</ele>
        <time>2011-04-17T10:12:13Z</time>
      </trkpt>
      <trkpt lat="50.79622" lon="2.48673">
        <ele>77.140998840332</ele>
        <time>2011-04-17T10:12:18Z</time>
      </trkpt>
      <trkpt lat="50.79631" lon="2.48658">
        <ele>77.567001342773</ele>
        <time>2011-04-17T10:12:24Z</time>
      </trkpt>
      <trkpt lat="50.79641" lon="2.48649">
        <ele>79.646003723145</ele>
        <time>2011-04-17T10:12:30Z</time>
      </trkpt>
      <trkpt lat="50.79651" lon="2.48641">
        <ele>81.050003051758</ele>
        <time>2011-04-17T10:12:36Z</time>
      </trkpt>
      <trkpt lat="50.79666" lon="2.48628">
        <ele>83.434997558594</ele>
        <time>2011-04-17T10:12:45Z</time>
      </trkpt>
      <trkpt lat="50.79669" lon="2.48626">
        <ele>83.68399810791</ele>
        <time>2011-04-17T10:12:47Z</time>
      </trkpt>
      <trkpt lat="50.79671" lon="2.4861">
        <ele>84.790000915527</ele>
        <time>2011-04-17T10:12:53Z</time>
      </trkpt>
      <trkpt lat="50.79671" lon="2.48607">
        <ele>84.81600189209</ele>
        <time>2011-04-17T10:12:54Z</time>
      </trkpt>
      <trkpt lat="50.79659" lon="2.48588">
        <ele>84.444999694824</ele>
        <time>2011-04-17T10:13:02Z</time>
      </trkpt>
      <trkpt lat="50.79652" lon="2.48571">
        <ele>85.026000976562</ele>
        <time>2011-04-17T10:13:09Z</time>
      </trkpt>
      <trkpt lat="50.79644" lon="2.48555">
        <ele>86.166000366211</ele>
        <time>2011-04-17T10:13:15Z</time>
      </trkpt>
      <trkpt lat="50.79629" lon="2.48536">
        <ele>86.43399810791</ele>
        <time>2011-04-17T10:13:22Z</time>
      </trkpt>
      <trkpt lat="50.79614" lon="2.48526">
        <ele>84.013999938965</ele>
        <time>2011-04-17T10:13:27Z</time>
      </trkpt>
      <trkpt lat="50.79605" lon="2.48522">
        <ele>80.796997070312</ele>
        <time>2011-04-17T10:13:30Z</time>
      </trkpt>
      <trkpt lat="50.79598" lon="2.48517">
        <ele>78.843002319336</ele>
        <time>2011-04-17T10:13:32Z</time>
      </trkpt>
      <trkpt lat="50.79585" lon="2.48521">
        <ele>75.790000915527</ele>
        <time>2011-04-17T10:13:36Z</time>
      </trkpt>
      <trkpt lat="50.79582" lon="2.48531">
        <ele>74.718002319336</ele>
        <time>2011-04-17T10:13:38Z</time>
      </trkpt>
      <trkpt lat="50.79573" lon="2.48564">
        <ele>72.447998046875</ele>
        <time>2011-04-17T10:13:45Z</time>
      </trkpt>
      <trkpt lat="50.79568" lon="2.48579">
        <ele>72.139999389648</ele>
        <time>2011-04-17T10:13:50Z</time>
      </trkpt>
      <trkpt lat="50.79561" lon="2.48596">
        <ele>71.763000488281</ele>
        <time>2011-04-17T10:13:56Z</time>
      </trkpt>
      <trkpt lat="50.7956" lon="2.48597">
        <ele>71.716003417969</ele>
        <time>2011-04-17T10:13:57Z</time>
      </trkpt>
      <trkpt lat="50.79559" lon="2.48598">
        <ele>71.452003479004</ele>
        <time>2011-04-17T10:13:59Z</time>
      </trkpt>
      <trkpt lat="50.79555" lon="2.48595">
        <ele>70.705001831055</ele>
        <time>2011-04-17T10:14:04Z</time>
      </trkpt>
      <trkpt lat="50.79554" lon="2.48593">
        <ele>70.103996276855</ele>
        <time>2011-04-17T10:14:07Z</time>
      </trkpt>
      <trkpt lat="50.79548" lon="2.48587">
        <ele>70.068000793457</ele>
        <time>2011-04-17T10:14:16Z</time>
      </trkpt>
      <trkpt lat="50.79539" lon="2.48585">
        <ele>70.314002990723</ele>
        <time>2011-04-17T10:14:21Z</time>
      </trkpt>
      <trkpt lat="50.79525" lon="2.48586">
        <ele>69.991996765137</ele>
        <time>2011-04-17T10:14:25Z</time>
      </trkpt>
      <trkpt lat="50.795" lon="2.48587">
        <ele>69.264999389648</ele>
        <time>2011-04-17T10:14:30Z</time>
      </trkpt>
      <trkpt lat="50.79467" lon="2.4859">
        <ele>67.508003234863</ele>
        <time>2011-04-17T10:14:37Z</time>
      </trkpt>
      <trkpt lat="50.79433" lon="2.48592">
        <ele>65.737998962402</ele>
        <time>2011-04-17T10:14:44Z</time>
      </trkpt>
      <trkpt lat="50.79415" lon="2.48587">
        <ele>64.958999633789</ele>
        <time>2011-04-17T10:14:48Z</time>
      </trkpt>
      <trkpt lat="50.79387" lon="2.48568">
        <ele>63.766998291016</ele>
        <time>2011-04-17T10:14:55Z</time>
      </trkpt>
      <trkpt lat="50.79359" lon="2.48535">
        <ele>62.137001037598</ele>
        <time>2011-04-17T10:15:03Z</time>
      </trkpt>
      <trkpt lat="50.7935" lon="2.48523">
        <ele>61.272998809814</ele>
        <time>2011-04-17T10:15:06Z</time>
      </trkpt>
      <trkpt lat="50.79342" lon="2.48524">
        <ele>60.77799987793</ele>
        <time>2011-04-17T10:15:10Z</time>
      </trkpt>
      <trkpt lat="50.79332" lon="2.48538">
        <ele>60.339000701904</ele>
        <time>2011-04-17T10:15:15Z</time>
      </trkpt>
      <trkpt lat="50.79319" lon="2.48538">
        <ele>61.103000640869</ele>
        <time>2011-04-17T10:15:21Z</time>
      </trkpt>
      <trkpt lat="50.79311" lon="2.48535">
        <ele>60.727001190186</ele>
        <time>2011-04-17T10:15:24Z</time>
      </trkpt>
      <trkpt lat="50.79309" lon="2.48525">
        <ele>60.367000579834</ele>
        <time>2011-04-17T10:15:28Z</time>
      </trkpt>
      <trkpt lat="50.79318" lon="2.48517">
        <ele>59.604000091553</ele>
        <time>2011-04-17T10:15:32Z</time>
      </trkpt>
      <trkpt lat="50.79326" lon="2.485">
        <ele>58.589000701904</ele>
        <time>2011-04-17T10:15:36Z</time>
      </trkpt>
      <trkpt lat="50.79323" lon="2.48481">
        <ele>59.641998291016</ele>
        <time>2011-04-17T10:15:41Z</time>
      </trkpt>
      <trkpt lat="50.79322" lon="2.48477">
        <ele>59.868000030518</ele>
        <time>2011-04-17T10:15:42Z</time>
      </trkpt>
      <trkpt lat="50.7932" lon="2.48467">
        <ele>59.764999389648</ele>
        <time>2011-04-17T10:15:44Z</time>
      </trkpt>
      <trkpt lat="50.79304" lon="2.4844">
        <ele>58.722999572754</ele>
        <time>2011-04-17T10:15:49Z</time>
      </trkpt>
      <trkpt lat="50.79298" lon="2.48417">
        <ele>57.873001098633</ele>
        <time>2011-04-17T10:15:52Z</time>
      </trkpt>
      <trkpt lat="50.79298" lon="2.48404">
        <ele>57.907001495361</ele>
        <time>2011-04-17T10:15:54Z</time>
      </trkpt>
      <trkpt lat="50.79295" lon="2.48373">
        <ele>57.658000946045</ele>
        <time>2011-04-17T10:15:59Z</time>
      </trkpt>
      <trkpt lat="50.79288" lon="2.4835">
        <ele>57.458999633789</ele>
        <time>2011-04-17T10:16:04Z</time>
      </trkpt>
      <trkpt lat="50.79279" lon="2.48328">
        <ele>57.964000701904</ele>
        <time>2011-04-17T10:16:08Z</time>
      </trkpt>
      <trkpt lat="50.79265" lon="2.48323">
        <ele>57.361000061035</ele>
        <time>2011-04-17T10:16:11Z</time>
      </trkpt>
      <trkpt lat="50.79261" lon="2.48328">
        <ele>57.429000854492</ele>
        <time>2011-04-17T10:16:12Z</time>
      </trkpt>
      <trkpt lat="50.79254" lon="2.48342">
        <ele>57.705001831055</ele>
        <time>2011-04-17T10:16:14Z</time>
      </trkpt>
      <trkpt lat="50.79247" lon="2.48356">
        <ele>57.623001098633</ele>
        <time>2011-04-17T10:16:16Z</time>
      </trkpt>
      <trkpt lat="50.79239" lon="2.48388">
        <ele>57.867000579834</ele>
        <time>2011-04-17T10:16:20Z</time>
      </trkpt>
      <trkpt lat="50.79238" lon="2.48391">
        <ele>58.009998321533</ele>
        <time>2011-04-17T10:16:21Z</time>
      </trkpt>
      <trkpt lat="50.79226" lon="2.48394">
        <ele>59.724998474121</ele>
        <time>2011-04-17T10:16:26Z</time>
      </trkpt>
      <trkpt lat="50.79211" lon="2.48392">
        <ele>61.036998748779</ele>
        <time>2011-04-17T10:16:30Z</time>
      </trkpt>
      <trkpt lat="50.79201" lon="2.48393">
        <ele>62.444999694824</ele>
        <time>2011-04-17T10:16:33Z</time>
      </trkpt>
      <trkpt lat="50.79197" lon="2.48397">
        <ele>63.756000518799</ele>
        <time>2011-04-17T10:16:36Z</time>
      </trkpt>
      <trkpt lat="50.79212" lon="2.48399">
        <ele>64.517997741699</ele>
        <time>2011-04-17T10:16:41Z</time>
      </trkpt>
      <trkpt lat="50.79229" lon="2.48404">
        <ele>64.512001037598</ele>
        <time>2011-04-17T10:16:46Z</time>
      </trkpt>
      <trkpt lat="50.79244" lon="2.48411">
        <ele>64.379997253418</ele>
        <time>2011-04-17T10:16:51Z</time>
      </trkpt>
      <trkpt lat="50.79258" lon="2.48401">
        <ele>61.535999298096</ele>
        <time>2011-04-17T10:16:55Z</time>
      </trkpt>
      <trkpt lat="50.79261" lon="2.48408">
        <ele>58.974998474121</ele>
        <time>2011-04-17T10:16:58Z</time>
      </trkpt>
      <trkpt lat="50.79257" lon="2.48423">
        <ele>59.229999542236</ele>
        <time>2011-04-17T10:17:02Z</time>
      </trkpt>
      <trkpt lat="50.79258" lon="2.48439">
        <ele>59.402000427246</ele>
        <time>2011-04-17T10:17:06Z</time>
      </trkpt>
      <trkpt lat="50.79251" lon="2.4844">
        <ele>60.363998413086</ele>
        <time>2011-04-17T10:17:10Z</time>
      </trkpt>
      <trkpt lat="50.79244" lon="2.48435">
        <ele>61.986000061035</ele>
        <time>2011-04-17T10:17:14Z</time>
      </trkpt>
      <trkpt lat="50.79243" lon="2.48435">
        <ele>62.588001251221</ele>
        <time>2011-04-17T10:17:15Z</time>
      </trkpt>
      <trkpt lat="50.79241" lon="2.48444">
        <ele>64.156997680664</ele>
        <time>2011-04-17T10:17:19Z</time>
      </trkpt>
      <trkpt lat="50.79243" lon="2.48463">
        <ele>64.458000183105</ele>
        <time>2011-04-17T10:17:25Z</time>
      </trkpt>
      <trkpt lat="50.79242" lon="2.48465">
        <ele>64.398002624512</ele>
        <time>2011-04-17T10:17:26Z</time>
      </trkpt>
      <trkpt lat="50.79242" lon="2.48485">
        <ele>64.862998962402</ele>
        <time>2011-04-17T10:17:32Z</time>
      </trkpt>
      <trkpt lat="50.79244" lon="2.48501">
        <ele>65.181999206543</ele>
        <time>2011-04-17T10:17:36Z</time>
      </trkpt>
      <trkpt lat="50.79245" lon="2.48519">
        <ele>65.220001220703</ele>
        <time>2011-04-17T10:17:40Z</time>
      </trkpt>
      <trkpt lat="50.79251" lon="2.48545">
        <ele>65.322998046875</ele>
        <time>2011-04-17T10:17:47Z</time>
      </trkpt>
      <trkpt lat="50.79256" lon="2.48566">
        <ele>65.650001525879</ele>
        <time>2011-04-17T10:17:53Z</time>
      </trkpt>
      <trkpt lat="50.79259" lon="2.48581">
        <ele>65.361000061035</ele>
        <time>2011-04-17T10:17:58Z</time>
      </trkpt>
      <trkpt lat="50.79259" lon="2.48583">
        <ele>65.259002685547</ele>
        <time>2011-04-17T10:17:59Z</time>
      </trkpt>
      <trkpt lat="50.79263" lon="2.48592">
        <ele>65.148002624512</ele>
        <time>2011-04-17T10:18:03Z</time>
      </trkpt>
      <trkpt lat="50.79265" lon="2.48613">
        <ele>65.333999633789</ele>
        <time>2011-04-17T10:18:09Z</time>
      </trkpt>
      <trkpt lat="50.79267" lon="2.4863">
        <ele>65.503997802734</ele>
        <time>2011-04-17T10:18:13Z</time>
      </trkpt>
      <trkpt lat="50.79268" lon="2.48651">
        <ele>66.21199798584</ele>
        <time>2011-04-17T10:18:19Z</time>
      </trkpt>
      <trkpt lat="50.79268" lon="2.48653">
        <ele>66.287002563477</ele>
        <time>2011-04-17T10:18:20Z</time>
      </trkpt>
      <trkpt lat="50.79268" lon="2.48671">
        <ele>67.684997558594</ele>
        <time>2011-04-17T10:18:27Z</time>
      </trkpt>
      <trkpt lat="50.79268" lon="2.48678">
        <ele>68.199996948242</ele>
        <time>2011-04-17T10:18:30Z</time>
      </trkpt>
      <trkpt lat="50.79271" lon="2.48688">
        <ele>68.561996459961</ele>
        <time>2011-04-17T10:18:34Z</time>
      </trkpt>
      <trkpt lat="50.79282" lon="2.48699">
        <ele>69.137001037598</ele>
        <time>2011-04-17T10:18:41Z</time>
      </trkpt>
      <trkpt lat="50.79288" lon="2.48699">
        <ele>70.185997009277</ele>
        <time>2011-04-17T10:18:45Z</time>
      </trkpt>
      <trkpt lat="50.79296" lon="2.48695">
        <ele>71.055999755859</ele>
        <time>2011-04-17T10:18:52Z</time>
      </trkpt>
      <trkpt lat="50.79301" lon="2.48699">
        <ele>71.623001098633</ele>
        <time>2011-04-17T10:18:56Z</time>
      </trkpt>
      <trkpt lat="50.79302" lon="2.48705">
        <ele>72.299003601074</ele>
        <time>2011-04-17T10:18:59Z</time>
      </trkpt>
      <trkpt lat="50.79295" lon="2.48713">
        <ele>72.986999511719</ele>
        <time>2011-04-17T10:19:04Z</time>
      </trkpt>
      <trkpt lat="50.79285" lon="2.48718">
        <ele>73.093002319336</ele>
        <time>2011-04-17T10:19:07Z</time>
      </trkpt>
      <trkpt lat="50.79277" lon="2.48723">
        <ele>73.783996582031</ele>
        <time>2011-04-17T10:19:10Z</time>
      </trkpt>
      <trkpt lat="50.79279" lon="2.48741">
        <ele>74.859001159668</ele>
        <time>2011-04-17T10:19:15Z</time>
      </trkpt>
      <trkpt lat="50.79288" lon="2.48762">
        <ele>75.345001220703</ele>
        <time>2011-04-17T10:19:22Z</time>
      </trkpt>
      <trkpt lat="50.79293" lon="2.48774">
        <ele>75.582000732422</ele>
        <time>2011-04-17T10:19:28Z</time>
      </trkpt>
      <trkpt lat="50.79299" lon="2.48789">
        <ele>75.779998779297</ele>
        <time>2011-04-17T10:19:34Z</time>
      </trkpt>
      <trkpt lat="50.79306" lon="2.48801">
        <ele>75.86499786377</ele>
        <time>2011-04-17T10:19:38Z</time>
      </trkpt>
      <trkpt lat="50.79327" lon="2.48804">
        <ele>77.543998718262</ele>
        <time>2011-04-17T10:19:43Z</time>
      </trkpt>
      <trkpt lat="50.79342" lon="2.48806">
        <ele>78.533996582031</ele>
        <time>2011-04-17T10:19:46Z</time>
      </trkpt>
      <trkpt lat="50.79356" lon="2.48806">
        <ele>79.533996582031</ele>
        <time>2011-04-17T10:19:49Z</time>
      </trkpt>
      <trkpt lat="50.79375" lon="2.48814">
        <ele>80.96199798584</ele>
        <time>2011-04-17T10:19:54Z</time>
      </trkpt>
      <trkpt lat="50.79387" lon="2.4882">
        <ele>81.643997192383</ele>
        <time>2011-04-17T10:19:58Z</time>
      </trkpt>
      <trkpt lat="50.79388" lon="2.48823">
        <ele>81.999000549316</ele>
        <time>2011-04-17T10:19:59Z</time>
      </trkpt>
      <trkpt lat="50.79385" lon="2.48828">
        <ele>82.112998962402</ele>
        <time>2011-04-17T10:20:02Z</time>
      </trkpt>
    </trkseg>
  </trk>
</gpx>